[[{"header":{"parameterUnit":"m.s-1","parameterCategory":1,"la1":31.0,"la2":29.5877,"lo1":-88.7671,"lo2":-86.6584,"dx":0.0162,"dy":0.0185,"nx":115,"ny":88,"refTime":"2022-12-29T06:00:00:Z","depth":0,"parameterNumber":2,"parameterNumberName":"U-component_of_WINDS"},"data":[0.0,0.0,0.0,0.0,0.0,0.0,0.0,0.0,0.0,0.0,0.0,0.0,0.0,0.0,0.0,0.0,0.0,0.0,0.0,0.0,0.0,0.0,0.0,0.0,0.0,0.0,0.0,0.0,0.0,0.0,0.0,0.0,0.0,0.0,0.0,0.0,0.0,0.0,0.0,0.0,0.0,0.0,0.0,0.0,0.0,0.0,0.0,0.0,0.0,0.0,0.0,0.0,0.0,0.0,0.0,0.0,0.0,0.0,0.0,0.0,0.0,0.0,0.0,0.0,0.0,0.0,0.0,0.0,0.0,0.0,0.0,0.0,0.0,0.0,0.0,0.0,0.0,0.0,0.0,0.0,0.0,0.0,0.0,0.0,0.0,0.0,0.0,0.0,0.0,0.0,0.0,0.0,0.0,0.0,0.0,0.0,0.0,0.0,0.0,0.0,0.0,0.0,0.0,0.0,0.0,0.0,0.0,0.0,0.0,0.0,0.0,0.0,0.0,0.0,0.0,0.0,0.0,0.0,0.0,0.0,0.0,0.0,0.0,0.0,0.0,0.0,0.0,0.0,0.0,0.0,0.0,0.0,0.0,0.0,0.0,0.0,0.0,0.0,0.0,0.0,0.0,0.0,0.0,0.0,0.0,0.0,0.0,0.0,0.0,0.0,0.0,0.0,0.0,0.0,0.0,0.0,0.0,0.0,0.0,0.0,0.0,0.0,0.0,0.0,0.0,0.0,0.0,0.0,0.0,0.0,0.0,0.0,0.0,0.0,0.0,0.0,0.0,0.0,0.0,0.0,0.0,0.0,0.0,0.0,0.0,0.0,0.0,0.0,0.0,0.0,0.0,0.0,0.0,0.0,0.0,0.0,0.0,0.0,0.0,0.0,0.0,0.0,0.0,0.0,0.0,0.0,0.0,0.0,0.0,0.0,0.0,0.0,0.0,0.0,0.0,0.0,0.0,0.0,0.0,0.0,0.0,0.0,0.0,0.0,0.0,0.0,0.0,0.0,0.0,0.0,0.0,0.0,0.0,0.0,0.0,0.0,0.0,0.0,0.0,0.0,0.0,0.0,0.0,0.0,0.0,0.0,0.0,0.0,0.0,0.0,0.0,0.0,0.0,0.0,0.0,0.0,0.0,0.0,0.0,0.0,0.0,0.0,0.0,0.0,0.0,0.0,0.0,0.0,0.0,0.0,0.0,0.0,0.0,0.0,0.0,0.0,0.0,0.0,0.0,0.0,0.0,0.0,0.0,0.0,0.0,0.0,0.0,0.0,0.0,0.0,0.0,0.0,0.0,0.0,0.0,0.0,0.0,0.0,0.0,0.0,0.0,0.0,0.0,0.0,0.0,0.0,0.0,0.0,0.0,0.0,0.0,0.0,0.0,0.0,0.0,0.0,0.0,0.0,0.0,0.0,0.0,0.0,0.0,0.0,0.0,0.0,0.0,0.0,0.0,0.0,0.0,0.0,0.0,0.0,0.0,0.0,0.0,0.0,0.0,0.0,0.0,0.0,0.0,0.0,0.0,0.0,0.0,0.0,0.0,0.0,0.0,0.0,0.0,0.0,0.0,0.0,0.0,0.0,0.0,0.0,0.0,0.0,0.0,0.0,0.0,0.0,0.0,0.0,0.0,0.0,0.0,0.0,0.0,0.0,0.0,0.0,0.0,0.0,0.0,0.0,0.0,0.0,0.0,0.0,0.0,0.0,0.0,0.0,0.0,0.0,0.0,0.0,0.0,0.0,0.0,0.0,0.0,0.0,0.0,0.0,0.0,0.0,0.0,0.0,0.0,0.0,0.0,0.0,0.0,0.0,0.0,0.0,0.0,0.0,0.0,0.0,0.0,0.0,0.0,0.0,0.0,0.0,0.0,0.0,0.0,0.0,0.0,0.0,0.0,0.0,0.0,0.0,0.0,0.0,0.0,0.0,0.0,0.0,0.0,0.0,0.0,0.0,0.0,0.0,0.0,0.0,0.0,0.0,0.0,0.0,0.0,0.0,0.0,0.0,0.0,0.0,0.0,0.0,0.0,0.0,0.0,0.0,0.0,0.0,0.0,0.0,0.0,0.0,0.0,0.0,0.0,0.0,0.0,0.0,0.0,0.0,0.0,0.0,0.0,0.0,0.0,0.0,0.0,0.0,0.0,0.0,0.0,0.0,0.0,0.0,0.0,0.0,0.0,0.0,0.0,0.0,0.0,0.0,0.0,0.0,0.0,0.0,0.0,0.0,0.0,0.0,0.0,0.0,0.0,0.0,0.0,0.0,0.0,0.0,0.0,0.0,0.0,0.0,0.0,0.0,0.0,0.0,0.0,0.0,0.0,0.0,0.0,0.0,0.0,0.0,0.0,0.0,0.0,0.0,0.0,0.0,0.0,0.0,0.0,0.0,0.0,0.0,0.0,0.0,0.0,0.0,0.0,0.0,0.0,0.0,0.0,0.0,0.0,0.0,0.0,0.0,0.0,0.0,0.0,0.0,0.0,0.0,0.0,0.0,0.0,0.0,0.0,0.0,0.0,0.0,0.0,0.0,0.0,0.0,0.0,0.0,0.0,0.0,0.0,0.0,0.0,0.0,0.0,0.0,0.0,0.0,0.0,0.0,0.0,0.0,0.0,0.0,0.0,0.0,0.0,0.0,0.0,0.0,0.0,0.0,0.0,0.0,0.0,0.0,0.0,0.0,0.0,0.0,0.0,0.0,0.0,0.0,0.0,0.0,0.0,0.0,0.0,0.0,0.0,0.0,0.0,0.0,0.0,0.0,0.0,0.0,0.0,0.0,0.0,0.0,0.0,0.0,0.0,0.0,0.0,0.0,0.0,0.0,0.0,0.0,0.0,0.0,0.0,0.0,0.0,0.0,0.0,0.0,0.0,0.0,0.0,0.0,0.0,0.0,0.0,0.0,0.0,0.0,0.0,0.0,0.0,0.0,0.0,0.0,0.0,0.0,0.0,0.0,0.0,0.0,0.0,0.0,0.0,0.0,0.0,0.0,0.0,0.0,0.0,0.0,0.0,0.0,0.0,0.0,0.0,0.0,0.0,0.0,0.0,0.0,0.0,0.0,0.0,0.0,0.0,0.0,0.0,0.0,0.0,0.0,0.0,0.0,0.0,0.0,0.0,0.0,0.0,0.0,0.0,0.0,0.0,0.0,0.0,0.0,0.0,0.0,0.0,0.0,0.0,0.0,0.0,0.0,0.0,0.0,0.0,0.0,0.0,0.0,0.0,0.0,0.0,0.0,0.0,0.0,0.0,0.0,0.0,0.0,0.0,0.0,0.0,0.0,0.0,0.0,0.0,0.0,0.0,0.0,0.0,0.0,0.0,0.0,0.0,0.0,0.0,0.0,0.0,0.0,0.0,0.0,0.0,0.0,0.0,0.0,0.0,0.0,0.0,0.0,0.0,0.0,0.0,0.0,0.0,0.0,0.0,0.0,0.0,0.0,0.0,0.0,0.0,0.0,0.0,0.0,0.0,0.0,0.0,0.0,0.0,0.0,0.0,0.0,0.0,0.0,0.0,0.0,0.0,0.0,0.0,0.0,0.0,0.0,0.0,0.0,0.0,0.0,0.0,0.0,0.0,0.0,0.0,0.0,0.0,0.0,0.0,0.0,0.0,0.0,0.0,0.0,0.0,0.0,0.0,0.0,0.0,0.0,0.0,0.0,0.0,0.0,0.0,0.0,0.0,0.0,0.0,0.0,0.0,0.0,0.0,0.0,0.0,0.0,0.0,0.0,0.0,0.0,0.0,0.0,0.0,0.0,0.0,0.0,0.0,0.0,0.0,0.0,0.0,0.0,0.0,0.0,0.0,0.0,0.0,0.0,0.0,0.0,0.0,0.0,0.0,0.0,0.0,0.0,0.0,0.0,0.0,0.0,0.0,0.0,0.0,0.0,0.0,0.0,0.0,0.0,0.0,0.0,0.0,0.0,0.0,0.0,0.0,0.0,0.0,0.0,0.0,0.0,0.0,0.0,0.0,0.0,0.0,0.0,0.0,0.0,0.0,0.0,0.0,0.0,0.0,0.0,0.0,0.0,0.0,0.0,0.0,0.0,0.0,0.0,0.0,0.0,0.0,0.0,0.0,0.0,0.0,0.0,0.0,0.0,0.0,0.0,0.0,0.0,0.0,0.0,0.0,0.0,0.0,0.0,0.0,0.0,0.0,0.0,0.0,0.0,0.0,0.0,0.0,0.0,0.0,0.0,0.0,0.0,0.0,0.0,0.0,0.0,0.0,0.0,0.0,0.0,0.0,0.0,-0.7446,0.0,0.0,0.0,-0.8659,0.0,0.0,0.0,0.0,0.0,0.0,0.0,0.0,0.0,0.0,0.0,0.0,0.0,0.0,0.0,0.0,0.0,0.0,0.0,0.0,0.0,0.0,0.0,0.0,0.0,0.0,0.0,0.0,0.0,0.0,0.0,0.0,0.0,0.0,0.0,0.0,0.0,0.0,0.0,0.0,0.0,0.0,0.0,0.0,0.0,0.0,0.0,0.0,0.0,0.0,0.0,0.0,0.0,0.0,0.0,0.0,0.0,0.0,0.0,0.0,0.0,0.0,0.0,0.0,0.0,0.0,0.0,0.0,0.0,0.0,0.0,0.0,0.0,0.0,0.0,0.0,0.0,0.0,0.0,0.0,0.0,0.0,0.0,0.0,0.0,0.0,0.0,0.0,0.0,0.0,0.0,0.0,0.0,0.0,0.0,0.0,0.0,0.0,0.0,0.0,0.0,0.0,0.0,0.0,0.0,0.0,0.0,0.0,0.0,0.0,-0.7473,-0.7595,-0.8049,-0.8342,-0.8501,0.0,0.0,0.0,0.0,0.0,0.0,0.0,0.0,0.0,0.0,0.0,0.0,0.0,0.0,0.0,0.0,0.0,0.0,0.0,0.0,0.0,0.0,0.0,0.0,0.0,0.0,0.0,0.0,0.0,0.0,0.0,0.0,0.0,0.0,0.0,0.0,0.0,0.0,0.0,0.0,0.0,0.0,0.0,0.0,0.0,0.0,0.0,0.0,0.0,0.0,0.0,0.0,0.0,0.0,0.0,0.0,0.0,0.0,0.0,0.0,0.0,0.0,0.0,0.0,0.0,0.0,0.0,0.0,0.0,0.0,0.0,0.0,0.0,0.0,0.0,0.0,0.0,0.0,0.0,0.0,0.0,0.0,0.0,0.0,0.0,0.0,0.0,0.0,0.0,0.0,0.0,0.0,0.0,0.0,0.0,0.0,0.0,0.0,0.0,0.0,0.0,0.0,0.0,0.0,0.0,0.0,0.0,0.0,0.0,0.0,0.0,0.0,-0.7901,-0.8221,-0.8395,0.0,0.0,0.0,0.0,0.0,0.0,0.0,0.0,0.0,0.0,0.0,0.0,0.0,0.0,0.0,0.0,0.0,0.0,0.0,0.0,0.0,0.0,0.0,0.0,0.0,0.0,0.0,0.0,0.0,0.0,0.0,0.0,0.0,0.0,0.0,0.0,0.0,0.0,0.0,0.0,0.0,0.0,0.0,0.0,0.0,0.0,0.0,0.0,0.0,0.0,0.0,0.0,0.0,0.0,0.0,0.0,0.0,0.0,0.0,0.0,0.0,0.0,0.0,0.0,0.0,0.0,0.0,0.0,0.0,0.0,0.0,0.0,0.0,0.0,0.0,0.0,0.0,0.0,0.0,0.0,0.0,0.0,0.0,0.0,0.0,0.0,0.0,0.0,0.0,0.0,0.0,0.0,0.0,0.0,0.0,0.0,0.0,0.0,0.0,0.0,0.0,0.0,0.0,0.0,0.0,0.0,0.0,0.0,0.0,0.0,-0.7392,-0.7488,-0.7794,0.0,-0.8368,0.0,0.0,0.0,0.0,0.0,0.0,0.0,0.0,0.0,0.0,0.0,0.0,0.0,0.0,0.0,0.0,0.0,0.0,0.0,0.0,0.0,0.0,0.0,0.0,0.0,0.0,0.0,0.0,0.0,0.0,0.0,0.0,0.0,0.0,0.0,0.0,0.0,0.0,0.0,0.0,0.0,0.0,0.0,0.0,0.0,0.0,0.0,0.0,0.0,0.0,0.0,0.0,0.0,0.0,0.0,0.0,0.0,0.0,0.0,0.0,0.0,0.0,0.0,0.0,0.0,0.0,0.0,0.0,0.0,0.0,0.0,0.0,0.0,0.0,0.0,0.0,0.0,0.0,0.0,0.0,0.0,0.0,0.0,0.0,0.0,0.0,0.0,0.0,0.0,0.0,0.0,0.0,0.0,0.0,0.0,0.0,0.0,0.0,0.0,0.0,0.0,0.0,0.0,0.0,0.0,0.0,0.0,0.0,0.0,0.0,-0.7311,-0.7365,-0.7714,-0.8035,0.0,0.0,0.0,0.0,0.0,0.0,0.0,0.0,0.0,0.0,0.0,0.0,0.0,0.0,0.0,0.0,0.0,0.0,0.0,0.0,0.0,0.0,0.0,0.0,0.0,0.0,0.0,0.0,0.0,0.0,0.0,0.0,0.0,0.0,0.0,0.0,0.0,0.0,0.0,0.0,0.0,0.0,0.0,0.0,0.0,0.0,0.0,0.0,0.0,0.0,0.0,0.0,0.0,0.0,0.0,0.0,0.0,0.0,0.0,0.0,0.0,0.0,0.0,0.0,0.0,0.0,0.0,0.0,0.0,0.0,0.0,0.0,0.0,0.0,0.0,0.0,0.0,0.0,0.0,0.0,0.0,0.0,0.0,0.0,0.0,0.0,0.0,0.0,0.0,0.0,0.0,0.0,0.0,0.0,0.0,0.0,0.0,0.0,0.0,0.0,0.0,0.0,0.0,0.0,0.0,0.0,0.0,0.0,0.0,0.0,-0.7149,-0.7284,-0.7311,-0.766,-0.7928,-0.8049,0.0,0.0,0.0,0.0,0.0,0.0,0.0,0.0,0.0,0.0,0.0,0.0,0.0,0.0,0.0,0.0,0.0,0.0,0.0,0.0,0.0,0.0,0.0,0.0,0.0,0.0,0.0,0.0,0.0,0.0,0.0,0.0,0.0,0.0,0.0,0.0,0.0,0.0,0.0,0.0,0.0,0.0,0.0,0.0,0.0,0.0,0.0,0.0,0.0,0.0,0.0,0.0,0.0,0.0,0.0,0.0,0.0,0.0,0.0,0.0,0.0,0.0,0.0,0.0,0.0,0.0,0.0,0.0,0.0,0.0,0.0,0.0,0.0,0.0,0.0,0.0,0.0,0.0,0.0,0.0,0.0,0.0,0.0,0.0,0.0,0.0,0.0,0.0,0.0,0.0,0.0,0.0,0.0,0.0,0.0,0.0,0.0,0.0,0.0,0.0,0.0,0.0,0.0,0.0,0.0,0.0,0.0,0.0,-0.7085,-0.7112,-0.7176,-0.7295,-0.7568,-0.7729,0.0,0.0,0.0,0.0,0.0,0.0,0.0,0.0,0.0,0.0,0.0,0.0,0.0,0.0,0.0,0.0,0.0,0.0,0.0,0.0,0.0,0.0,0.0,0.0,0.0,0.0,0.0,0.0,0.0,0.0,0.0,0.0,0.0,0.0,0.0,0.0,0.0,0.0,0.0,0.0,0.0,0.0,0.0,0.0,0.0,0.0,0.0,0.0,0.0,0.0,0.0,0.0,0.0,0.0,0.0,0.0,0.0,0.0,0.0,0.0,0.0,0.0,0.0,0.0,0.0,0.0,0.0,0.0,0.0,0.0,0.0,0.0,0.0,0.0,0.0,0.0,0.0,0.0,0.0,0.0,0.0,0.0,0.0,0.0,0.0,0.0,0.0,0.0,0.0,0.0,0.0,0.0,0.0,0.0,0.0,0.0,0.0,0.0,0.0,0.0,0.0,0.0,0.0,0.0,0.0,0.0,0.0,0.0,0.0,-0.7112,-0.7235,-0.7442,-0.7726,-0.7779,-0.7865,0.0,0.0,0.0,0.0,0.0,0.0,0.0,0.0,0.0,0.0,0.0,0.0,0.0,0.0,0.0,0.0,0.0,0.0,0.0,0.0,0.0,0.0,0.0,0.0,0.0,0.0,0.0,0.0,0.0,0.0,0.0,0.0,0.0,0.0,0.0,0.0,0.0,0.0,0.0,0.0,0.0,0.0,0.0,0.0,0.0,0.0,0.0,0.0,0.0,0.0,0.0,0.0,0.0,0.0,0.0,0.0,0.0,0.0,0.0,0.0,0.0,0.0,0.0,0.0,0.0,0.0,0.0,0.0,0.0,0.0,0.0,0.0,0.0,0.0,0.0,0.0,0.0,0.0,0.0,0.0,0.0,0.0,0.0,0.0,0.0,0.0,0.0,0.0,0.0,0.0,0.0,0.0,0.0,0.0,0.0,0.0,0.0,0.0,0.0,0.0,0.0,0.0,0.0,0.0,0.0,0.0,0.0,0.0,0.0,-0.7203,-0.7412,-0.7674,-0.7922,-0.7993,-0.8012,0.0,0.0,0.0,0.0,0.0,0.0,0.0,0.0,0.0,0.0,0.0,0.0,0.0,0.0,0.0,0.0,0.0,0.0,0.0,0.0,0.0,0.0,0.0,0.0,0.0,0.0,0.0,0.0,0.0,0.0,0.0,0.0,0.0,0.0,0.0,0.0,0.0,0.0,0.0,0.0,0.0,0.0,0.0,0.0,0.0,0.0,0.0,0.0,0.0,0.0,0.0,0.0,0.0,0.0,0.0,0.0,0.0,0.0,0.0,0.0,0.0,0.0,0.0,0.0,0.0,0.0,0.0,0.0,0.0,0.0,0.0,0.0,0.0,0.0,0.0,0.0,0.0,0.0,0.0,0.0,0.0,0.0,0.0,0.0,0.0,0.0,0.0,0.0,0.0,0.0,0.0,0.0,0.0,0.0,0.0,0.0,0.0,0.0,0.0,0.0,0.0,0.0,0.0,0.0,0.0,0.0,0.0,0.0,-0.7356,-0.7433,-0.7698,-0.7857,-0.7847,-0.8155,-0.8206,0.0,0.0,0.0,0.0,0.0,0.0,0.0,0.0,0.0,0.0,0.0,0.0,0.0,0.0,0.0,0.0,0.0,0.0,0.0,0.0,0.0,0.0,0.0,0.0,0.0,0.0,0.0,0.0,0.0,0.0,0.0,0.0,0.0,0.0,0.0,0.0,0.0,0.0,0.0,0.0,0.0,0.0,0.0,0.0,0.0,0.0,0.0,0.0,0.0,0.0,0.0,0.0,0.0,0.0,0.0,0.0,0.0,0.0,0.0,0.0,0.0,0.0,0.0,0.0,0.0,0.0,0.0,0.0,0.0,0.0,0.0,0.0,0.0,0.0,0.0,0.0,0.0,0.0,0.0,0.0,0.0,0.0,0.0,0.0,0.0,0.0,0.0,0.0,0.0,0.0,0.0,0.0,0.0,0.0,0.0,0.0,0.0,0.0,0.0,0.0,0.0,0.0,0.0,0.0,0.0,0.0,0.0,0.0,0.0,-0.837,-0.8447,-0.862,-0.8894,-0.8937,-0.8854,0.0,0.0,0.0,0.0,0.0,0.0,0.0,0.0,0.0,0.0,0.0,0.0,0.0,0.0,0.0,0.0,0.0,0.0,0.0,0.0,0.0,0.0,0.0,0.0,0.0,0.0,0.0,0.0,0.0,0.0,0.0,0.0,0.0,0.0,0.0,0.0,0.0,0.0,0.0,0.0,0.0,0.0,0.0,0.0,0.0,0.0,0.0,0.0,0.0,0.0,0.0,0.0,0.0,0.0,0.0,0.0,0.0,0.0,0.0,0.0,0.0,0.0,0.0,0.0,0.0,0.0,0.0,0.0,0.0,0.0,0.0,0.0,0.0,0.0,0.0,0.0,0.0,0.0,0.0,0.0,0.0,0.0,0.0,0.0,0.0,0.0,0.0,0.0,0.0,0.0,0.0,0.0,0.0,0.0,0.0,0.0,0.0,0.0,0.0,0.0,0.0,0.0,0.0,0.0,0.0,0.0,0.0,0.0,0.0,-0.9869,-0.9616,-0.9581,-0.9846,-0.9864,-0.9557,-0.8951,0.0,0.0,0.0,0.0,0.0,0.0,0.0,0.0,0.0,0.0,0.0,0.0,0.0,0.0,0.0,0.0,0.0,0.0,0.0,0.0,0.0,0.0,0.0,0.0,0.0,0.0,0.0,0.0,0.0,0.0,0.0,0.0,0.0,0.0,0.0,0.0,0.0,0.0,0.0,0.0,0.0,0.0,0.0,0.0,0.0,0.0,0.0,0.0,0.0,0.0,0.0,0.0,0.0,0.0,0.0,0.0,0.0,0.0,0.0,0.0,0.0,0.0,0.0,0.0,0.0,0.0,0.0,0.0,0.0,0.0,0.0,0.0,0.0,0.0,0.0,0.0,0.0,0.0,0.0,0.0,0.0,0.0,0.0,0.0,0.0,0.0,0.0,0.0,0.0,0.0,0.0,0.0,0.0,0.0,0.0,0.0,0.0,0.0,0.0,0.0,0.0,0.0,0.0,0.0,0.0,0.0,0.0,0.0,-1.1721,-1.1143,-1.0779,-1.0731,-1.0816,-1.0288,0.0,0.0,0.0,0.0,0.0,0.0,0.0,0.0,0.0,0.0,0.0,0.0,0.0,0.0,0.0,0.0,0.0,0.0,0.0,0.0,0.0,0.0,0.0,0.0,0.0,0.0,0.0,0.0,0.0,0.0,0.0,0.0,0.0,0.0,0.0,0.0,0.0,0.0,0.0,0.0,0.0,0.0,0.0,0.0,0.0,0.0,0.0,0.0,0.0,0.0,0.0,0.0,0.0,0.0,0.0,0.0,0.0,0.0,0.0,0.0,0.0,0.0,0.0,0.0,0.0,0.0,0.0,0.0,0.0,0.0,0.0,0.0,0.0,0.0,0.0,0.0,0.0,0.0,0.0,0.0,0.0,0.0,0.0,0.0,0.0,0.0,0.0,0.0,0.0,0.0,0.0,0.0,0.0,0.0,0.0,0.0,0.0,0.0,0.0,0.0,0.0,0.0,0.0,0.0,0.0,0.0,0.0,0.0,0.0,-1.2334,-1.2949,-1.2857,-1.2092,-1.1751,-1.112,0.0,0.0,0.0,0.0,0.0,0.0,0.0,0.0,0.0,0.0,0.0,0.0,0.0,0.0,0.0,0.0,0.0,0.0,0.0,0.0,0.0,0.0,0.0,0.0,0.0,0.0,0.0,0.0,0.0,0.0,0.0,0.0,0.0,0.0,0.0,0.0,0.0,0.0,0.0,0.0,0.0,0.0,0.0,0.0,0.0,0.0,0.0,0.0,0.0,0.0,0.0,0.0,0.0,0.0,0.0,0.0,0.0,0.0,0.0,0.0,0.0,0.0,0.0,0.0,0.0,0.0,0.0,0.0,0.0,0.0,0.0,0.0,0.0,0.0,0.0,0.0,0.0,0.0,0.0,0.0,0.0,0.0,0.0,0.0,0.0,0.0,0.0,0.0,0.0,0.0,0.0,0.0,0.0,0.0,0.0,0.0,0.0,0.0,0.0,0.0,0.0,0.0,0.0,0.0,0.0,0.0,0.0,0.0,-1.2387,-1.328,-1.4235,-1.441,-1.3783,-1.2962,-1.2,0.0,0.0,0.0,0.0,0.0,0.0,0.0,0.0,0.0,0.0,0.0,0.0,0.0,0.0,0.0,0.0,0.0,0.0,0.0,0.0,0.0,0.0,0.0,0.0,0.0,0.0,0.0,0.0,0.0,0.0,0.0,0.0,0.0,0.0,0.0,0.0,0.0,0.0,0.0,0.0,0.0,0.0,0.0,0.0,0.0,0.0,0.0,0.0,0.0,0.0,0.0,0.0,0.0,0.0,0.0,0.0,0.0,0.0,0.0,0.0,0.0,0.0,0.0,0.0,0.0,0.0,0.0,0.0,0.0,0.0,0.0,0.0,0.0,0.0,0.0,0.0,0.0,0.0,0.0,0.0,0.0,0.0,0.0,0.0,0.0,0.0,0.0,0.0,0.0,0.0,0.0,0.0,0.0,0.0,0.0,0.0,0.0,0.0,0.0,0.0,0.0,0.0,0.0,0.0,0.0,0.0,0.0,0.0,-1.3149,-1.4191,-1.5033,-1.5444,-1.5418,-1.4138,-1.2829,0.0,0.0,0.0,0.0,0.0,0.0,0.0,0.0,0.0,0.0,0.0,0.0,0.0,0.0,0.0,0.0,0.0,0.0,0.0,0.0,0.0,0.0,0.0,0.0,0.0,0.0,0.0,0.0,0.0,0.0,0.0,0.0,0.0,0.0,0.0,0.0,0.0,0.0,0.0,0.0,0.0,0.0,0.0,0.0,0.0,0.0,0.0,0.0,0.0,0.0,0.0,0.0,0.0,0.0,0.0,0.0,0.0,0.0,0.0,0.0,0.0,0.0,0.0,0.0,0.0,0.0,0.0,0.0,0.0,0.0,0.0,0.0,0.0,0.0,0.0,0.0,0.0,0.0,0.0,0.0,0.0,0.0,0.0,0.0,0.0,0.0,0.0,0.0,0.0,0.0,0.0,0.0,0.0,0.0,0.0,0.0,0.0,0.0,0.0,0.0,0.0,0.0,0.0,0.0,0.0,0.0,0.0,0.0,-1.3368,-1.4161,-1.5186,-1.5738,-1.5691,-1.4481,-1.3286,0.0,0.0,0.0,0.0,0.0,0.0,0.0,0.0,0.0,0.0,0.0,0.0,0.0,0.0,0.0,0.0,0.0,0.0,0.0,0.0,0.0,0.0,0.0,0.0,0.0,0.0,0.0,0.0,0.0,0.0,0.0,0.0,0.0,0.0,0.0,0.0,0.0,0.0,0.0,0.0,0.0,0.0,0.0,0.0,0.0,0.0,0.0,0.0,-1.2959,0.0,0.0,0.0,0.0,0.0,0.0,0.0,0.0,0.0,0.0,0.0,0.0,0.0,0.0,0.0,0.0,0.0,0.0,0.0,0.0,0.0,0.0,0.0,0.0,0.0,0.0,0.0,0.0,0.0,0.0,0.0,0.0,0.0,0.0,0.0,0.0,0.0,0.0,0.0,0.0,0.0,0.0,0.0,0.0,0.0,0.0,0.0,0.0,0.0,0.0,0.0,0.0,0.0,0.0,0.0,0.0,0.0,0.0,0.0,-1.3946,-1.4923,-1.5511,-1.5879,-1.5961,-1.4969,-1.3942,0.0,0.0,0.0,0.0,0.0,0.0,0.0,0.0,0.0,0.0,0.0,0.0,0.0,0.0,0.0,0.0,0.0,0.0,0.0,0.0,0.0,0.0,0.0,0.0,0.0,0.0,0.0,0.0,0.0,0.0,0.0,0.0,0.0,0.0,0.0,0.0,0.0,0.0,0.0,0.0,0.0,0.0,0.0,0.0,0.0,0.0,0.0,0.0,0.0,0.0,0.0,0.0,0.0,0.0,0.0,0.0,0.0,0.0,0.0,0.0,0.0,0.0,0.0,0.0,0.0,0.0,0.0,0.0,0.0,0.0,0.0,0.0,0.0,0.0,0.0,0.0,0.0,0.0,0.0,0.0,0.0,0.0,0.0,0.0,0.0,0.0,0.0,0.0,0.0,0.0,0.0,0.0,0.0,0.0,0.0,0.0,0.0,0.0,0.0,0.0,0.0,0.0,0.0,0.0,0.0,0.0,0.0,-1.338,-1.4563,-1.5792,-1.5873,-1.5974,-1.6177,-1.5505,-1.4527,-1.3302,0.0,0.0,0.0,0.0,0.0,0.0,0.0,0.0,0.0,0.0,0.0,0.0,0.0,0.0,0.0,0.0,0.0,0.0,0.0,0.0,0.0,0.0,0.0,0.0,0.0,0.0,0.0,0.0,0.0,0.0,0.0,0.0,0.0,0.0,0.0,0.0,0.0,0.0,-1.1193,-1.245,0.0,0.0,0.0,0.0,0.0,0.0,0.0,0.0,-1.4653,0.0,0.0,0.0,0.0,0.0,0.0,0.0,0.0,0.0,0.0,0.0,0.0,0.0,0.0,0.0,0.0,0.0,0.0,0.0,0.0,0.0,0.0,0.0,0.0,0.0,0.0,0.0,0.0,0.0,0.0,0.0,0.0,0.0,0.0,0.0,0.0,0.0,0.0,0.0,0.0,0.0,0.0,0.0,0.0,0.0,0.0,0.0,0.0,0.0,0.0,0.0,0.0,0.0,0.0,0.0,0.0,-1.2784,-1.3896,-1.5014,-1.6081,-1.6107,-1.6177,-1.6163,-1.5644,-1.4765,-1.3472,0.0,0.0,0.0,0.0,0.0,0.0,0.0,0.0,0.0,0.0,0.0,0.0,0.0,0.0,0.0,0.0,0.0,0.0,0.0,0.0,0.0,0.0,0.0,0.0,0.0,0.0,0.0,0.0,0.0,0.0,0.0,0.0,0.0,0.0,0.0,0.0,0.0,0.0,0.0,-1.413,-1.4851,0.0,0.0,0.0,0.0,0.0,0.0,0.0,0.0,-1.5737,0.0,0.0,0.0,0.0,0.0,0.0,0.0,0.0,0.0,0.0,0.0,0.0,0.0,0.0,0.0,0.0,0.0,0.0,0.0,0.0,0.0,0.0,0.0,0.0,0.0,0.0,0.0,0.0,0.0,0.0,0.0,0.0,0.0,0.0,0.0,0.0,0.0,0.0,0.0,0.0,0.0,0.0,0.0,0.0,0.0,0.0,0.0,0.0,0.0,0.0,0.0,0.0,0.0,0.0,0.0,-1.3331,-1.4405,-1.5403,-1.6383,-1.6284,-1.6272,-1.64,-1.5737,-1.4887,0.0,0.0,0.0,0.0,0.0,0.0,0.0,0.0,0.0,0.0,0.0,0.0,0.0,0.0,0.0,0.0,0.0,0.0,0.0,0.0,0.0,0.0,0.0,0.0,0.0,0.0,0.0,0.0,0.0,0.0,0.0,0.0,0.0,0.0,0.0,0.0,0.0,0.0,0.0,0.0,-1.5259,-1.5913,-1.7113,0.0,0.0,0.0,0.0,0.0,0.0,-1.7301,-1.7095,0.0,0.0,0.0,0.0,0.0,0.0,0.0,0.0,0.0,0.0,0.0,0.0,0.0,0.0,0.0,0.0,0.0,0.0,0.0,0.0,0.0,0.0,0.0,0.0,0.0,0.0,0.0,0.0,0.0,0.0,0.0,0.0,0.0,0.0,0.0,0.0,0.0,0.0,0.0,0.0,0.0,0.0,0.0,0.0,0.0,0.0,0.0,0.0,0.0,0.0,0.0,0.0,0.0,0.0,0.0,-1.4075,-1.522,-1.612,-1.6875,-1.6636,-1.6541,-1.6683,-1.5822,-1.491,0.0,0.0,0.0,0.0,0.0,0.0,0.0,0.0,0.0,0.0,0.0,0.0,0.0,0.0,0.0,0.0,0.0,0.0,0.0,0.0,0.0,0.0,0.0,0.0,0.0,0.0,0.0,0.0,0.0,0.0,0.0,0.0,0.0,0.0,0.0,0.0,0.0,0.0,0.0,0.0,0.0,-1.7296,-1.8725,-1.8589,0.0,0.0,0.0,0.0,-1.8862,-1.8677,0.0,0.0,0.0,0.0,0.0,0.0,0.0,0.0,0.0,0.0,0.0,0.0,0.0,0.0,0.0,0.0,0.0,0.0,0.0,0.0,0.0,0.0,0.0,0.0,0.0,0.0,0.0,0.0,0.0,0.0,0.0,0.0,0.0,0.0,0.0,0.0,0.0,0.0,0.0,0.0,0.0,0.0,0.0,0.0,0.0,0.0,0.0,0.0,0.0,0.0,0.0,0.0,0.0,0.0,0.0,0.0,-1.5233,-1.6848,-1.775,-1.7917,-1.7652,-1.734,-1.6965,-1.5878,-1.4872,0.0,0.0,0.0,0.0,0.0,0.0,0.0,0.0,0.0,0.0,0.0,0.0,0.0,0.0,0.0,0.0,0.0,0.0,0.0,0.0,0.0,0.0,0.0,0.0,0.0,0.0,0.0,0.0,0.0,0.0,0.0,0.0,0.0,0.0,0.0,0.0,0.0,0.0,0.0,0.0,0.0,-1.9558,-2.0877,-2.1022,-2.1022,0.0,0.0,-2.0748,-2.0369,-2.0114,0.0,0.0,0.0,0.0,0.0,0.0,0.0,0.0,0.0,0.0,0.0,0.0,0.0,0.0,0.0,0.0,0.0,0.0,0.0,0.0,0.0,0.0,0.0,0.0,0.0,0.0,0.0,0.0,0.0,0.0,0.0,0.0,0.0,0.0,0.0,0.0,0.0,0.0,0.0,0.0,0.0,0.0,0.0,0.0,0.0,0.0,0.0,0.0,0.0,0.0,0.0,0.0,0.0,0.0,0.0,-1.4553,-1.5884,-1.738,-1.8054,-1.787,-1.7746,-1.7466,-1.6979,-1.5896,-1.4977,0.0,0.0,0.0,0.0,0.0,0.0,0.0,0.0,0.0,0.0,0.0,0.0,0.0,0.0,0.0,0.0,0.0,0.0,0.0,0.0,0.0,0.0,0.0,0.0,0.0,0.0,0.0,0.0,0.0,0.0,0.0,0.0,0.0,0.0,0.0,0.0,0.0,0.0,0.0,0.0,0.0,0.0,-2.2231,-2.267,0.0,0.0,0.0,-2.3348,-2.3141,0.0,0.0,0.0,0.0,0.0,0.0,0.0,0.0,0.0,0.0,0.0,0.0,0.0,0.0,0.0,0.0,0.0,0.0,0.0,0.0,0.0,0.0,0.0,0.0,0.0,0.0,0.0,0.0,0.0,0.0,0.0,0.0,0.0,0.0,0.0,0.0,0.0,0.0,0.0,0.0,0.0,0.0,0.0,0.0,0.0,0.0,0.0,0.0,0.0,0.0,0.0,0.0,0.0,0.0,0.0,0.0,0.0,-1.6591,-1.8148,-1.8678,-1.8102,-1.8056,-1.7746,-1.7106,-1.6102,0.0,0.0,0.0,0.0,0.0,0.0,0.0,0.0,0.0,0.0,0.0,0.0,0.0,0.0,0.0,0.0,0.0,0.0,0.0,0.0,0.0,0.0,0.0,0.0,0.0,0.0,0.0,-0.895,0.0,0.0,0.0,0.0,0.0,0.0,0.0,0.0,0.0,0.0,0.0,0.0,0.0,0.0,-2.2611,-2.3999,-2.4721,-2.5289,0.0,0.0,-2.5567,-2.5388,-2.4731,-2.3857,0.0,0.0,0.0,0.0,0.0,0.0,0.0,0.0,0.0,0.0,0.0,0.0,0.0,0.0,0.0,0.0,0.0,0.0,0.0,0.0,0.0,0.0,0.0,0.0,0.0,0.0,0.0,0.0,0.0,0.0,0.0,0.0,0.0,0.0,0.0,0.0,0.0,0.0,0.0,0.0,0.0,0.0,0.0,0.0,0.0,0.0,0.0,0.0,0.0,0.0,0.0,0.0,0.0,0.0,-1.6646,-1.7725,-1.9748,-2.024,-1.9134,-1.9104,-1.8535,-1.7326,-1.6728,-1.5953,0.0,0.0,0.0,0.0,0.0,0.0,0.0,0.0,0.0,0.0,0.0,0.0,0.0,0.0,0.0,0.0,0.0,0.0,0.0,0.0,0.0,0.0,0.0,0.0,0.0,0.0,0.0,0.0,0.0,0.0,0.0,0.0,0.0,0.0,0.0,0.0,0.0,0.0,0.0,0.0,0.0,-2.5923,-2.6747,-2.799,-2.8558,0.0,-2.7142,-2.6667,-2.6353,-2.5846,-2.5094,-2.3985,0.0,0.0,0.0,0.0,0.0,0.0,0.0,0.0,0.0,0.0,0.0,0.0,0.0,0.0,0.0,0.0,0.0,0.0,0.0,0.0,0.0,0.0,0.0,0.0,0.0,0.0,0.0,0.0,0.0,0.0,0.0,0.0,0.0,0.0,0.0,0.0,0.0,0.0,0.0,0.0,0.0,0.0,0.0,0.0,0.0,0.0,0.0,0.0,0.0,0.0,0.0,0.0,0.0,-1.7286,-1.8538,-2.0297,-2.0985,-2.0415,-1.9846,-1.9241,-1.8667,-1.768,-1.6747,0.0,0.0,0.0,0.0,0.0,0.0,0.0,0.0,0.0,0.0,0.0,0.0,0.0,0.0,0.0,0.0,0.0,0.0,0.0,0.0,0.0,0.0,0.0,0.0,0.0,0.0,0.0,0.0,-1.556,-1.6402,-1.6395,0.0,0.0,0.0,0.0,0.0,0.0,0.0,0.0,0.0,0.0,-2.8675,-3.0048,-3.0786,0.0,0.0,-2.9947,-2.925,-2.8925,-2.8173,-2.7249,-2.6243,-2.4792,0.0,0.0,0.0,0.0,0.0,0.0,0.0,0.0,0.0,0.0,0.0,0.0,0.0,0.0,0.0,0.0,0.0,0.0,0.0,0.0,0.0,0.0,0.0,0.0,0.0,0.0,0.0,0.0,0.0,0.0,0.0,0.0,0.0,0.0,0.0,0.0,0.0,0.0,0.0,0.0,0.0,0.0,0.0,0.0,0.0,0.0,0.0,0.0,0.0,0.0,0.0,0.0,-1.8053,-1.9442,-2.0985,-2.1689,-2.1491,-2.0476,-1.9846,-1.9634,-1.8461,-1.7567,0.0,0.0,0.0,0.0,0.0,0.0,0.0,0.0,0.0,0.0,0.0,0.0,0.0,0.0,0.0,0.0,0.0,0.0,0.0,0.0,0.0,0.0,0.0,0.0,0.0,0.0,0.0,0.0,-1.7298,-1.7878,-1.8037,0.0,0.0,0.0,0.0,0.0,0.0,0.0,0.0,0.0,0.0,-3.1425,-3.2679,-3.311,-3.3219,-3.3044,-3.2174,-3.1407,-3.0937,-3.0254,-2.9383,-2.8205,0.0,0.0,0.0,0.0,0.0,0.0,0.0,0.0,0.0,0.0,0.0,0.0,0.0,0.0,0.0,0.0,0.0,0.0,0.0,0.0,0.0,0.0,0.0,0.0,0.0,0.0,0.0,0.0,0.0,0.0,-1.3447,0.0,0.0,0.0,0.0,0.0,0.0,0.0,0.0,0.0,0.0,0.0,0.0,0.0,0.0,0.0,0.0,0.0,0.0,0.0,0.0,0.0,0.0,-1.9015,-2.0568,-2.1961,-2.2548,-2.2162,-2.1131,-2.0378,-1.9925,-1.9128,-1.842,-1.7776,0.0,0.0,0.0,0.0,0.0,0.0,0.0,0.0,0.0,0.0,0.0,0.0,0.0,0.0,0.0,0.0,0.0,0.0,0.0,0.0,0.0,0.0,0.0,0.0,0.0,0.0,-1.7841,-1.855,-1.9074,0.0,0.0,0.0,0.0,0.0,0.0,0.0,0.0,0.0,0.0,-3.2175,-3.4242,-3.434,-3.5005,-3.5131,-3.4247,-3.3593,-3.2914,-3.2117,-3.1797,-3.1134,0.0,0.0,0.0,0.0,0.0,0.0,0.0,0.0,0.0,0.0,0.0,0.0,0.0,0.0,0.0,0.0,0.0,0.0,0.0,0.0,0.0,0.0,0.0,0.0,0.0,0.0,0.0,-1.6963,-1.8217,0.0,0.0,0.0,0.0,0.0,0.0,0.0,0.0,0.0,0.0,0.0,-1.8261,-1.8068,0.0,0.0,0.0,0.0,0.0,0.0,0.0,0.0,0.0,0.0,0.0,0.0,-1.9696,-2.1248,-2.2659,-2.3439,-2.3547,-2.2364,-2.1607,-2.1345,-2.061,-1.9645,-1.8483,0.0,0.0,0.0,0.0,0.0,0.0,0.0,0.0,0.0,0.0,0.0,0.0,0.0,0.0,0.0,0.0,0.0,0.0,0.0,0.0,0.0,0.0,0.0,0.0,0.0,-1.8357,0.0,0.0,0.0,0.0,0.0,0.0,0.0,0.0,0.0,0.0,0.0,-3.0265,-3.2922,-3.4593,-3.5936,-3.7014,-3.7295,-3.714,0.0,0.0,0.0,0.0,0.0,0.0,0.0,0.0,0.0,0.0,0.0,0.0,0.0,0.0,-2.8972,-2.7619,-2.7694,-2.8219,-2.9155,0.0,0.0,0.0,0.0,0.0,0.0,0.0,0.0,0.0,0.0,0.0,0.0,0.0,0.0,-1.9553,0.0,-2.0012,0.0,0.0,0.0,0.0,0.0,0.0,0.0,0.0,-1.9442,-1.9516,-1.9312,-1.9353,-1.9129,0.0,-1.874,-1.7775,0.0,0.0,0.0,0.0,0.0,0.0,0.0,0.0,-2.0693,-2.2252,-2.3515,-2.4345,-2.4554,-2.3535,-2.2874,-2.2769,-2.1996,-2.1062,-1.9978,-1.9145,-1.798,0.0,0.0,0.0,0.0,0.0,0.0,0.0,0.0,0.0,0.0,0.0,0.0,0.0,0.0,0.0,0.0,0.0,0.0,0.0,0.0,0.0,0.0,0.0,-2.1361,0.0,0.0,0.0,0.0,0.0,0.0,0.0,0.0,0.0,-2.8296,-3.0818,-3.3517,-3.5702,-3.685,-3.7782,-3.8734,0.0,0.0,0.0,0.0,0.0,0.0,0.0,-3.5211,-3.4264,-3.3661,-3.316,-3.2719,-3.2574,-3.2758,-3.3335,0.0,0.0,-3.1935,-3.2316,-3.3276,-3.4163,-3.481,-3.526,-3.527,-3.5832,-3.6227,0.0,0.0,0.0,0.0,0.0,0.0,0.0,0.0,-2.1018,-2.2005,0.0,-2.22,0.0,0.0,0.0,0.0,0.0,-1.9692,0.0,0.0,-2.0609,-2.0837,-2.0457,-2.0676,-2.0542,-2.0175,-2.0093,-2.0025,-1.9876,-1.8372,0.0,0.0,0.0,0.0,0.0,0.0,-2.1878,-2.3474,-2.4602,-2.5197,-2.5314,-2.4541,-2.4146,-2.4066,-2.326,-2.2603,-2.2114,-2.0943,-1.9888,-1.8909,-1.7383,0.0,0.0,0.0,0.0,0.0,0.0,0.0,0.0,0.0,0.0,0.0,0.0,0.0,0.0,0.0,0.0,0.0,0.0,0.0,0.0,-2.4014,0.0,0.0,0.0,0.0,0.0,0.0,0.0,0.0,0.0,0.0,-3.1202,-3.4193,-3.6714,-3.744,0.0,0.0,0.0,0.0,-3.9272,-3.8953,-3.8761,-3.8431,-3.7648,-3.8451,-3.8317,-3.616,0.0,0.0,-3.5136,-3.5872,-3.6799,-3.7122,-3.8516,-3.8695,-3.5848,-3.6917,-3.8312,-3.8818,-4.0137,-4.0954,-4.037,-4.0562,-4.0779,-2.1336,0.0,0.0,0.0,0.0,-1.9339,-2.0463,-2.2279,-2.2171,-2.2967,-2.4264,-2.3269,0.0,0.0,0.0,0.0,0.0,0.0,-2.1002,-2.0922,-2.1606,-2.178,-2.1554,-2.2087,-2.2214,-2.1903,-2.2391,-2.25,-2.2299,-2.2036,-2.0845,-1.882,0.0,0.0,0.0,0.0,-2.2997,-2.4192,-2.5287,-2.5827,-2.5849,-2.5441,-2.4952,-2.4412,-2.379,-2.3295,-2.297,-2.2606,-2.1976,-2.106,-2.0012,0.0,0.0,0.0,0.0,0.0,0.0,0.0,0.0,0.0,0.0,0.0,0.0,0.0,0.0,0.0,0.0,0.0,0.0,0.0,-2.4526,-2.643,-2.7172,0.0,0.0,0.0,0.0,0.0,0.0,0.0,0.0,0.0,-3.634,-3.6913,-3.8032,0.0,0.0,-3.9673,-3.9884,-4.0258,-4.0491,-4.0349,-4.043,0.0,-4.04,-4.0262,-4.003,-3.9519,-3.9571,-3.9467,-3.908,-3.9315,-3.9816,-4.0705,-4.1985,-4.2901,-4.2905,-4.2304,-4.2569,-4.39,-4.498,-4.5555,-4.5659,-4.5462,-4.5094,-2.4625,-2.3186,-2.1855,-2.1442,-2.1721,-2.1731,-2.2579,-2.3826,-2.395,-2.4619,-2.5658,-2.4766,-2.4576,-2.4846,-2.3911,0.0,0.0,0.0,-2.2528,-2.2504,-2.2686,-2.2675,-2.2612,-2.3091,-2.3183,-2.2942,-2.3439,-2.372,-2.3683,-2.3871,-2.3296,-2.1913,0.0,0.0,-2.2165,-2.31,-2.4173,-2.5251,-2.6024,-2.6512,-2.6823,-2.6675,-2.6359,-2.5844,-2.5545,-2.507,-2.4422,-2.4354,-2.3845,-2.2822,-2.2191,-2.134,0.0,0.0,0.0,0.0,0.0,0.0,0.0,0.0,0.0,0.0,0.0,-1.6308,-1.7029,0.0,0.0,0.0,-2.4095,-2.6324,-2.8656,-2.9508,0.0,0.0,0.0,0.0,0.0,0.0,0.0,-3.3917,-3.703,-3.9296,-3.9728,-3.9557,-3.9794,-4.0741,-4.0334,-4.0103,-4.0458,0.0,-4.1247,-4.1257,-4.1794,-4.2133,-4.2147,-4.2425,-4.2548,-4.2238,-4.159,-4.1291,-4.16,-4.1939,-4.2702,-4.387,-4.5097,-4.6308,-4.7528,-4.704,-4.6669,-4.7603,-4.8618,-4.9373,-4.9232,-4.8919,-4.8567,-2.7413,-2.7138,-2.442,-2.3639,-2.4157,-2.4488,-2.5109,-2.592,-2.592,-2.6532,-2.7439,-2.6379,-2.6737,-2.8118,-2.7031,0.0,-2.4832,-2.4604,-2.4348,-2.4156,-2.3823,-2.368,-2.3627,-2.3974,-2.3974,-2.3645,-2.3852,-2.4174,-2.4507,-2.4574,-2.4861,-2.5391,-2.4096,-2.3621,-2.4075,-2.4493,-2.5317,-2.6585,-2.6845,-2.7321,-2.7955,-2.7996,-2.8046,-2.7975,-2.7955,-2.7382,-2.6256,-2.6109,-2.555,-2.4498,-2.404,-2.3632,-2.328,0.0,0.0,0.0,0.0,0.0,0.0,0.0,0.0,0.0,0.0,0.0,0.0,0.0,0.0,0.0,-2.9096,0.0,-3.319,-3.2842,0.0,0.0,0.0,-3.3264,-3.4544,-3.5687,-3.694,-3.8275,0.0,0.0,-4.1654,-4.1828,-4.1744,-4.1573,-4.1129,-4.0949,-4.1224,-4.1674,-4.1912,-4.2328,-4.3156,-4.3718,-4.3695,-4.4778,-4.5517,-4.4677,-4.3242,-4.2839,-4.3398,-4.4345,-4.5476,-4.6627,-4.7841,-4.8961,-5.0192,-5.0752,-5.1048,-5.0215,-5.1419,-5.243,-5.1693,-5.1498,-5.1297,-2.8297,-2.8214,-2.7152,-2.6408,-2.5941,-2.5668,-2.5689,-2.5875,-2.5941,-2.6073,-2.6313,-2.6007,-2.6118,-2.6494,-2.6027,-2.5677,-2.5415,-2.5199,-2.5077,-2.5051,-2.5238,-2.533,-2.5344,-2.5904,-2.6064,-2.5793,-2.611,-2.6231,-2.6133,-2.6005,-2.6289,-2.6822,-2.6251,-2.5827,-2.5607,-2.6067,-2.6675,-2.7342,-2.7585,-2.7999,-2.8736,-2.8977,-2.9048,-2.8807,-2.8424,-2.8144,-2.8052,-2.7321,-2.698,-2.7057,-2.6053,-2.5447,-2.5231,-2.3369,0.0,0.0,0.0,0.0,0.0,0.0,0.0,0.0,0.0,-2.0863,-2.1935,0.0,-2.6393,0.0,-3.078,-3.3055,-3.3562,-3.4534,0.0,0.0,-3.5831,-3.6509,-3.6877,-3.9052,-4.0267,-3.9801,-4.1774,-4.3019,-4.246,-4.276,-4.3351,-4.4082,-4.2938,-4.2379,-4.3365,-4.4308,-4.5041,-4.554,-4.6473,-4.7222,-4.7013,-4.7377,-4.7741,-4.752,-4.7071,-4.6915,-4.6836,-4.7593,-4.8488,-4.9071,-5.0295,-5.1447,-5.232,-5.3267,-5.3808,-5.3663,-5.3782,-5.408,-5.4486,-5.4135,-5.3601,-2.9027,-2.9006,-2.8705,-2.8334,-2.783,-2.6926,-2.6646,-2.6765,-2.6579,-2.6599,-2.6786,-2.6671,-2.6681,-2.6635,-2.6681,-2.6681,-2.6614,-2.629,-2.6218,-2.6331,-2.6668,-2.6826,-2.6867,-2.7683,-2.7786,-2.7338,-2.7889,-2.7963,-2.7582,-2.7622,-2.7864,-2.8238,-2.8198,-2.7955,-2.753,-2.7505,-2.7824,-2.8524,-2.8932,-2.9258,-2.9471,-2.9905,-3.0011,-2.9838,-2.9584,-2.9302,-2.9006,-2.8453,-2.8118,-2.7971,-2.7318,-2.6975,-2.6962,-2.534,-2.4123,0.0,0.0,0.0,0.0,0.0,0.0,0.0,0.0,0.0,0.0,0.0,-2.9484,-3.1029,-3.3573,-3.5211,-3.5448,-3.6308,-3.7047,-3.7592,-3.8439,-3.9317,-4.0174,-4.1794,-4.2622,-4.2251,-4.3555,-4.4401,-4.4116,-4.4396,-4.5028,-4.6164,-4.5447,-4.4929,-4.5374,-4.6145,-4.684,-4.7325,-4.8355,-4.9251,-4.957,-4.9496,-4.951,-4.9866,-4.985,-4.9727,-4.9776,-5.0248,-5.087,-5.1398,-5.2405,-5.3343,-5.3894,-5.468,-5.5347,-5.5743,-5.5725,-5.5585,-5.5662,-5.5446,-5.4888,-2.9813,-2.9664,-2.97,-2.9678,-2.9466,-2.8187,-2.78,-2.8084,-2.7689,-2.7752,-2.8084,-2.795,-2.7857,-2.7857,-2.8031,-2.813,-2.8083,-2.7641,-2.7526,-2.7804,-2.813,-2.8313,-2.8404,-2.9336,-2.9412,-2.8785,-2.94,-2.9498,-2.9064,-2.9308,-2.9546,-2.9659,-3.0015,-3.0087,-2.9731,-2.901,-2.9039,-2.9749,-3.0469,-3.0636,-3.0282,-3.0666,-3.0931,-3.0879,-3.0815,-3.0483,-2.9735,-2.9586,-2.9159,-2.8412,-2.8305,-2.8357,-2.8592,-2.7246,-2.6351,0.0,-2.4725,0.0,0.0,0.0,0.0,0.0,0.0,0.0,0.0,-2.9958,-3.2617,-3.4968,-3.6578,-3.7667,-3.7992,-3.8091,-3.8818,-4.0313,-4.0824,-4.1725,-4.3411,-4.3938,-4.436,-4.5045,-4.5045,-4.5341,-4.6302,-4.6464,-4.684,-4.797,-4.8109,-4.7973,-4.7784,-4.8021,-4.8387,-4.8558,-4.9583,-5.0924,-5.1677,-5.142,-5.1249,-5.1944,-5.1864,-5.1829,-5.2143,-5.2429,-5.2836,-5.3443,-5.4231,-5.493,-5.5108,-5.5676,-5.6408,-5.7102,-5.7284,-5.7092,-5.6405,-5.6303,-5.5872,-3.1345,-3.0581,-3.083,-3.0578,-2.9955,-2.9599,-2.9309,-2.9197,-2.8824,-2.8845,-2.9197,-2.9161,-2.9119,-2.9147,-2.8957,-2.8881,-2.8907,-2.8614,-2.8606,-2.8861,-2.9532,-2.9989,-3.0222,-3.1004,-3.1281,-3.1117,-3.1007,-3.0888,-3.08,-3.0478,-3.0709,-3.1462,-3.1428,-3.1628,-3.209,0.0,0.0,0.0,-3.0726,-3.1094,-3.1008,-3.1278,-3.1476,-3.1424,-3.1084,0.0,-3.1121,-3.0426,-3.015,-3.0324,-2.978,0.0,0.0,0.0,0.0,0.0,0.0,0.0,0.0,0.0,0.0,0.0,-3.1151,-3.1099,-3.0204,-3.2943,-3.5351,-3.6676,-3.7891,-3.8894,-3.9575,-4.0287,-4.1158,-4.232,-4.2918,-4.3625,-4.4362,-4.497,-4.5742,-4.7052,-4.6752,-4.7017,-4.8501,-4.8418,-4.8714,-5.0029,-5.0288,-5.0763,-5.1766,-5.1105,-5.081,-5.14,-5.2306,-5.337,-5.4143,-5.3843,-5.3587,-5.39,-5.39,-5.3787,-5.3725,-5.4261,-5.4613,-5.4617,-5.5657,-5.6491,-5.6609,-5.7456,-5.8127,-5.8398,-5.8586,-5.8525,-5.8068,-5.7978,-5.7772,-3.3566,0.0,-3.2942,-3.2642,0.0,-3.1523,-3.1335,-3.1241,-2.999,-2.9571,-2.967,-2.9817,-2.9894,-3.0041,-3.0044,-3.0127,-3.0201,-3.0147,-3.0202,-3.046,-3.1242,-3.1588,-3.1611,-3.2622,-3.2931,-3.2554,-3.2848,-3.2915,-3.2684,-3.24,-3.2479,-3.2978,-3.2925,-3.3024,-3.34,-3.34,-3.2487,-3.067,-3.1243,-3.1527,-3.1424,-3.168,-3.1783,-3.1761,-3.157,0.0,0.0,0.0,0.0,0.0,0.0,0.0,0.0,0.0,0.0,-3.0488,-3.0289,-3.0368,-3.0742,-3.1181,-3.19,-3.2955,-3.4601,-3.5057,-3.3845,-3.5687,-3.7266,-3.8166,-3.9221,-4.021,-4.0901,-4.1699,-4.2684,-4.3911,-4.4464,-4.5044,-4.5836,-4.6612,-4.7366,-4.8061,-4.8326,-4.8914,-5.0129,-5.0271,-5.0597,-5.1723,-5.2072,-5.2562,-5.3532,-5.3023,-5.2666,-5.3268,-5.3648,-5.4474,-5.56,-5.5605,-5.5815,-5.6412,-5.6631,-5.6441,-5.6287,-5.6394,-5.6391,-5.6149,-5.6688,-5.7264,-5.7504,-5.8156,-5.8822,-5.9142,-5.9296,-5.9228,-5.8876,-5.8664,-5.8284,-3.5693,-3.5112,-3.5263,-3.5001,-3.4424,-3.3804,-3.3531,-3.3369,0.0,0.0,0.0,-3.0526,-3.0745,-3.0989,-3.1143,-3.134,-3.1558,-3.1538,-3.1636,-3.1897,-3.2645,-3.2903,-3.2853,-3.4,-3.4244,-3.3767,-3.451,-3.4655,-3.4293,-3.4292,-3.4337,-3.4337,-3.453,-3.4626,-3.4528,-3.4871,-3.4038,-3.1964,-3.2218,-3.2319,-3.2066,-3.2269,-3.2392,-3.2482,-3.2504,-3.2448,-3.2406,-3.2433,-3.2207,-3.1585,-3.1611,-3.1592,-3.1524,-3.155,-3.1695,-3.2128,-3.2367,-3.2747,-3.3313,-3.3982,-3.4703,-3.5429,-3.7417,-3.8288,-3.7489,-3.8086,-3.8841,-3.9626,-4.0542,-4.1414,-4.2113,-4.297,-4.3989,-4.5277,-4.572,-4.6377,-4.7442,-4.8252,-4.885,-4.9333,-4.9959,-5.0772,-5.1699,-5.1966,-5.2336,-5.3055,-5.3529,-5.4071,-5.4608,-5.4394,-5.4317,-5.5032,-5.5178,-5.5474,-5.6698,-5.7049,-5.7561,-5.8647,-5.8746,-5.8704,-5.8578,-5.8198,-5.7688,-5.7312,-5.7532,-5.7863,-5.812,-5.8615,-5.9135,-5.9654,-5.9718,-5.9648,-5.9368,-5.9088,-5.8779,-3.7195,-3.6343,-3.6996,-3.6872,-3.6172,-3.6273,-3.5731,-3.4527,-3.2869,-3.2141,-3.2141,-3.2141,-3.2291,-3.2469,-3.209,-3.2082,-3.2302,-3.1915,-3.1874,-3.2158,-3.2886,-3.3457,-3.3911,-3.4727,-3.5138,-3.5258,-3.5187,-3.5138,-3.509,-3.5307,-3.5475,-3.5837,-3.6643,-3.6843,-3.643,-3.626,-3.5526,-3.4311,-3.4141,-3.3944,-3.3697,-3.3697,-3.3957,-3.4377,-3.44,-3.4661,-3.5113,-3.5345,-3.493,-3.3756,-3.3862,-3.3877,-3.3609,-3.3562,-3.4025,-3.4895,-3.5039,-3.5373,-3.606,-3.6704,-3.7726,-3.9184,-4.0053,-4.0362,-4.0007,-4.0084,-4.0441,-4.1029,-4.1621,-4.2475,-4.352,-4.4568,-4.5538,-4.6444,-4.707,-4.7857,-4.8957,-4.9308,-5.0172,-5.194,-5.194,-5.2405,-5.3743,-5.3757,-5.3626,-5.4075,-5.4782,-5.5419,-5.6147,-5.5976,-5.6135,-5.7023,-5.7355,-5.7623,-5.8217,-5.8648,-5.884,-5.9121,-5.9017,-5.8857,-5.8913,-5.8479,-5.8135,-5.8071,-5.8153,-5.8533,-5.9028,-5.9547,-5.9792,-6.0291,-6.0288,-6.0108,-5.9969,-6.0108,-5.9873,-3.8919,-3.8291,-3.8641,-3.8365,-3.7717,-3.7618,-3.7046,-3.6104,-3.5101,-3.3977,-3.2969,-3.3047,-3.3247,-3.3496,-3.3264,-3.3459,-3.3939,-3.3901,-3.4216,-3.4723,-3.5208,-3.5623,-3.5893,-3.6284,-3.6406,-3.6257,-3.6425,-3.6324,-3.6123,-3.6611,-3.6953,-3.7146,-3.8015,-3.8415,-3.8341,-3.8341,-3.7868,-3.6902,-3.555,-3.4678,-3.4434,-3.4581,-3.4942,-3.5445,-3.5469,-3.5809,-3.6565,-3.6666,-3.6323,-3.5394,-3.5469,-3.5328,-3.492,-3.4872,-3.521,-3.5953,-3.6143,-3.6625,-3.7591,-3.863,-3.957,-4.0458,-4.1345,-4.1843,-4.1819,-4.1311,-4.1158,-4.1621,-4.2398,-4.3363,-4.444,-4.544,-4.6602,-4.8089,-4.8606,-4.937,-5.0579,-5.1317,-5.2078,-5.3242,-5.3621,-5.4039,-5.4917,-5.4759,-5.4768,-5.527,-5.6162,-5.7096,-5.7937,-5.8022,-5.7988,-5.806,-5.7886,-5.8284,-5.9291,-5.9511,-5.9847,-6.0569,-6.0209,-5.9934,-5.9883,-5.936,-5.8732,-5.8451,-5.8347,-5.8382,-5.892,-5.9258,-5.9656,-6.0158,-6.0524,-6.0426,-6.0315,-6.0453,-6.0219,-4.0462,-4.005,-4.005,-3.9792,-3.9306,-3.8637,-3.8165,-3.7742,-3.7072,-3.5818,-3.4377,-3.4038,-3.4064,-3.431,-3.4261,-3.4693,-3.537,-3.574,-3.6206,-3.6892,-3.7168,-3.7318,-3.7419,-3.7618,-3.7543,-3.7241,-3.7653,-3.7642,-3.7286,-3.7906,-3.838,-3.8582,-3.9188,-3.9589,-3.9782,-3.9974,-3.9733,-3.8919,-3.7197,-3.601,-3.5427,-3.5619,-3.6011,-3.6702,-3.6775,-3.7245,-3.8141,-3.8241,-3.7941,-3.722,-3.717,-3.692,-3.6273,-3.6347,-3.6536,-3.6807,-3.7164,-3.7826,-3.8846,-4.0127,-4.1006,-4.1466,-4.2289,-4.2873,-4.3134,-4.2577,-4.2216,-4.2554,-4.3494,-4.4546,-4.5627,-4.6632,-4.783,-4.9501,-5.0023,-5.0767,-5.2084,-5.2994,-5.363,-5.4051,-5.4749,-5.5149,-5.5209,-5.5329,-5.5748,-5.6585,-5.7633,-5.856,-5.9194,-5.9742,-5.9685,-5.9327,-5.8812,-5.9074,-6.0179,-6.0495,-6.0897,-6.2006,-6.1412,-6.1016,-6.0879,-6.016,-5.9448,-5.9108,-5.8653,-5.8686,-5.8961,-5.9199,-5.9587,-6.0145,-6.0511,-6.0755,-6.0728,-6.0728,-6.0632,-4.1198,-4.1145,-4.1093,-4.1119,-4.0887,-3.9724,-3.9294,-3.9317,-3.8413,-3.7711,-3.7086,-3.5405,-3.4896,-3.5017,-3.4896,-3.5234,-3.5988,-3.6235,-3.6702,-3.7244,-3.7268,-3.7419,-3.7668,-3.7966,-3.8114,-3.8284,-3.8577,-3.8694,-3.8592,-3.8914,-3.9466,-4.0103,-4.0256,-4.0282,-4.0331,-4.038,-4.0215,-3.9902,-3.968,-3.8825,-3.7325,-3.7273,-3.7835,-3.8891,-3.9158,-3.9797,-4.0735,-4.1165,-4.0705,-3.9567,-3.9612,-3.922,-3.8243,-3.8527,-3.873,-3.8417,-3.8925,-3.9641,-4.0462,-4.1342,-4.2253,-4.3026,-4.3268,-4.3517,-4.3846,-4.4171,-4.436,-4.4543,-4.5245,-4.6149,-4.7446,-4.863,-4.9632,-5.0595,-5.1142,-5.194,-5.3032,-5.336,-5.3828,-5.5009,-5.5119,-5.5209,-5.5239,-5.5688,-5.6555,-5.7693,-5.8501,-5.9279,-6.0027,-6.054,-6.1141,-6.1419,-6.1254,-6.0792,-6.0911,-6.1641,-6.2076,-6.2125,-6.182,-6.1574,-6.1422,-6.0831,-6.0071,-5.999,-5.9843,-5.9779,-6.007,-6.0276,-6.0292,-6.0403,-6.0729,-6.0961,-6.1411,-6.1451,-6.1179,-4.1696,-4.1547,-4.1696,-4.1796,-4.1693,-4.1185,-4.1031,-4.1051,-4.0256,-3.9864,-3.9555,-3.8242,-3.7008,-3.5883,-3.6109,-3.6259,-3.6309,-3.7245,-3.7741,-3.8014,-3.8616,-3.8994,-3.9146,-3.9724,-3.9868,-3.9679,-4.0189,-4.0101,-3.9677,-3.979,-4.0259,-4.083,-4.0932,-4.1008,-4.1179,-4.1327,-4.1232,-4.0962,-4.0935,-4.044,-3.9488,-3.9242,-3.9591,-4.0303,-4.0456,-4.0923,-4.1663,-4.1895,-4.1505,-4.0657,-4.0702,-4.0382,-3.9612,-3.9749,-3.9838,-3.9741,-4.0361,-4.0979,-4.1437,-4.2445,-4.3204,-4.3593,-4.4296,-4.4759,-4.49,-4.5439,-4.5867,-4.6179,-4.6256,-4.687,-4.8527,-4.9285,-5.0246,-5.1728,-5.2297,-5.2917,-5.4044,-5.4234,-5.4506,-5.5099,-5.5209,-5.5209,-5.5329,-5.6077,-5.7214,-5.8441,-5.9279,-6.0027,-6.1044,-6.1523,-6.1942,-6.251,-6.2487,-6.2199,-6.1909,-6.1969,-6.2495,-6.2779,-6.2538,-6.218,-6.2097,-6.157,-6.0983,-6.077,-6.0495,-6.0449,-6.0726,-6.0595,-6.0413,-6.0634,-6.0756,-6.1029,-6.1681,-6.2058,-6.2192,-4.1993,-4.1845,-4.2016,-4.2065,-4.2065,-4.2065,-4.2141,-4.2137,-4.1736,-4.1518,-4.1304,-4.0617,-3.9233,-3.7672,-3.7549,-3.724,-3.6923,-3.8066,-3.8641,-3.8742,-3.9651,-4.0134,-4.0287,-4.1021,-4.1185,-4.0943,-4.1619,-4.1522,-4.0792,-4.109,-4.1346,-4.1471,-4.1696,-4.1845,-4.1944,-4.2141,-4.2123,-4.1989,-4.1887,-4.1672,-4.1295,-4.1146,-4.1138,-4.1331,-4.1405,-4.1673,-4.2311,-4.2338,-4.215,-4.1673,-4.1694,-4.1426,-4.0864,-4.1018,-4.1045,-4.1032,-4.1564,-4.2079,-4.2345,-4.3411,-4.4094,-4.4312,-4.5261,-4.6016,-4.6441,-4.6958,-4.7653,-4.8406,-4.8144,-4.8677,-4.9581,-5.0195,-5.1257,-5.307,-5.3349,-5.3789,-5.4662,-5.4803,-5.4875,-5.5158,-5.5209,-5.5359,-5.5777,-5.6705,-5.7872,-5.9129,-5.9967,-6.0745,-6.1822,-6.2211,-6.254,-6.2989,-6.3049,-6.2933,-6.2703,-6.2676,-6.2912,-6.3229,-6.3225,-6.2919,-6.2956,-6.2398,-6.1726,-6.1369,-6.0944,-6.0907,-6.1352,-6.1082,-6.0886,-6.0767,-6.0865,-6.1029,-6.1343,-6.2086,-6.2354,-4.2065,-4.2065,-4.2092,-4.2115,-4.2115,-4.2115,-4.2289,-4.256,-4.2457,-4.228,-4.2039,-4.1883,-4.1362,-4.0341,-3.911,-3.8079,-3.7752,-3.8516,-3.907,-3.9322,-3.988,-4.0236,-4.0542,-4.1298,-4.172,-4.1861,-4.2759,-4.2876,-4.2366,-4.2978,-4.2867,-4.1845,-4.2604,-4.2846,-4.2533,-4.256,-4.2631,-4.2792,-4.2571,-4.255,-4.2716,-4.2765,-4.2322,-4.1726,-4.1815,-4.2256,-4.2744,-4.2852,-4.2873,-4.2771,-4.2744,-4.2548,-4.2086,-4.2418,-4.2589,-4.2425,-4.2617,-4.2943,-4.33,-4.4189,-4.4908,-4.5451,-4.6154,-4.704,-4.8187,-4.8792,-4.9675,-5.1157,-5.1251,-5.1389,-5.1324,-5.2035,-5.3034,-5.4016,-5.4215,-5.4428,-5.4773,-5.4955,-5.4955,-5.5209,-5.534,-5.5849,-5.6877,-5.7633,-5.8674,-5.9812,-6.0625,-6.1343,-6.2032,-6.266,-6.2959,-6.3077,-6.3079,-6.2963,-6.2732,-6.2852,-6.3387,-6.3857,-6.385,-6.369,-6.3567,-6.3327,-6.259,-6.2116,-6.2059,-6.2028,-6.2124,-6.2058,-6.1963,-6.1706,-6.1233,-6.1302,-6.1234,-6.1478,-6.1816,-4.2728,-4.2873,-4.2679,-4.2776,-4.3039,-4.2922,-4.3018,-4.3211,-4.3184,-4.3122,-4.3053,-4.2998,-4.2669,-4.2054,-4.148,-4.0364,-3.9055,-3.9507,-3.9868,-4.007,-4.0761,-4.1322,-4.1868,-4.2867,-4.3396,-4.3539,-4.4275,-4.4294,-4.3729,-4.3634,-4.3444,-4.3225,-4.3464,-4.3586,-4.3471,-4.3471,-4.3423,-4.3328,-4.3115,-4.3094,-4.3142,-4.297,-4.2813,-4.2719,-4.2623,-4.2656,-4.2873,-4.3067,-4.319,-4.3163,-4.3307,-4.3245,-4.3053,-4.3218,-4.3389,-4.356,-4.3655,-4.3906,-4.4271,-4.5204,-4.5912,-4.6236,-4.7264,-4.821,-4.9014,-4.9606,-5.0427,-5.1614,-5.2368,-5.2746,-5.3307,-5.3644,-5.4131,-5.4899,-5.5149,-5.5229,-5.5481,-5.5581,-5.5631,-5.5741,-5.6093,-5.6879,-5.7924,-5.8693,-5.9519,-6.0751,-6.1395,-6.1998,-6.254,-6.3017,-6.3137,-6.3137,-6.3079,-6.3228,-6.3561,-6.3263,-6.3385,-6.401,-6.4273,-6.4293,-6.4226,-6.3807,-6.3126,-6.3051,-6.3092,-6.3014,-6.3013,-6.2928,-6.282,-6.2315,-6.1844,-6.1506,-6.1193,-6.1478,-6.1614,-4.3259,-4.3451,-4.3307,-4.3451,-4.3709,-4.3689,-4.3737,-4.3851,-4.3851,-4.3804,-4.3757,-4.3709,-4.3535,-4.3183,-4.3113,-4.2372,-4.1063,-4.1024,-4.0958,-4.0998,-4.1799,-4.2382,-4.2916,-4.3918,-4.4462,-4.4602,-4.5338,-4.5384,-4.4805,-4.462,-4.4434,-4.4172,-4.4452,-4.4573,-4.4509,-4.4509,-4.4322,-4.3993,-4.395,-4.3815,-4.3458,-4.3354,-4.3306,-4.3287,-4.3115,-4.3067,-4.3115,-4.3307,-4.3403,-4.3423,-4.3519,-4.3681,-4.3851,-4.4093,-4.4351,-4.465,-4.5016,-4.5338,-4.5669,-4.6523,-4.7151,-4.7397,-4.8619,-4.9628,-5.0319,-5.1014,-5.1931,-5.2994,-5.3733,-5.4491,-5.5178,-5.5417,-5.5459,-5.5761,-5.5912,-5.6083,-5.6282,-5.61,-5.61,-5.6404,-5.7132,-5.8013,-5.8863,-5.9584,-6.0445,-6.1564,-6.2066,-6.2615,-6.3072,-6.3252,-6.3342,-6.3492,-6.364,-6.3912,-6.4332,-6.4362,-6.4366,-6.4875,-6.4841,-6.4864,-6.4796,-6.4408,-6.4015,-6.4027,-6.3946,-6.393,-6.3808,-6.3692,-6.3348,-6.2848,-6.2354,-6.2018,-6.1749,-6.1478,-6.1478,-4.3757,-4.4001,-4.4001,-4.3974,-4.4068,-4.4256,-4.435,-4.4397,-4.4397,-4.4303,-4.4115,-4.4021,-4.4087,-4.3975,-4.3798,-4.3696,-4.3629,-4.2972,-4.2418,-4.2236,-4.2883,-4.3396,-4.3681,-4.4369,-4.4759,-4.4915,-4.5792,-4.5927,-4.5463,-4.5972,-4.5792,-4.5127,-4.5673,-4.5792,-4.5504,-4.5516,-4.5287,-4.4986,-4.5129,-4.4825,-4.3827,-4.4153,-4.4132,-4.3588,-4.3485,-4.3554,-4.3662,-4.3662,-4.3662,-4.3662,-4.3737,-4.3899,-4.464,-4.5157,-4.5571,-4.592,-4.6623,-4.7275,-4.7643,-4.8048,-4.8659,-4.9133,-5.0227,-5.1339,-5.2185,-5.3237,-5.4302,-5.514,-5.5778,-5.6476,-5.7075,-5.7407,-5.7174,-5.637,-5.6777,-5.7081,-5.6959,-5.6484,-5.6332,-5.7142,-5.8145,-5.8884,-5.9279,-6.0221,-6.123,-6.1898,-6.2602,-6.3127,-6.3475,-6.3599,-6.387,-6.4232,-6.4473,-6.4774,-6.5166,-6.5558,-6.5682,-6.5862,-6.562,-6.5464,-6.5609,-6.5335,-6.4676,-6.4513,-6.4293,-6.428,-6.4457,-6.4325,-6.403,-6.3507,-6.3084,-6.2554,-6.222,-6.1884,-6.1411,-4.4303,-4.4518,-4.4378,-4.449,-4.4694,-4.4676,-4.4723,-4.4908,-4.4879,-4.4862,-4.4769,-4.4769,-4.4862,-4.4972,-4.491,-4.4984,-4.5247,-4.5035,-4.4553,-4.3836,-4.4041,-4.448,-4.4972,-4.5566,-4.6016,-4.624,-4.6506,-4.6506,-4.6358,-4.6491,-4.6403,-4.6329,-4.6506,-4.6535,-4.6328,-4.6679,-4.6687,-4.6287,-4.6555,-4.6538,-4.6253,-4.6186,-4.5968,-4.5525,-4.5157,-4.496,-4.489,-4.4256,-4.404,-4.4322,-4.495,-4.5751,-4.6573,-4.6944,-4.7166,-4.7501,-4.7942,-4.8325,-4.8714,-4.9722,-5.045,-5.0865,-5.199,-5.3146,-5.3825,-5.4463,-5.522,-5.5948,-5.6323,-5.6745,-5.7506,-5.8158,-5.8281,-5.7978,-5.8082,-5.8204,-5.8143,-5.802,-5.8285,-5.8787,-5.9277,-5.9706,-6.0267,-6.1233,-6.1957,-6.2354,-6.3097,-6.375,-6.3849,-6.4186,-6.4432,-6.4531,-6.5039,-6.57,-6.6126,-6.6458,-6.6641,-6.6583,-6.6311,-6.6067,-6.6151,-6.6088,-6.5456,-6.5032,-6.4784,-6.4739,-6.4954,-6.4839,-6.4483,-6.416,-6.3675,-6.315,-6.2687,-6.222,-6.1749,-4.4954,-4.5167,-4.5029,-4.5184,-4.5504,-4.5367,-4.5458,-4.5611,-4.5656,-4.5611,-4.552,-4.552,-4.552,-4.564,-4.573,-4.5821,-4.5972,-4.6225,-4.5927,-4.5338,-4.531,-4.5611,-4.5956,-4.6447,-4.6756,-4.6887,-4.7019,-4.6975,-4.6873,-4.6873,-4.6931,-4.7019,-4.73,-4.7361,-4.7288,-4.7852,-4.7997,-4.7691,-4.7987,-4.8032,-4.7746,-4.7654,-4.7386,-4.6857,-4.663,-4.6315,-4.5999,-4.5774,-4.5474,-4.5356,-4.6051,-4.7102,-4.8085,-4.8517,-4.8793,-4.908,-4.9655,-5.0116,-5.0328,-5.1476,-5.2319,-5.2567,-5.3545,-5.4399,-5.4836,-5.525,-5.5849,-5.6274,-5.6764,-5.7261,-5.8085,-5.8762,-5.9224,-5.9532,-5.9285,-5.907,-5.8947,-5.9255,-5.947,-5.9809,-6.0024,-6.0455,-6.1172,-6.1866,-6.2625,-6.2962,-6.374,-6.4244,-6.434,-6.471,-6.4961,-6.5301,-6.6024,-6.666,-6.715,-6.7393,-6.7544,-6.7336,-6.7065,-6.6761,-6.6665,-6.6514,-6.6092,-6.5784,-6.5536,-6.5378,-6.5538,-6.5222,-6.4932,-6.4518,-6.4196,-6.3675,-6.315,-6.2687,-6.222,-4.5685,-4.594,-4.594,-4.6001,-4.618,-4.618,-4.6269,-4.6491,-4.6565,-4.6358,-4.6225,-4.618,-4.6061,-4.5972,-4.6151,-4.6269,-4.6314,-4.6535,-4.6624,-4.6535,-4.6535,-4.6535,-4.6624,-4.6844,-4.6931,-4.6975,-4.7179,-4.7296,-4.7372,-4.7402,-4.7399,-4.7565,-4.8043,-4.8327,-4.8446,-4.903,-4.9269,-4.9102,-4.939,-4.9233,-4.8605,-4.8574,-4.8325,-4.7764,-4.7846,-4.7678,-4.732,-4.7858,-4.7711,-4.6499,-4.7358,-4.831,-4.9102,-4.9956,-5.0421,-5.0495,-5.1575,-5.2126,-5.2477,-5.3059,-5.371,-5.4148,-5.4807,-5.517,-5.5401,-5.5948,-5.6372,-5.65,-5.7218,-5.7962,-5.8639,-5.9285,-5.9932,-6.0547,-6.027,-5.9778,-5.9162,-6.0055,-6.0486,-6.024,-6.0486,-6.1101,-6.1779,-6.2464,-6.3079,-6.3633,-6.4285,-6.4574,-6.483,-6.5264,-6.5757,-6.6369,-6.6983,-6.7413,-6.7844,-6.7993,-6.8144,-6.7846,-6.7547,-6.7306,-6.691,-6.6729,-6.6637,-6.6359,-6.605,-6.6014,-6.5853,-6.5538,-6.5348,-6.5158,-6.4711,-6.4196,-6.3675,-6.315,-6.2687,-4.6358,-4.6432,-4.6403,-4.6447,-4.6491,-4.6491,-4.6491,-4.6609,-4.6609,-4.658,-4.6491,-4.6491,-4.6535,-4.6624,-4.6638,-4.6844,-4.6931,-4.7048,-4.7135,-4.7135,-4.7135,-4.7135,-4.7135,-4.7179,-4.7179,-4.7222,-4.7326,-4.7578,-4.7997,-4.8027,-4.8237,-4.8745,-4.891,-4.9149,-4.9329,-4.9915,-5.0336,-5.0502,-5.0832,-5.0887,-5.0674,-5.0453,-5.0228,-4.9802,-4.9482,-4.9202,-4.8925,-4.9329,-4.9554,-4.9266,-4.9674,-5.0442,-5.1045,-5.1771,-5.215,-5.2378,-5.3139,-5.3784,-5.386,-5.4533,-5.5103,-5.523,-5.5849,-5.6372,-5.6372,-5.6567,-5.6713,-5.6836,-5.7377,-5.8085,-5.8731,-5.9408,-6.0086,-6.0701,-6.0948,-6.0917,-6.0547,-6.0978,-6.1471,-6.1348,-6.144,-6.184,-6.2487,-6.3071,-6.3595,-6.3903,-6.4487,-6.5103,-6.5305,-6.6011,-6.6629,-6.7185,-6.7739,-6.8137,-6.8444,-6.8651,-6.8623,-6.8296,-6.7939,-6.7638,-6.7125,-6.6672,-6.6731,-6.6667,-6.6181,-6.6026,-6.5985,-6.5882,-6.5727,-6.5475,-6.4967,-6.4418,-6.3965,-6.3479,-6.3084,-4.6712,-4.6712,-4.6712,-4.68,-4.6873,-4.6756,-4.68,-4.6887,-4.6975,-4.7005,-4.6961,-4.6975,-4.7019,-4.7062,-4.7062,-4.7179,-4.7309,-4.7309,-4.7309,-4.7309,-4.7309,-4.7309,-4.7309,-4.7309,-4.7309,-4.7369,-4.7608,-4.7908,-4.8267,-4.8536,-4.897,-4.9269,-4.9659,-4.987,-5.0065,-5.0804,-5.1258,-5.1395,-5.156,-5.1649,-5.1741,-5.1479,-5.1329,-5.1151,-5.0999,-5.0849,-5.0908,-5.0812,-5.062,-5.0608,-5.0955,-5.1697,-5.249,-5.3039,-5.3452,-5.3696,-5.4479,-5.4888,-5.4952,-5.5643,-5.6059,-5.6152,-5.6567,-5.6713,-5.6761,-5.681,-5.684,-5.7272,-5.7857,-5.8535,-5.9131,-5.9809,-6.0332,-6.0794,-6.1409,-6.1625,-6.1255,-6.1532,-6.1933,-6.2117,-6.2271,-6.2487,-6.3079,-6.3541,-6.3933,-6.4334,-6.4949,-6.5411,-6.5786,-6.6647,-6.7385,-6.7792,-6.8191,-6.8498,-6.8621,-6.8769,-6.8623,-6.8386,-6.7999,-6.7699,-6.6974,-6.6432,-6.6551,-6.6519,-6.6277,-6.6124,-6.6174,-6.6007,-6.5538,-6.5222,-6.4903,-6.4454,-6.3936,-6.3675,-6.331,-4.6901,-4.6931,-4.702,-4.7122,-4.7222,-4.7151,-4.7181,-4.7309,-4.7439,-4.7439,-4.7352,-4.7495,-4.7452,-4.7396,-4.7589,-4.7516,-4.7546,-4.7842,-4.7769,-4.7769,-4.7709,-4.7619,-4.7619,-4.7382,-4.7442,-4.7592,-4.8101,-4.8386,-4.8716,-4.9194,-4.9449,-4.9748,-5.0351,-5.0668,-5.088,-5.1546,-5.1941,-5.2002,-5.1819,-5.1849,-5.1926,-5.1787,-5.1727,-5.188,-5.2048,-5.2184,-5.2287,-5.2024,-5.1556,-5.0955,-5.1587,-5.2457,-5.3377,-5.3699,-5.4191,-5.4775,-5.536,-5.579,-5.5852,-5.6344,-5.6748,-5.6713,-5.6713,-5.681,-5.681,-5.681,-5.7056,-5.7641,-5.8362,-5.9039,-5.9809,-6.0455,-6.0671,-6.0855,-6.1348,-6.1656,-6.1809,-6.1871,-6.2148,-6.2702,-6.2825,-6.3256,-6.3687,-6.3964,-6.418,-6.458,-6.5226,-6.578,-6.6304,-6.7073,-6.7689,-6.8092,-6.84,-6.8705,-6.8766,-6.8766,-6.8562,-6.8296,-6.7879,-6.7397,-6.6463,-6.6102,-6.6251,-6.625,-6.6129,-6.6155,-6.6387,-6.604,-6.5475,-6.506,-6.4676,-6.4066,-6.3545,-6.3479,-6.3282,-4.7222,-4.7252,-4.776,-4.7714,-4.7429,-4.7804,-4.7744,-4.7339,-4.7396,-4.7525,-4.7568,-4.7611,-4.777,-4.7928,-4.8369,-4.8624,-4.8672,-4.9004,-4.9381,-4.9321,-4.8836,-4.8654,-4.8417,-4.7826,-4.7739,-4.8143,-4.8265,-4.8805,-4.9583,-4.9912,-5.0301,-5.072,-5.0919,-5.1299,-5.1728,-5.1941,-5.2231,-5.2458,-5.2291,-5.2155,-5.2124,-5.2017,-5.2017,-5.2215,-5.2473,-5.2608,-5.2653,-5.2575,-5.267,-5.2993,-5.3208,-5.3637,-5.4298,-5.4868,-5.5253,-5.5561,-5.6115,-5.6563,-5.6594,-5.6686,-5.681,-5.681,-5.6871,-5.681,-5.681,-5.6871,-5.7148,-5.7765,-5.8442,-5.9255,-6.0332,-6.0671,-6.0794,-6.0855,-6.0948,-6.1255,-6.1717,-6.2271,-6.261,-6.2887,-6.3318,-6.3872,-6.4518,-6.458,-6.4734,-6.498,-6.5472,-6.6088,-6.6735,-6.7412,-6.7966,-6.8458,-6.8458,-6.8674,-6.8707,-6.8649,-6.8354,-6.8118,-6.7699,-6.6854,-6.5982,-6.5652,-6.5832,-6.5981,-6.6101,-6.6157,-6.6238,-6.5978,-6.5412,-6.4903,-6.4418,-6.39,-6.3479,-6.3413,-6.3282,-4.7439,-4.7499,-4.8173,-4.8306,-4.8196,-4.8468,-4.8437,-4.8076,-4.7873,-4.7976,-4.8218,-4.8334,-4.8602,-4.8949,-4.9283,-4.9465,-4.9526,-4.9799,-4.9982,-4.9891,-4.9587,-4.9357,-4.9187,-4.8806,-4.8766,-4.8944,-4.9386,-4.9915,-5.0335,-5.0709,-5.0963,-5.1216,-5.1446,-5.1876,-5.2427,-5.2642,-5.2872,-5.2917,-5.2856,-5.2643,-5.2322,-5.2246,-5.2246,-5.2473,-5.2639,-5.2821,-5.316,-5.3191,-5.3714,-5.436,-5.4637,-5.476,-5.5099,-5.553,-5.5807,-5.6238,-5.6484,-5.681,-5.681,-5.681,-5.681,-5.684,-5.7087,-5.7056,-5.7025,-5.7087,-5.7426,-5.7857,-5.8473,-5.9316,-6.0578,-6.0794,-6.0794,-6.0794,-6.0794,-6.0978,-6.1409,-6.221,-6.2979,-6.3318,-6.3903,-6.4364,-6.4764,-6.4888,-6.4918,-6.4949,-6.5996,-6.6611,-6.695,-6.7627,-6.8304,-6.8674,-6.8551,-6.8581,-6.8677,-6.8503,-6.8176,-6.7879,-6.7578,-6.6492,-6.5322,-6.5263,-6.5383,-6.5383,-6.5443,-6.5677,-6.5697,-6.5467,-6.5192,-6.4583,-6.403,-6.3638,-6.331,-6.3178,-6.3112,-4.7666,-4.7727,-4.839,-4.8732,-4.8845,-4.9027,-4.9057,-4.8888,-4.8694,-4.8791,-4.9157,-4.9377,-4.9621,-5.0022,-5.0235,-5.0327,-5.0479,-5.051,-5.0706,-5.0676,-5.0462,-5.0214,-4.9983,-5.0049,-4.9978,-4.9583,-5.0302,-5.0834,-5.1182,-5.1498,-5.1874,-5.1793,-5.2104,-5.27,-5.3205,-5.3545,-5.3684,-5.3607,-5.3561,-5.3254,-5.2734,-5.2596,-5.2733,-5.2854,-5.293,-5.3283,-5.3699,-5.3914,-5.4391,-5.5561,-5.5684,-5.5745,-5.5838,-5.5899,-5.6084,-5.6779,-5.6779,-5.681,-5.681,-5.681,-5.684,-5.6933,-5.7426,-5.7611,-5.7426,-5.7549,-5.7795,-5.8196,-5.867,-5.9501,-6.0609,-6.0794,-6.0794,-6.0794,-6.0794,-6.0855,-6.1163,-6.2086,-6.2948,-6.3502,-6.4118,-6.4734,-6.4826,-6.4888,-6.4888,-6.5103,-6.618,-6.6981,-6.7289,-6.7843,-6.852,-6.8674,-6.8489,-6.8304,-6.8369,-6.8415,-6.8058,-6.7819,-6.7487,-6.6281,-6.5053,-6.5024,-6.5054,-6.4636,-6.4726,-6.5081,-6.5399,-6.5437,-6.5042,-6.4232,-6.3769,-6.3442,-6.3178,-6.2914,-6.2914,-4.7922,-4.7983,-4.868,-4.862,-4.8432,-4.9374,-4.9556,-4.9131,-4.9552,-4.9839,-5.0062,-5.0136,-5.0358,-5.0677,-5.1212,-5.1673,-5.1904,-5.1966,-5.2027,-5.1935,-5.1598,-5.1212,-5.112,-5.1199,-5.123,-5.1216,-5.13,-5.1592,-5.229,-5.2744,-5.2849,-5.3364,-5.3503,-5.3813,-5.4046,-5.4249,-5.4359,-5.4405,-5.4421,-5.4068,-5.3576,-5.3438,-5.3376,-5.3453,-5.3498,-5.3899,-5.4345,-5.4529,-5.4914,-5.5592,-5.5684,-5.6023,-5.6361,-5.6563,-5.6656,-5.6779,-5.6902,-5.6933,-5.6933,-5.6902,-5.71,-5.7469,-5.7826,-5.8134,-5.8165,-5.8073,-5.8023,-5.8577,-5.9162,-5.9932,-6.0671,-6.0794,-6.0794,-6.0794,-6.0824,-6.1009,-6.1563,-6.2271,-6.2887,-6.3287,-6.4149,-6.4888,-6.4888,-6.4888,-6.4888,-6.5226,-6.615,-6.6765,-6.7073,-6.7843,-6.8735,-6.8643,-6.8335,-6.815,-6.7969,-6.8052,-6.7999,-6.7819,-6.7336,-6.6281,-6.5352,-6.5054,-6.4755,-6.4188,-6.4338,-6.4994,-6.5196,-6.5447,-6.5236,-6.4717,-6.4037,-6.3376,-6.3178,-6.298,-6.2914,-4.8358,-4.8755,-4.9382,-4.9774,-4.9983,-5.0564,-5.073,-5.0424,-5.0393,-5.0621,-5.0923,-5.1015,-5.1274,-5.17,-5.2021,-5.2452,-5.2637,-5.2729,-5.2729,-5.2606,-5.2359,-5.199,-5.1836,-5.2021,-5.1959,-5.1809,-5.1815,-5.2246,-5.3115,-5.313,-5.354,-5.3871,-5.4118,-5.4443,-5.4861,-5.5064,-5.5081,-5.5191,-5.5161,-5.4884,-5.4252,-5.416,-5.4114,-5.3868,-5.4114,-5.4576,-5.5099,-5.5222,-5.5561,-5.6084,-5.6269,-5.6502,-5.6686,-5.681,-5.681,-5.684,-5.7118,-5.7303,-5.7426,-5.7611,-5.7993,-5.8208,-5.835,-5.8258,-5.8258,-5.7993,-5.8116,-5.8731,-5.9378,-6.0055,-6.0732,-6.0763,-6.0794,-6.0794,-6.0794,-6.1132,-6.1748,-6.2425,-6.2856,-6.3225,-6.418,-6.4795,-6.4888,-6.4888,-6.4888,-6.5411,-6.618,-6.6611,-6.695,-6.7873,-6.8889,-6.8766,-6.852,-6.8458,-6.8157,-6.8052,-6.803,-6.785,-6.7246,-6.6191,-6.5352,-6.4845,-6.407,-6.3356,-6.3862,-6.4666,-6.5233,-6.5497,-6.5326,-6.5198,-6.4618,-6.4001,-6.3442,-6.3046,-6.298,-4.9132,-4.9641,-5.0161,-5.08,-5.1467,-5.1652,-5.1682,-5.1621,-5.1313,-5.1392,-5.1867,-5.1929,-5.2206,-5.2575,-5.2667,-5.2698,-5.2729,-5.2729,-5.2729,-5.2698,-5.2667,-5.2359,-5.2206,-5.2298,-5.2421,-5.2175,-5.2315,-5.2946,-5.3346,-5.3575,-5.391,-5.4399,-5.4646,-5.4877,-5.5402,-5.5497,-5.5684,-5.5684,-5.5653,-5.5345,-5.4884,-5.4652,-5.4576,-5.4206,-5.4637,-5.5222,-5.5838,-5.593,-5.6146,-5.6594,-5.6748,-5.681,-5.681,-5.681,-5.681,-5.6933,-5.7457,-5.7734,-5.7949,-5.8331,-5.867,-5.8947,-5.8874,-5.8596,-5.8393,-5.8362,-5.827,-5.8762,-5.9408,-6.0055,-6.0671,-6.0794,-6.0794,-6.0794,-6.0855,-6.1101,-6.184,-6.2517,-6.3102,-6.3656,-6.4395,-6.4703,-6.4826,-6.4949,-6.498,-6.5565,-6.6334,-6.695,-6.735,-6.815,-6.8858,-6.8889,-6.8828,-6.8828,-6.8559,-6.8174,-6.809,-6.797,-6.7125,-6.6041,-6.5232,-6.4517,-6.3713,-6.3001,-6.3268,-6.4011,-6.4815,-6.5862,-6.6188,-6.6047,-6.5319,-6.4711,-6.4102,-6.3479,-6.3112,-5.0653,-5.0531,-5.0623,-5.0728,-5.0974,-5.1528,-5.1713,-5.1805,-5.2206,-5.2513,-5.2513,-5.2544,-5.2606,-5.2698,-5.2729,-5.2729,-5.2729,-5.2729,-5.2729,-5.2729,-5.2698,-5.2667,-5.2575,-5.2637,-5.2667,-5.2513,-5.2667,-5.3053,-5.3591,-5.4145,-5.479,-5.5234,-5.5418,-5.5575,-5.5589,-5.579,-5.5684,-5.5684,-5.5715,-5.5438,-5.4914,-5.4775,-5.5068,-5.5284,-5.5561,-5.5869,-5.6471,-5.6532,-5.6686,-5.6748,-5.681,-5.681,-5.681,-5.681,-5.681,-5.6994,-5.7395,-5.7826,-5.7962,-5.8608,-5.9131,-5.9347,-5.9101,-5.9131,-5.8916,-5.8854,-5.8731,-5.8762,-5.9439,-6.0086,-6.064,-6.0763,-6.0794,-6.0824,-6.0917,-6.1502,-6.224,-6.2425,-6.301,-6.3656,-6.4272,-6.458,-6.4764,-6.4918,-6.5134,-6.578,-6.6427,-6.7073,-6.772,-6.8427,-6.8858,-6.8889,-6.8889,-6.8889,-6.8713,-6.8358,-6.815,-6.803,-6.7005,-6.5951,-6.5173,-6.4338,-6.3565,-6.3061,-6.3387,-6.4129,-6.547,-6.643,-6.7095,-6.6849,-6.6106,-6.548,-6.488,-6.4138,-6.3216,-5.2113,-5.1438,-5.1469,-5.1598,-5.1867,-5.2144,-5.2267,-5.2329,-5.2575,-5.2729,-5.2729,-5.2729,-5.2729,-5.2729,-5.2729,-5.2729,-5.2729,-5.2743,-5.2729,-5.2743,-5.2774,-5.2729,-5.2698,-5.2729,-5.2729,-5.2883,-5.3098,-5.3406,-5.3899,-5.4422,-5.5068,-5.5653,-5.6023,-5.6023,-5.5807,-5.6084,-5.5992,-5.5961,-5.5992,-5.593,-5.5561,-5.5622,-5.5807,-5.5745,-5.6084,-5.6471,-5.6717,-5.681,-5.681,-5.681,-5.681,-5.681,-5.681,-5.684,-5.6933,-5.7408,-5.7962,-5.8331,-5.8485,-5.9347,-5.9747,-5.9562,-5.9193,-5.8762,-5.8824,-5.9131,-5.9316,-5.9378,-5.9963,-6.0455,-6.0701,-6.0794,-6.0794,-6.0855,-6.104,-6.1625,-6.224,-6.2487,-6.2887,-6.3502,-6.4118,-6.4426,-6.4734,-6.5011,-6.5319,-6.5934,-6.6581,-6.7227,-6.7812,-6.8458,-6.8766,-6.8889,-6.8889,-6.8889,-6.8713,-6.8417,-6.815,-6.7788,-6.6794,-6.5832,-6.5054,-6.4278,-6.3535,-6.3535,-6.4129,-6.5052,-6.6215,-6.6818,-6.7184,-6.7064,-6.6848,-6.6077,-6.529,-6.4102,-6.3282,-5.3345,-5.2455,-5.2381,-5.2591,-5.2877,-5.2877,-5.2846,-5.2877,-5.2833,-5.2819,-5.2819,-5.2819,-5.2819,-5.2908,-5.3055,-5.3144,-5.2922,-5.3113,-5.3144,-5.31,-5.3086,-5.3179,-5.329,-5.3231,-5.3174,-5.3221,-5.3699,-5.3991,-5.4206,-5.4668,-5.5284,-5.5715,-5.6053,-5.6115,-5.5961,-5.6101,-5.6132,-5.5776,-5.6409,-5.6269,-5.5899,-5.6378,-5.63,-5.63,-5.6471,-5.681,-5.681,-5.681,-5.681,-5.681,-5.681,-5.681,-5.681,-5.684,-5.7148,-5.7654,-5.83,-5.8793,-5.9224,-5.9901,-6.0363,-6.0024,-5.9408,-5.8916,-5.8423,-5.9131,-5.9778,-5.9716,-6.0332,-6.0671,-6.0794,-6.0794,-6.0948,-6.1101,-6.1286,-6.1748,-6.2148,-6.2425,-6.301,-6.3903,-6.4364,-6.4334,-6.4672,-6.5042,-6.5503,-6.6119,-6.6735,-6.7412,-6.7997,-6.8581,-6.8735,-6.8889,-6.8889,-6.8889,-6.8713,-6.8476,-6.8209,-6.7637,-6.6643,-6.5952,-6.5293,-6.4487,-6.3743,-6.404,-6.4755,-6.5293,-6.6102,-6.6701,-6.7242,-6.7456,-6.7396,-6.6417,-6.548,-6.4296,-6.3348,-5.3899,-5.3683,-5.3403,-5.3315,-5.3334,-5.3334,-5.3334,-5.3246,-5.3144,-5.3055,-5.31,-5.3086,-5.3086,-5.3233,-5.3683,-5.377,-5.3421,-5.4391,-5.4253,-5.4028,-5.4005,-5.4028,-5.4046,-5.3999,-5.4051,-5.436,-5.456,-5.4637,-5.4822,-5.5315,-5.5622,-5.5745,-5.6053,-5.5869,-5.5745,-5.5838,-5.5992,-5.593,-5.6502,-5.6423,-5.6146,-5.644,-5.6717,-5.6717,-5.6748,-5.681,-5.681,-5.681,-5.681,-5.681,-5.681,-5.681,-5.681,-5.681,-5.7179,-5.7949,-5.8423,-5.9039,-5.9747,-6.0301,-6.064,-6.0517,-6.0055,-5.9347,-5.8854,-5.9347,-5.9747,-5.9932,-6.0517,-6.0732,-6.0794,-6.0824,-6.1009,-6.1409,-6.1686,-6.2117,-6.2394,-6.2364,-6.3071,-6.421,-6.4549,-6.4395,-6.4949,-6.538,-6.5873,-6.6488,-6.7381,-6.8058,-6.8335,-6.8797,-6.8828,-6.8889,-6.8889,-6.8889,-6.883,-6.8535,-6.809,-6.7426,-6.6583,-6.6132,-6.5802,-6.4964,-6.41,-6.4576,-6.5233,-6.5592,-6.5981,-6.6733,-6.7426,-6.8086,-6.7849,-6.6602,-6.5572,-6.4425,-6.361,-5.4231,-5.4359,-5.4017,-5.364,-5.3421,-5.3421,-5.3421,-5.3377,-5.329,-5.3365,-5.3528,-5.3452,-5.3496,-5.3671,-5.3931,-5.4157,-5.4082,-5.4475,-5.4549,-5.4412,-5.4306,-5.434,-5.4278,-5.4459,-5.4313,-5.4776,-5.5099,-5.5315,-5.5407,-5.5961,-5.6317,-5.6409,-5.6269,-5.6023,-5.5869,-5.5807,-5.5961,-5.63,-5.6625,-5.6594,-5.6594,-5.6594,-5.681,-5.681,-5.681,-5.681,-5.681,-5.681,-5.681,-5.681,-5.681,-5.681,-5.681,-5.681,-5.7364,-5.8227,-5.8639,-5.9285,-6.0147,-6.0578,-6.0609,-6.0209,-5.9901,-5.9686,-5.9439,-6.0024,-6.0332,-6.0517,-6.0609,-6.0763,-6.0794,-6.0824,-6.1009,-6.1594,-6.2086,-6.2517,-6.2794,-6.2856,-6.3133,-6.4272,-6.4334,-6.418,-6.498,-6.5842,-6.6365,-6.6919,-6.7843,-6.8581,-6.8766,-6.8889,-6.8889,-6.8889,-6.883,-6.8713,-6.8654,-6.8298,-6.797,-6.7276,-6.6493,-6.6252,-6.6011,-6.5323,-6.4785,-6.5293,-6.5651,-6.601,-6.643,-6.6942,-6.7396,-6.7668,-6.7305,-6.6508,-6.5446,-6.4454,-6.3871,-5.4497,-5.4781,-5.4412,-5.4028,-5.364,-5.3596,-5.3683,-5.3844,-5.4021,-5.434,-5.4727,-5.4611,-5.457,-5.4666,-5.4906,-5.4915,-5.5099,-5.5418,-5.5507,-5.5554,-5.5583,-5.5538,-5.5605,-5.5726,-5.5924,-5.5844,-5.5984,-5.6324,-5.6101,-5.6594,-5.6686,-5.6748,-5.6779,-5.644,-5.6255,-5.6053,-5.6269,-5.6686,-5.681,-5.681,-5.6779,-5.681,-5.681,-5.681,-5.681,-5.681,-5.681,-5.681,-5.681,-5.681,-5.681,-5.681,-5.681,-5.6994,-5.758,-5.8319,-5.8916,-5.9439,-6.0393,-6.0732,-6.0578,-6.0332,-6.0209,-6.0116,-6.0209,-6.0517,-6.0671,-6.0732,-6.0763,-6.0794,-6.0824,-6.1009,-6.1471,-6.2117,-6.2394,-6.2825,-6.341,-6.3656,-6.3841,-6.4334,-6.4272,-6.4426,-6.5042,-6.5996,-6.6897,-6.7331,-6.7917,-6.847,-6.8621,-6.8772,-6.8889,-6.883,-6.8741,-6.8654,-6.8476,-6.8059,-6.7699,-6.7397,-6.6763,-6.6432,-6.6071,-6.5562,-6.5562,-6.6041,-6.6369,-6.658,-6.6791,-6.7031,-6.7091,-6.703,-6.66,-6.6165,-6.5285,-6.4418,-6.4001,-5.479,-5.4822,-5.4822,-5.456,-5.4252,-5.4134,-5.4433,-5.4857,-5.5304,-5.5986,-5.6723,-5.644,-5.6422,-5.6548,-5.6533,-5.6277,-5.6231,-5.6829,-5.7215,-5.7212,-5.7146,-5.8107,-5.8409,-5.827,-5.7592,-5.7941,-5.7791,-5.7387,-5.6896,-5.7149,-5.7115,-5.7002,-5.7019,-5.6844,-5.6748,-5.6779,-5.6779,-5.681,-5.681,-5.681,-5.681,-5.681,-5.681,-5.681,-5.681,-5.681,-5.681,-5.681,-5.681,-5.681,-5.681,-5.681,-5.681,-5.681,-5.7457,-5.8485,-5.8701,-5.9439,-6.0609,-6.0732,-6.0701,-6.064,-6.0547,-6.0578,-6.0671,-6.0794,-6.0794,-6.0794,-6.0794,-6.0794,-6.1009,-6.1348,-6.1963,-6.2364,-6.261,-6.3133,-6.3718,-6.4241,-6.4395,-6.4487,-6.4703,-6.4949,-6.5411,-6.6062,-6.7181,-6.789,-6.8231,-6.8446,-6.8564,-6.8682,-6.8889,-6.8713,-6.8623,-6.8417,-6.8179,-6.785,-6.7487,-6.7245,-6.7004,-6.6641,-6.649,-6.6251,-6.64,-6.6819,-6.6849,-6.6789,-6.6879,-6.6999,-6.6876,-6.6753,-6.6382,-6.5882,-6.4996,-6.4418,-6.4095,-5.5072,-5.5269,-5.5721,-5.5915,-5.5882,-5.5892,-5.6007,-5.6219,-5.6802,-5.7414,-5.7623,-5.7225,-5.7388,-5.7606,-5.7297,-5.7128,-5.7432,-5.7125,-5.7577,-5.8053,-5.8147,-5.8426,-5.8954,-5.9226,-5.9015,-5.9029,-5.8831,-5.8651,-5.8437,-5.8194,-5.8087,-5.8026,-5.7495,-5.7258,-5.6954,-5.681,-5.681,-5.681,-5.681,-5.681,-5.681,-5.681,-5.681,-5.681,-5.681,-5.681,-5.681,-5.681,-5.681,-5.681,-5.681,-5.681,-5.681,-5.681,-5.7241,-5.8085,-5.8454,-5.9408,-6.0393,-6.0794,-6.0794,-6.0794,-6.0794,-6.0794,-6.0794,-6.0794,-6.0794,-6.0794,-6.0794,-6.0794,-6.0886,-6.144,-6.1963,-6.224,-6.261,-6.3349,-6.3964,-6.4426,-6.4703,-6.4734,-6.4888,-6.5478,-6.6032,-6.6581,-6.7604,-6.8249,-6.8621,-6.8623,-6.8713,-6.8772,-6.883,-6.8654,-6.8417,-6.8179,-6.7879,-6.7608,-6.7426,-6.7214,-6.7062,-6.691,-6.6789,-6.6731,-6.6759,-6.6939,-6.6969,-6.6999,-6.6999,-6.6937,-6.6691,-6.6444,-6.6132,-6.5756,-6.506,-6.4612,-6.4289,-5.5775,-5.6157,-5.6564,-5.7012,-5.7348,-5.7258,-5.7429,-5.7929,-5.8585,-5.9086,-5.9315,-5.8826,-5.8847,-5.9079,-5.853,-5.8079,-5.8768,-5.8513,-5.8724,-5.9103,-5.9203,-5.9804,-6.0074,-5.9968,-6.0097,-6.0085,-5.9773,-5.9598,-5.9189,-5.9145,-5.8728,-5.8211,-5.8058,-5.759,-5.7242,-5.7067,-5.7019,-5.6971,-5.6954,-5.6906,-5.6858,-5.681,-5.681,-5.681,-5.681,-5.681,-5.681,-5.681,-5.681,-5.681,-5.681,-5.681,-5.684,-5.6902,-5.7179,-5.7746,-5.8701,-5.9624,-6.0486,-6.0794,-6.0794,-6.0794,-6.0794,-6.0794,-6.0794,-6.0794,-6.0794,-6.0794,-6.0794,-6.0978,-6.1163,-6.1717,-6.221,-6.2517,-6.3279,-6.4019,-6.4265,-6.4727,-6.4881,-6.4943,-6.5048,-6.5729,-6.6642,-6.7319,-6.8116,-6.8606,-6.8976,-6.8976,-6.9006,-6.8948,-6.8889,-6.8654,-6.8417,-6.8119,-6.785,-6.7487,-6.7304,-6.7182,-6.7121,-6.7091,-6.7091,-6.7032,-6.7,-6.6999,-6.6999,-6.6999,-6.6999,-6.6876,-6.6691,-6.6382,-6.607,-6.563,-6.5124,-6.4804,-6.4483,-5.6869,-5.7423,-5.7321,-5.7862,-5.851,-5.8404,-5.8922,-6.0008,-6.0371,-6.1019,-6.1789,-6.083,-6.064,-6.0946,-6.0347,-5.9971,-5.9933,-5.9903,-6.0309,-6.0782,-6.0705,-6.1369,-6.17,-6.1776,-6.1339,-6.1044,-6.0745,-6.0417,-5.9718,-5.9499,-5.8953,-5.8395,-5.8289,-5.8058,-5.7871,-5.7731,-5.7464,-5.7258,-5.7115,-5.7067,-5.6971,-5.6858,-5.6858,-5.6858,-5.6858,-5.681,-5.681,-5.681,-5.6871,-5.6871,-5.6871,-5.6871,-5.6871,-5.6871,-5.7272,-5.7993,-5.9162,-5.9839,-6.0609,-6.0763,-6.0794,-6.0794,-6.0794,-6.0794,-6.0794,-6.0794,-6.0794,-6.0794,-6.0794,-6.1255,-6.1656,-6.2324,-6.294,-6.358,-6.4289,-6.4628,-6.4721,-6.4875,-6.4967,-6.4949,-6.4998,-6.5612,-6.6817,-6.7703,-6.894,-6.9501,-6.987,-6.9756,-6.9641,-6.9182,-6.9123,-6.883,-6.8535,-6.8209,-6.791,-6.7699,-6.7548,-6.7548,-6.7365,-6.7304,-6.7304,-6.7243,-6.7182,-6.706,-6.6999,-6.6999,-6.6999,-6.6876,-6.6691,-6.6382,-6.607,-6.563,-6.5124,-6.4996,-6.4804,-5.7653,-5.7833,-5.9099,-5.9864,-6.033,-6.0872,-6.1287,-6.1388,-6.1071,-6.1284,-6.1963,-6.0645,-6.0936,-6.1907,-6.0723,-6.0622,-6.0554,-6.052,-6.0689,-6.1061,-6.1434,-6.1839,-6.2105,-6.2302,-6.211,-6.1951,-6.1676,-6.1399,-6.1152,-6.0567,-6.0226,-6.0098,-5.903,-5.8882,-5.8746,-5.8701,-5.8072,-5.7606,-5.7495,-5.7353,-5.7211,-5.7115,-5.7067,-5.6971,-5.6906,-5.6858,-5.681,-5.6871,-5.7025,-5.7395,-5.7025,-5.6994,-5.7518,-5.758,-5.7919,-5.9008,-5.9378,-5.9501,-6.0517,-6.0794,-6.0794,-6.0845,-6.0824,-6.0794,-6.0794,-6.0794,-6.0794,-6.0845,-6.0999,-6.1452,-6.2091,-6.2792,-6.3401,-6.4011,-6.4661,-6.494,-6.4978,-6.4899,-6.4991,-6.5251,-6.5269,-6.6318,-6.7409,-6.8789,-6.9935,-7.0568,-7.083,-7.0631,-7.035,-6.9927,-6.9614,-6.9441,-6.9209,-6.9065,-6.8535,-6.8268,-6.8059,-6.791,-6.7729,-6.7548,-6.7487,-6.7426,-6.7243,-6.7121,-6.6999,-6.6999,-6.6999,-6.6876,-6.6753,-6.6319,-6.5945,-6.5567,-6.5251,-6.5124,-6.4903,-5.848,-5.8769,-6.0023,-6.0891,-6.1464,-6.2099,-6.2268,-6.2088,-6.1678,-6.1644,-6.1644,-6.1138,-6.1283,-6.1738,-6.1332,-6.1298,-6.1637,-6.14,-6.1434,-6.1637,-6.167,-6.2009,-6.2313,-6.2415,-6.2341,-6.2341,-6.2302,-6.2037,-6.1917,-6.1473,-6.1061,-6.0515,-5.9728,-5.9552,-5.9375,-5.9107,-5.8655,-5.8211,-5.7887,-5.7778,-5.759,-5.7322,-5.7227,-5.7115,-5.7002,-5.6906,-5.6902,-5.6994,-5.7457,-5.7857,-5.7505,-5.7943,-5.8393,-5.8504,-5.8795,-5.9723,-5.9734,-6.0043,-6.0733,-6.0845,-6.0897,-6.099,-6.1061,-6.1009,-6.0886,-6.0794,-6.0897,-6.098,-6.134,-6.1794,-6.2548,-6.3273,-6.376,-6.428,-6.4746,-6.5126,-6.5056,-6.4923,-6.5146,-6.5491,-6.6245,-6.7268,-6.8502,-6.9853,-7.0862,-7.125,-7.1525,-7.1602,-7.1328,-7.0886,-7.0662,-7.0438,-7.0212,-7.0016,-6.9468,-6.9,-6.8738,-6.8474,-6.8059,-6.7879,-6.7729,-6.7487,-6.7304,-6.7121,-6.6999,-6.6999,-6.6999,-6.6937,-6.6814,-6.6382,-6.5945,-6.563,-6.5314,-6.506,-6.4932,-5.9203,-5.9838,-6.0528,-6.1312,-6.2009,-6.2341,-6.242,-6.242,-6.2347,-6.1975,-6.1535,-6.1941,-6.1806,-6.1603,-6.1772,-6.2076,-6.2212,-6.2076,-6.2009,-6.2381,-6.2245,-6.2347,-6.2347,-6.2415,-6.2415,-6.2415,-6.2381,-6.2302,-6.2263,-6.179,-6.1219,-6.0506,-6.0173,-6.0001,-5.9914,-5.9739,-5.9476,-5.9177,-5.885,-5.8624,-5.7871,-5.7543,-5.7448,-5.7258,-5.7225,-5.7222,-5.7184,-5.7475,-5.7949,-5.8295,-5.8579,-5.9067,-5.9321,-5.9296,-5.9731,-6.0116,-6.0202,-6.0442,-6.0856,-6.1,-6.1072,-6.1257,-6.1566,-6.1575,-6.1483,-6.1504,-6.1649,-6.1361,-6.166,-6.2405,-6.3161,-6.3804,-6.4355,-6.4791,-6.5173,-6.5367,-6.5204,-6.5132,-6.5183,-6.5701,-6.666,-6.7741,-6.8924,-7.0268,-7.1464,-7.181,-7.1961,-7.2143,-7.2337,-7.1982,-7.1602,-7.1438,-7.1218,-7.0965,-7.0497,-7.0017,-6.96,-6.9201,-6.8651,-6.8179,-6.797,-6.7669,-6.7365,-6.7182,-6.6999,-6.6999,-6.6999,-6.6999,-6.6814,-6.6257,-6.5882,-6.563,-6.5378,-6.506,-6.4996,-5.9869,-6.0173,-6.1608,-6.2363,-6.2537,-6.2576,-6.2615,-6.261,-6.2459,-6.1975,-6.1434,-6.1467,-6.1501,-6.1467,-6.2076,-6.2415,-6.2415,-6.2415,-6.2415,-6.2381,-6.2415,-6.2415,-6.2415,-6.2415,-6.2415,-6.2415,-6.2415,-6.2415,-6.2302,-6.1951,-6.1676,-6.1473,-6.0978,-6.0558,-6.0769,-6.0642,-6.0355,-6.0054,-5.9925,-5.9298,-5.8381,-5.7965,-5.7731,-5.7793,-5.7855,-5.7959,-5.8045,-5.8443,-5.9061,-5.9575,-5.9204,-5.957,-6.0204,-5.9884,-6.0241,-6.0939,-6.0827,-6.0913,-6.1071,-6.1227,-6.1361,-6.1649,-6.202,-6.2372,-6.2579,-6.2672,-6.2486,-6.2105,-6.2156,-6.2996,-6.3682,-6.4296,-6.4858,-6.5241,-6.5538,-6.5429,-6.5266,-6.5318,-6.5282,-6.6177,-6.7107,-6.8287,-6.947,-7.0617,-7.1766,-7.2221,-7.2235,-7.2475,-7.3258,-7.3214,-7.255,-7.2337,-7.223,-7.195,-7.1445,-7.09,-7.0417,-6.9797,-6.9166,-6.8649,-6.8119,-6.7608,-6.7182,-6.7121,-6.6999,-6.6999,-6.6999,-6.6999,-6.6691,-6.6195,-6.5882,-6.5694,-6.5378,-6.506,-6.4996,-6.0393,-6.0909,-6.2221,-6.2847,-6.2847,-6.2847,-6.277,-6.2654,-6.2576,-6.2053,-6.1467,-6.1603,-6.1637,-6.1501,-6.2076,-6.2415,-6.2415,-6.2415,-6.2415,-6.2415,-6.2516,-6.2415,-6.2415,-6.2448,-6.2415,-6.2415,-6.2415,-6.2415,-6.2443,-6.2223,-6.203,-6.1904,-6.1375,-6.1252,-6.1539,-6.126,-6.1103,-6.0853,-6.0853,-6.0173,-5.903,-5.8701,-5.8197,-5.8231,-5.8326,-5.851,-5.8833,-5.9203,-5.9918,-6.0434,-6.0391,-6.0827,-6.1226,-6.1137,-6.1195,-6.1471,-6.1452,-6.1227,-6.143,-6.1567,-6.1743,-6.2124,-6.2898,-6.3406,-6.3326,-6.3388,-6.361,-6.3287,-6.2976,-6.361,-6.362,-6.4068,-6.4654,-6.508,-6.4978,-6.4801,-6.5016,-6.5343,-6.5911,-6.6951,-6.8082,-6.9351,-7.0518,-7.1703,-7.2652,-7.2914,-7.2845,-7.3036,-7.377,-7.3986,-7.3441,-7.3077,-7.292,-7.2626,-7.2131,-7.1606,-7.1091,-7.0473,-6.9615,-6.8735,-6.7879,-6.7426,-6.6999,-6.6999,-6.6999,-6.6999,-6.6999,-6.6999,-6.6691,-6.6132,-6.5945,-6.5756,-6.5378,-6.4996,-6.4996,-6.0668,-6.1677,-6.2518,-6.2935,-6.3038,-6.3038,-6.2923,-6.2731,-6.2693,-6.2271,-6.167,-6.2245,-6.2042,-6.1772,-6.2042,-6.2313,-6.255,-6.2719,-6.2651,-6.2821,-6.2854,-6.2854,-6.2753,-6.2618,-6.2685,-6.2787,-6.2854,-6.2888,-6.2956,-6.2876,-6.2683,-6.2132,-6.1869,-6.1755,-6.1509,-6.1409,-6.1424,-6.1227,-6.1061,-6.0811,-6.013,-5.9508,-5.8901,-5.8651,-5.8767,-5.9033,-5.9374,-5.9884,-6.0683,-6.1014,-6.1396,-6.1783,-6.2058,-6.2013,-6.1995,-6.2053,-6.2003,-6.1885,-6.1996,-6.2197,-6.2384,-6.2839,-6.3831,-6.428,-6.4168,-6.4255,-6.4507,-6.4382,-6.4069,-6.3933,-6.3972,-6.4232,-6.4769,-6.4945,-6.4675,-6.4506,-6.4936,-6.538,-6.6412,-6.7565,-6.8776,-7.0076,-7.1166,-7.2396,-7.2946,-7.3239,-7.3562,-7.3902,-7.4087,-7.392,-7.3581,-7.3478,-7.3394,-7.3083,-7.2656,-7.2281,-7.1723,-7.0545,-6.9665,-6.8587,-6.7699,-6.7274,-6.6999,-6.6999,-6.6999,-6.6999,-6.6999,-6.6999,-6.6568,-6.6132,-6.6007,-6.5819,-6.5314,-6.4996,-6.4996,-6.0706,-6.1609,-6.2152,-6.2678,-6.3193,-6.3227,-6.3114,-6.2923,-6.2765,-6.2474,-6.2454,-6.2787,-6.2618,-6.1366,-6.2076,-6.2651,-6.326,-6.3294,-6.3734,-6.4106,-6.3869,-6.3666,-6.3429,-6.3294,-6.3294,-6.3429,-6.37,-6.4072,-6.3768,-6.3903,-6.3985,-6.3631,-6.3229,-6.2899,-6.2479,-6.2326,-6.2051,-6.1817,-6.1695,-6.1565,-6.0919,-6.0337,-5.9863,-5.9896,-6.0276,-6.0503,-6.0781,-6.1339,-6.1602,-6.1859,-6.204,-6.2315,-6.2396,-6.2396,-6.2347,-6.2347,-6.2266,-6.2431,-6.2512,-6.2766,-6.3069,-6.3848,-6.4711,-6.5174,-6.5123,-6.5272,-6.5418,-6.5396,-6.5082,-6.4873,-6.4882,-6.5208,-6.5617,-6.5286,-6.4956,-6.4909,-6.5084,-6.5723,-6.648,-6.7629,-6.8866,-6.9839,-7.0717,-7.1687,-7.2391,-7.2663,-7.2864,-7.3219,-7.3935,-7.3818,-7.3617,-7.3515,-7.3464,-7.3305,-7.2791,-7.2756,-7.2207,-7.0955,-6.9634,-6.8529,-6.7699,-6.7274,-6.706,-6.6999,-6.6999,-6.6999,-6.6999,-6.6937,-6.6568,-6.6195,-6.607,-6.5819,-6.5314,-6.4996,-6.4996]},{"header":{"parameterUnit":"m.s-1","parameterCategory":1,"la1":31.0,"la2":29.5877,"lo1":-88.7671,"lo2":-86.6584,"dx":0.0162,"dy":0.0185,"nx":115,"ny":88,"refTime":"2022-12-29T06:00:00:Z","depth":0,"parameterNumber":3,"parameterNumberName":"V-component_of_WINDS"},"data":[0.0,0.0,0.0,0.0,0.0,0.0,0.0,0.0,0.0,0.0,0.0,0.0,0.0,0.0,0.0,0.0,0.0,0.0,0.0,0.0,0.0,0.0,0.0,0.0,0.0,0.0,0.0,0.0,0.0,0.0,0.0,0.0,0.0,0.0,0.0,0.0,0.0,0.0,0.0,0.0,0.0,0.0,0.0,0.0,0.0,0.0,0.0,0.0,0.0,0.0,0.0,0.0,0.0,0.0,0.0,0.0,0.0,0.0,0.0,0.0,0.0,0.0,0.0,0.0,0.0,0.0,0.0,0.0,0.0,0.0,0.0,0.0,0.0,0.0,0.0,0.0,0.0,0.0,0.0,0.0,0.0,0.0,0.0,0.0,0.0,0.0,0.0,0.0,0.0,0.0,0.0,0.0,0.0,0.0,0.0,0.0,0.0,0.0,0.0,0.0,0.0,0.0,0.0,0.0,0.0,0.0,0.0,0.0,0.0,0.0,0.0,0.0,0.0,0.0,0.0,0.0,0.0,0.0,0.0,0.0,0.0,0.0,0.0,0.0,0.0,0.0,0.0,0.0,0.0,0.0,0.0,0.0,0.0,0.0,0.0,0.0,0.0,0.0,0.0,0.0,0.0,0.0,0.0,0.0,0.0,0.0,0.0,0.0,0.0,0.0,0.0,0.0,0.0,0.0,0.0,0.0,0.0,0.0,0.0,0.0,0.0,0.0,0.0,0.0,0.0,0.0,0.0,0.0,0.0,0.0,0.0,0.0,0.0,0.0,0.0,0.0,0.0,0.0,0.0,0.0,0.0,0.0,0.0,0.0,0.0,0.0,0.0,0.0,0.0,0.0,0.0,0.0,0.0,0.0,0.0,0.0,0.0,0.0,0.0,0.0,0.0,0.0,0.0,0.0,0.0,0.0,0.0,0.0,0.0,0.0,0.0,0.0,0.0,0.0,0.0,0.0,0.0,0.0,0.0,0.0,0.0,0.0,0.0,0.0,0.0,0.0,0.0,0.0,0.0,0.0,0.0,0.0,0.0,0.0,0.0,0.0,0.0,0.0,0.0,0.0,0.0,0.0,0.0,0.0,0.0,0.0,0.0,0.0,0.0,0.0,0.0,0.0,0.0,0.0,0.0,0.0,0.0,0.0,0.0,0.0,0.0,0.0,0.0,0.0,0.0,0.0,0.0,0.0,0.0,0.0,0.0,0.0,0.0,0.0,0.0,0.0,0.0,0.0,0.0,0.0,0.0,0.0,0.0,0.0,0.0,0.0,0.0,0.0,0.0,0.0,0.0,0.0,0.0,0.0,0.0,0.0,0.0,0.0,0.0,0.0,0.0,0.0,0.0,0.0,0.0,0.0,0.0,0.0,0.0,0.0,0.0,0.0,0.0,0.0,0.0,0.0,0.0,0.0,0.0,0.0,0.0,0.0,0.0,0.0,0.0,0.0,0.0,0.0,0.0,0.0,0.0,0.0,0.0,0.0,0.0,0.0,0.0,0.0,0.0,0.0,0.0,0.0,0.0,0.0,0.0,0.0,0.0,0.0,0.0,0.0,0.0,0.0,0.0,0.0,0.0,0.0,0.0,0.0,0.0,0.0,0.0,0.0,0.0,0.0,0.0,0.0,0.0,0.0,0.0,0.0,0.0,0.0,0.0,0.0,0.0,0.0,0.0,0.0,0.0,0.0,0.0,0.0,0.0,0.0,0.0,0.0,0.0,0.0,0.0,0.0,0.0,0.0,0.0,0.0,0.0,0.0,0.0,0.0,0.0,0.0,0.0,0.0,0.0,0.0,0.0,0.0,0.0,0.0,0.0,0.0,0.0,0.0,0.0,0.0,0.0,0.0,0.0,0.0,0.0,0.0,0.0,0.0,0.0,0.0,0.0,0.0,0.0,0.0,0.0,0.0,0.0,0.0,0.0,0.0,0.0,0.0,0.0,0.0,0.0,0.0,0.0,0.0,0.0,0.0,0.0,0.0,0.0,0.0,0.0,0.0,0.0,0.0,0.0,0.0,0.0,0.0,0.0,0.0,0.0,0.0,0.0,0.0,0.0,0.0,0.0,0.0,0.0,0.0,0.0,0.0,0.0,0.0,0.0,0.0,0.0,0.0,0.0,0.0,0.0,0.0,0.0,0.0,0.0,0.0,0.0,0.0,0.0,0.0,0.0,0.0,0.0,0.0,0.0,0.0,0.0,0.0,0.0,0.0,0.0,0.0,0.0,0.0,0.0,0.0,0.0,0.0,0.0,0.0,0.0,0.0,0.0,0.0,0.0,0.0,0.0,0.0,0.0,0.0,0.0,0.0,0.0,0.0,0.0,0.0,0.0,0.0,0.0,0.0,0.0,0.0,0.0,0.0,0.0,0.0,0.0,0.0,0.0,0.0,0.0,0.0,0.0,0.0,0.0,0.0,0.0,0.0,0.0,0.0,0.0,0.0,0.0,0.0,0.0,0.0,0.0,0.0,0.0,0.0,0.0,0.0,0.0,0.0,0.0,0.0,0.0,0.0,0.0,0.0,0.0,0.0,0.0,0.0,0.0,0.0,0.0,0.0,0.0,0.0,0.0,0.0,0.0,0.0,0.0,0.0,0.0,0.0,0.0,0.0,0.0,0.0,0.0,0.0,0.0,0.0,0.0,0.0,0.0,0.0,0.0,0.0,0.0,0.0,0.0,0.0,0.0,0.0,0.0,0.0,0.0,0.0,0.0,0.0,0.0,0.0,0.0,0.0,0.0,0.0,0.0,0.0,0.0,0.0,0.0,0.0,0.0,0.0,0.0,0.0,0.0,0.0,0.0,0.0,0.0,0.0,0.0,0.0,0.0,0.0,0.0,0.0,0.0,0.0,0.0,0.0,0.0,0.0,0.0,0.0,0.0,0.0,0.0,0.0,0.0,0.0,0.0,0.0,0.0,0.0,0.0,0.0,0.0,0.0,0.0,0.0,0.0,0.0,0.0,0.0,0.0,0.0,0.0,0.0,0.0,0.0,0.0,0.0,0.0,0.0,0.0,0.0,0.0,0.0,0.0,0.0,0.0,0.0,0.0,0.0,0.0,0.0,0.0,0.0,0.0,0.0,0.0,0.0,0.0,0.0,0.0,0.0,0.0,0.0,0.0,0.0,0.0,0.0,0.0,0.0,0.0,0.0,0.0,0.0,0.0,0.0,0.0,0.0,0.0,0.0,0.0,0.0,0.0,0.0,0.0,0.0,0.0,0.0,0.0,0.0,0.0,0.0,0.0,0.0,0.0,0.0,0.0,0.0,0.0,0.0,0.0,0.0,0.0,0.0,0.0,0.0,0.0,0.0,0.0,0.0,0.0,0.0,0.0,0.0,0.0,0.0,0.0,0.0,0.0,0.0,0.0,0.0,0.0,0.0,0.0,0.0,0.0,0.0,0.0,0.0,0.0,0.0,0.0,0.0,0.0,0.0,0.0,0.0,0.0,0.0,0.0,0.0,0.0,0.0,0.0,0.0,0.0,0.0,0.0,0.0,0.0,0.0,0.0,0.0,0.0,0.0,0.0,0.0,0.0,0.0,0.0,0.0,0.0,0.0,0.0,0.0,0.0,0.0,0.0,0.0,0.0,0.0,0.0,0.0,0.0,0.0,0.0,0.0,0.0,0.0,0.0,0.0,0.0,0.0,0.0,0.0,0.0,0.0,0.0,0.0,0.0,0.0,0.0,0.0,0.0,0.0,0.0,0.0,0.0,0.0,0.0,0.0,0.0,0.0,0.0,0.0,0.0,0.0,0.0,0.0,0.0,0.0,0.0,0.0,0.0,0.0,0.0,0.0,0.0,0.0,0.0,0.0,0.0,0.0,0.0,0.0,0.0,0.0,0.0,0.0,0.0,0.0,0.0,0.0,0.0,0.0,0.0,0.0,0.0,0.0,0.0,0.0,0.0,0.0,0.0,0.0,0.0,0.0,0.0,0.0,0.0,0.0,0.0,0.0,0.0,0.0,0.0,0.0,0.0,0.0,0.0,0.0,0.0,0.0,0.0,0.0,0.0,0.0,0.0,0.0,0.0,0.0,0.0,0.0,0.0,0.0,0.0,0.0,0.0,0.0,0.0,0.0,0.0,0.0,0.0,0.0,0.0,0.0,0.0,0.0,0.0,0.0,0.0,0.0,0.0,0.0,0.0,0.0,0.0,0.0,0.0,0.0,0.0,0.0,0.0,0.0,0.0,0.0,0.0,0.0,0.0,0.0,0.0,0.0,0.0,0.0,0.0,0.0,0.0,0.0,0.0,0.0,0.0,0.0,2.4642,0.0,0.0,0.0,2.4367,0.0,0.0,0.0,0.0,0.0,0.0,0.0,0.0,0.0,0.0,0.0,0.0,0.0,0.0,0.0,0.0,0.0,0.0,0.0,0.0,0.0,0.0,0.0,0.0,0.0,0.0,0.0,0.0,0.0,0.0,0.0,0.0,0.0,0.0,0.0,0.0,0.0,0.0,0.0,0.0,0.0,0.0,0.0,0.0,0.0,0.0,0.0,0.0,0.0,0.0,0.0,0.0,0.0,0.0,0.0,0.0,0.0,0.0,0.0,0.0,0.0,0.0,0.0,0.0,0.0,0.0,0.0,0.0,0.0,0.0,0.0,0.0,0.0,0.0,0.0,0.0,0.0,0.0,0.0,0.0,0.0,0.0,0.0,0.0,0.0,0.0,0.0,0.0,0.0,0.0,0.0,0.0,0.0,0.0,0.0,0.0,0.0,0.0,0.0,0.0,0.0,0.0,0.0,0.0,0.0,0.0,0.0,0.0,0.0,0.0,2.4634,2.4555,2.441,2.4312,2.4257,0.0,0.0,0.0,0.0,0.0,0.0,0.0,0.0,0.0,0.0,0.0,0.0,0.0,0.0,0.0,0.0,0.0,0.0,0.0,0.0,0.0,0.0,0.0,0.0,0.0,0.0,0.0,0.0,0.0,0.0,0.0,0.0,0.0,0.0,0.0,0.0,0.0,0.0,0.0,0.0,0.0,0.0,0.0,0.0,0.0,0.0,0.0,0.0,0.0,0.0,0.0,0.0,0.0,0.0,0.0,0.0,0.0,0.0,0.0,0.0,0.0,0.0,0.0,0.0,0.0,0.0,0.0,0.0,0.0,0.0,0.0,0.0,0.0,0.0,0.0,0.0,0.0,0.0,0.0,0.0,0.0,0.0,0.0,0.0,0.0,0.0,0.0,0.0,0.0,0.0,0.0,0.0,0.0,0.0,0.0,0.0,0.0,0.0,0.0,0.0,0.0,0.0,0.0,0.0,0.0,0.0,0.0,0.0,0.0,0.0,0.0,0.0,2.45,2.4394,2.4294,0.0,0.0,0.0,0.0,0.0,0.0,0.0,0.0,0.0,0.0,0.0,0.0,0.0,0.0,0.0,0.0,0.0,0.0,0.0,0.0,0.0,0.0,0.0,0.0,0.0,0.0,0.0,0.0,0.0,0.0,0.0,0.0,0.0,0.0,0.0,0.0,0.0,0.0,0.0,0.0,0.0,0.0,0.0,0.0,0.0,0.0,0.0,0.0,0.0,0.0,0.0,0.0,0.0,0.0,0.0,0.0,0.0,0.0,0.0,0.0,0.0,0.0,0.0,0.0,0.0,0.0,0.0,0.0,0.0,0.0,0.0,0.0,0.0,0.0,0.0,0.0,0.0,0.0,0.0,0.0,0.0,0.0,0.0,0.0,0.0,0.0,0.0,0.0,0.0,0.0,0.0,0.0,0.0,0.0,0.0,0.0,0.0,0.0,0.0,0.0,0.0,0.0,0.0,0.0,0.0,0.0,0.0,0.0,0.0,0.0,2.4658,2.4588,2.4534,0.0,2.4303,0.0,0.0,0.0,0.0,0.0,0.0,0.0,0.0,0.0,0.0,0.0,0.0,0.0,0.0,0.0,0.0,0.0,0.0,0.0,0.0,0.0,0.0,0.0,0.0,0.0,0.0,0.0,0.0,0.0,0.0,0.0,0.0,0.0,0.0,0.0,0.0,0.0,0.0,0.0,0.0,0.0,0.0,0.0,0.0,0.0,0.0,0.0,0.0,0.0,0.0,0.0,0.0,0.0,0.0,0.0,0.0,0.0,0.0,0.0,0.0,0.0,0.0,0.0,0.0,0.0,0.0,0.0,0.0,0.0,0.0,0.0,0.0,0.0,0.0,0.0,0.0,0.0,0.0,0.0,0.0,0.0,0.0,0.0,0.0,0.0,0.0,0.0,0.0,0.0,0.0,0.0,0.0,0.0,0.0,0.0,0.0,0.0,0.0,0.0,0.0,0.0,0.0,0.0,0.0,0.0,0.0,0.0,0.0,0.0,0.0,2.4682,2.4666,2.4559,2.4456,0.0,0.0,0.0,0.0,0.0,0.0,0.0,0.0,0.0,0.0,0.0,0.0,0.0,0.0,0.0,0.0,0.0,0.0,0.0,0.0,0.0,0.0,0.0,0.0,0.0,0.0,0.0,0.0,0.0,0.0,0.0,0.0,0.0,0.0,0.0,0.0,0.0,0.0,0.0,0.0,0.0,0.0,0.0,0.0,0.0,0.0,0.0,0.0,0.0,0.0,0.0,0.0,0.0,0.0,0.0,0.0,0.0,0.0,0.0,0.0,0.0,0.0,0.0,0.0,0.0,0.0,0.0,0.0,0.0,0.0,0.0,0.0,0.0,0.0,0.0,0.0,0.0,0.0,0.0,0.0,0.0,0.0,0.0,0.0,0.0,0.0,0.0,0.0,0.0,0.0,0.0,0.0,0.0,0.0,0.0,0.0,0.0,0.0,0.0,0.0,0.0,0.0,0.0,0.0,0.0,0.0,0.0,0.0,0.0,0.0,2.4729,2.469,2.4682,2.4576,2.4491,2.441,0.0,0.0,0.0,0.0,0.0,0.0,0.0,0.0,0.0,0.0,0.0,0.0,0.0,0.0,0.0,0.0,0.0,0.0,0.0,0.0,0.0,0.0,0.0,0.0,0.0,0.0,0.0,0.0,0.0,0.0,0.0,0.0,0.0,0.0,0.0,0.0,0.0,0.0,0.0,0.0,0.0,0.0,0.0,0.0,0.0,0.0,0.0,0.0,0.0,0.0,0.0,0.0,0.0,0.0,0.0,0.0,0.0,0.0,0.0,0.0,0.0,0.0,0.0,0.0,0.0,0.0,0.0,0.0,0.0,0.0,0.0,0.0,0.0,0.0,0.0,0.0,0.0,0.0,0.0,0.0,0.0,0.0,0.0,0.0,0.0,0.0,0.0,0.0,0.0,0.0,0.0,0.0,0.0,0.0,0.0,0.0,0.0,0.0,0.0,0.0,0.0,0.0,0.0,0.0,0.0,0.0,0.0,0.0,2.4707,2.47,2.4722,2.4727,2.4564,2.4513,0.0,0.0,0.0,0.0,0.0,0.0,0.0,0.0,0.0,0.0,0.0,0.0,0.0,0.0,0.0,0.0,0.0,0.0,0.0,0.0,0.0,0.0,0.0,0.0,0.0,0.0,0.0,0.0,0.0,0.0,0.0,0.0,0.0,0.0,0.0,0.0,0.0,0.0,0.0,0.0,0.0,0.0,0.0,0.0,0.0,0.0,0.0,0.0,0.0,0.0,0.0,0.0,0.0,0.0,0.0,0.0,0.0,0.0,0.0,0.0,0.0,0.0,0.0,0.0,0.0,0.0,0.0,0.0,0.0,0.0,0.0,0.0,0.0,0.0,0.0,0.0,0.0,0.0,0.0,0.0,0.0,0.0,0.0,0.0,0.0,0.0,0.0,0.0,0.0,0.0,0.0,0.0,0.0,0.0,0.0,0.0,0.0,0.0,0.0,0.0,0.0,0.0,0.0,0.0,0.0,0.0,0.0,0.0,0.0,2.47,2.5233,2.5743,2.6189,2.5643,2.533,0.0,0.0,0.0,0.0,0.0,0.0,0.0,0.0,0.0,0.0,0.0,0.0,0.0,0.0,0.0,0.0,0.0,0.0,0.0,0.0,0.0,0.0,0.0,0.0,0.0,0.0,0.0,0.0,0.0,0.0,0.0,0.0,0.0,0.0,0.0,0.0,0.0,0.0,0.0,0.0,0.0,0.0,0.0,0.0,0.0,0.0,0.0,0.0,0.0,0.0,0.0,0.0,0.0,0.0,0.0,0.0,0.0,0.0,0.0,0.0,0.0,0.0,0.0,0.0,0.0,0.0,0.0,0.0,0.0,0.0,0.0,0.0,0.0,0.0,0.0,0.0,0.0,0.0,0.0,0.0,0.0,0.0,0.0,0.0,0.0,0.0,0.0,0.0,0.0,0.0,0.0,0.0,0.0,0.0,0.0,0.0,0.0,0.0,0.0,0.0,0.0,0.0,0.0,0.0,0.0,0.0,0.0,0.0,0.0,2.512,2.5955,2.6652,2.7068,2.6558,2.6103,0.0,0.0,0.0,0.0,0.0,0.0,0.0,0.0,0.0,0.0,0.0,0.0,0.0,0.0,0.0,0.0,0.0,0.0,0.0,0.0,0.0,0.0,0.0,0.0,0.0,0.0,0.0,0.0,0.0,0.0,0.0,0.0,0.0,0.0,0.0,0.0,0.0,0.0,0.0,0.0,0.0,0.0,0.0,0.0,0.0,0.0,0.0,0.0,0.0,0.0,0.0,0.0,0.0,0.0,0.0,0.0,0.0,0.0,0.0,0.0,0.0,0.0,0.0,0.0,0.0,0.0,0.0,0.0,0.0,0.0,0.0,0.0,0.0,0.0,0.0,0.0,0.0,0.0,0.0,0.0,0.0,0.0,0.0,0.0,0.0,0.0,0.0,0.0,0.0,0.0,0.0,0.0,0.0,0.0,0.0,0.0,0.0,0.0,0.0,0.0,0.0,0.0,0.0,0.0,0.0,0.0,0.0,0.0,2.5239,2.603,2.6848,2.729,2.7252,2.7202,2.6738,0.0,0.0,0.0,0.0,0.0,0.0,0.0,0.0,0.0,0.0,0.0,0.0,0.0,0.0,0.0,0.0,0.0,0.0,0.0,0.0,0.0,0.0,0.0,0.0,0.0,0.0,0.0,0.0,0.0,0.0,0.0,0.0,0.0,0.0,0.0,0.0,0.0,0.0,0.0,0.0,0.0,0.0,0.0,0.0,0.0,0.0,0.0,0.0,0.0,0.0,0.0,0.0,0.0,0.0,0.0,0.0,0.0,0.0,0.0,0.0,0.0,0.0,0.0,0.0,0.0,0.0,0.0,0.0,0.0,0.0,0.0,0.0,0.0,0.0,0.0,0.0,0.0,0.0,0.0,0.0,0.0,0.0,0.0,0.0,0.0,0.0,0.0,0.0,0.0,0.0,0.0,0.0,0.0,0.0,0.0,0.0,0.0,0.0,0.0,0.0,0.0,0.0,0.0,0.0,0.0,0.0,0.0,0.0,0.0,2.8483,2.8746,2.9102,2.955,2.9006,2.8296,0.0,0.0,0.0,0.0,0.0,0.0,0.0,0.0,0.0,0.0,0.0,0.0,0.0,0.0,0.0,0.0,0.0,0.0,0.0,0.0,0.0,0.0,0.0,0.0,0.0,0.0,0.0,0.0,0.0,0.0,0.0,0.0,0.0,0.0,0.0,0.0,0.0,0.0,0.0,0.0,0.0,0.0,0.0,0.0,0.0,0.0,0.0,0.0,0.0,0.0,0.0,0.0,0.0,0.0,0.0,0.0,0.0,0.0,0.0,0.0,0.0,0.0,0.0,0.0,0.0,0.0,0.0,0.0,0.0,0.0,0.0,0.0,0.0,0.0,0.0,0.0,0.0,0.0,0.0,0.0,0.0,0.0,0.0,0.0,0.0,0.0,0.0,0.0,0.0,0.0,0.0,0.0,0.0,0.0,0.0,0.0,0.0,0.0,0.0,0.0,0.0,0.0,0.0,0.0,0.0,0.0,0.0,0.0,0.0,3.1662,3.1208,3.1096,3.1587,3.1049,3.0081,2.8715,0.0,0.0,0.0,0.0,0.0,0.0,0.0,0.0,0.0,0.0,0.0,0.0,0.0,0.0,0.0,0.0,0.0,0.0,0.0,0.0,0.0,0.0,0.0,0.0,0.0,0.0,0.0,0.0,0.0,0.0,0.0,0.0,0.0,0.0,0.0,0.0,0.0,0.0,0.0,0.0,0.0,0.0,0.0,0.0,0.0,0.0,0.0,0.0,0.0,0.0,0.0,0.0,0.0,0.0,0.0,0.0,0.0,0.0,0.0,0.0,0.0,0.0,0.0,0.0,0.0,0.0,0.0,0.0,0.0,0.0,0.0,0.0,0.0,0.0,0.0,0.0,0.0,0.0,0.0,0.0,0.0,0.0,0.0,0.0,0.0,0.0,0.0,0.0,0.0,0.0,0.0,0.0,0.0,0.0,0.0,0.0,0.0,0.0,0.0,0.0,0.0,0.0,0.0,0.0,0.0,0.0,0.0,0.0,3.5415,3.4166,3.3422,3.3273,3.3164,3.202,0.0,0.0,0.0,0.0,0.0,0.0,0.0,0.0,0.0,0.0,0.0,0.0,0.0,0.0,0.0,0.0,0.0,0.0,0.0,0.0,0.0,0.0,0.0,0.0,0.0,0.0,0.0,0.0,0.0,0.0,0.0,0.0,0.0,0.0,0.0,0.0,0.0,0.0,0.0,0.0,0.0,0.0,0.0,0.0,0.0,0.0,0.0,0.0,0.0,0.0,0.0,0.0,0.0,0.0,0.0,0.0,0.0,0.0,0.0,0.0,0.0,0.0,0.0,0.0,0.0,0.0,0.0,0.0,0.0,0.0,0.0,0.0,0.0,0.0,0.0,0.0,0.0,0.0,0.0,0.0,0.0,0.0,0.0,0.0,0.0,0.0,0.0,0.0,0.0,0.0,0.0,0.0,0.0,0.0,0.0,0.0,0.0,0.0,0.0,0.0,0.0,0.0,0.0,0.0,0.0,0.0,0.0,0.0,0.0,3.6075,3.7474,3.7341,3.5621,3.4994,3.3598,0.0,0.0,0.0,0.0,0.0,0.0,0.0,0.0,0.0,0.0,0.0,0.0,0.0,0.0,0.0,0.0,0.0,0.0,0.0,0.0,0.0,0.0,0.0,0.0,0.0,0.0,0.0,0.0,0.0,0.0,0.0,0.0,0.0,0.0,0.0,0.0,0.0,0.0,0.0,0.0,0.0,0.0,0.0,0.0,0.0,0.0,0.0,0.0,0.0,0.0,0.0,0.0,0.0,0.0,0.0,0.0,0.0,0.0,0.0,0.0,0.0,0.0,0.0,0.0,0.0,0.0,0.0,0.0,0.0,0.0,0.0,0.0,0.0,0.0,0.0,0.0,0.0,0.0,0.0,0.0,0.0,0.0,0.0,0.0,0.0,0.0,0.0,0.0,0.0,0.0,0.0,0.0,0.0,0.0,0.0,0.0,0.0,0.0,0.0,0.0,0.0,0.0,0.0,0.0,0.0,0.0,0.0,0.0,3.5974,3.7897,3.9921,4.0273,3.8921,3.7511,3.5734,0.0,0.0,0.0,0.0,0.0,0.0,0.0,0.0,0.0,0.0,0.0,0.0,0.0,0.0,0.0,0.0,0.0,0.0,0.0,0.0,0.0,0.0,0.0,0.0,0.0,0.0,0.0,0.0,0.0,0.0,0.0,0.0,0.0,0.0,0.0,0.0,0.0,0.0,0.0,0.0,0.0,0.0,0.0,0.0,0.0,0.0,0.0,0.0,0.0,0.0,0.0,0.0,0.0,0.0,0.0,0.0,0.0,0.0,0.0,0.0,0.0,0.0,0.0,0.0,0.0,0.0,0.0,0.0,0.0,0.0,0.0,0.0,0.0,0.0,0.0,0.0,0.0,0.0,0.0,0.0,0.0,0.0,0.0,0.0,0.0,0.0,0.0,0.0,0.0,0.0,0.0,0.0,0.0,0.0,0.0,0.0,0.0,0.0,0.0,0.0,0.0,0.0,0.0,0.0,0.0,0.0,0.0,0.0,3.7653,3.9936,4.1585,4.2433,4.2359,4.0204,3.7928,0.0,0.0,0.0,0.0,0.0,0.0,0.0,0.0,0.0,0.0,0.0,0.0,0.0,0.0,0.0,0.0,0.0,0.0,0.0,0.0,0.0,0.0,0.0,0.0,0.0,0.0,0.0,0.0,0.0,0.0,0.0,0.0,0.0,0.0,0.0,0.0,0.0,0.0,0.0,0.0,0.0,0.0,0.0,0.0,0.0,0.0,0.0,0.0,0.0,0.0,0.0,0.0,0.0,0.0,0.0,0.0,0.0,0.0,0.0,0.0,0.0,0.0,0.0,0.0,0.0,0.0,0.0,0.0,0.0,0.0,0.0,0.0,0.0,0.0,0.0,0.0,0.0,0.0,0.0,0.0,0.0,0.0,0.0,0.0,0.0,0.0,0.0,0.0,0.0,0.0,0.0,0.0,0.0,0.0,0.0,0.0,0.0,0.0,0.0,0.0,0.0,0.0,0.0,0.0,0.0,0.0,0.0,0.0,3.828,3.9989,4.2152,4.324,4.3258,4.1035,3.8722,0.0,0.0,0.0,0.0,0.0,0.0,0.0,0.0,0.0,0.0,0.0,0.0,0.0,0.0,0.0,0.0,0.0,0.0,0.0,0.0,0.0,0.0,0.0,0.0,0.0,0.0,0.0,0.0,0.0,0.0,0.0,0.0,0.0,0.0,0.0,0.0,0.0,0.0,0.0,0.0,0.0,0.0,0.0,0.0,0.0,0.0,0.0,0.0,3.685,0.0,0.0,0.0,0.0,0.0,0.0,0.0,0.0,0.0,0.0,0.0,0.0,0.0,0.0,0.0,0.0,0.0,0.0,0.0,0.0,0.0,0.0,0.0,0.0,0.0,0.0,0.0,0.0,0.0,0.0,0.0,0.0,0.0,0.0,0.0,0.0,0.0,0.0,0.0,0.0,0.0,0.0,0.0,0.0,0.0,0.0,0.0,0.0,0.0,0.0,0.0,0.0,0.0,0.0,0.0,0.0,0.0,0.0,0.0,3.9111,4.1001,4.2616,4.348,4.3409,4.1981,4.0065,0.0,0.0,0.0,0.0,0.0,0.0,0.0,0.0,0.0,0.0,0.0,0.0,0.0,0.0,0.0,0.0,0.0,0.0,0.0,0.0,0.0,0.0,0.0,0.0,0.0,0.0,0.0,0.0,0.0,0.0,0.0,0.0,0.0,0.0,0.0,0.0,0.0,0.0,0.0,0.0,0.0,0.0,0.0,0.0,0.0,0.0,0.0,0.0,0.0,0.0,0.0,0.0,0.0,0.0,0.0,0.0,0.0,0.0,0.0,0.0,0.0,0.0,0.0,0.0,0.0,0.0,0.0,0.0,0.0,0.0,0.0,0.0,0.0,0.0,0.0,0.0,0.0,0.0,0.0,0.0,0.0,0.0,0.0,0.0,0.0,0.0,0.0,0.0,0.0,0.0,0.0,0.0,0.0,0.0,0.0,0.0,0.0,0.0,0.0,0.0,0.0,0.0,0.0,0.0,0.0,0.0,0.0,3.7654,4.001,4.2096,4.3025,4.3445,4.3412,4.2743,4.1309,3.9046,0.0,0.0,0.0,0.0,0.0,0.0,0.0,0.0,0.0,0.0,0.0,0.0,0.0,0.0,0.0,0.0,0.0,0.0,0.0,0.0,0.0,0.0,0.0,0.0,0.0,0.0,0.0,0.0,0.0,0.0,0.0,0.0,0.0,0.0,0.0,0.0,0.0,0.0,3.3574,3.6159,0.0,0.0,0.0,0.0,0.0,0.0,0.0,0.0,3.9061,0.0,0.0,0.0,0.0,0.0,0.0,0.0,0.0,0.0,0.0,0.0,0.0,0.0,0.0,0.0,0.0,0.0,0.0,0.0,0.0,0.0,0.0,0.0,0.0,0.0,0.0,0.0,0.0,0.0,0.0,0.0,0.0,0.0,0.0,0.0,0.0,0.0,0.0,0.0,0.0,0.0,0.0,0.0,0.0,0.0,0.0,0.0,0.0,0.0,0.0,0.0,0.0,0.0,0.0,0.0,0.0,3.5004,3.805,4.0427,4.2029,4.2938,4.3412,4.3375,4.2693,4.1266,3.8988,0.0,0.0,0.0,0.0,0.0,0.0,0.0,0.0,0.0,0.0,0.0,0.0,0.0,0.0,0.0,0.0,0.0,0.0,0.0,0.0,0.0,0.0,0.0,0.0,0.0,0.0,0.0,0.0,0.0,0.0,0.0,0.0,0.0,0.0,0.0,0.0,0.0,0.0,0.0,3.8047,3.9069,0.0,0.0,0.0,0.0,0.0,0.0,0.0,0.0,4.0863,0.0,0.0,0.0,0.0,0.0,0.0,0.0,0.0,0.0,0.0,0.0,0.0,0.0,0.0,0.0,0.0,0.0,0.0,0.0,0.0,0.0,0.0,0.0,0.0,0.0,0.0,0.0,0.0,0.0,0.0,0.0,0.0,0.0,0.0,0.0,0.0,0.0,0.0,0.0,0.0,0.0,0.0,0.0,0.0,0.0,0.0,0.0,0.0,0.0,0.0,0.0,0.0,0.0,0.0,0.0,3.6135,3.8528,4.0656,4.254,4.3122,4.3376,4.3286,4.2658,4.1181,0.0,0.0,0.0,0.0,0.0,0.0,0.0,0.0,0.0,0.0,0.0,0.0,0.0,0.0,0.0,0.0,0.0,0.0,0.0,0.0,0.0,0.0,0.0,0.0,0.0,0.0,0.0,0.0,0.0,0.0,0.0,0.0,0.0,0.0,0.0,0.0,0.0,0.0,0.0,0.0,3.975,4.0921,4.2757,0.0,0.0,0.0,0.0,0.0,0.0,4.2555,4.2048,0.0,0.0,0.0,0.0,0.0,0.0,0.0,0.0,0.0,0.0,0.0,0.0,0.0,0.0,0.0,0.0,0.0,0.0,0.0,0.0,0.0,0.0,0.0,0.0,0.0,0.0,0.0,0.0,0.0,0.0,0.0,0.0,0.0,0.0,0.0,0.0,0.0,0.0,0.0,0.0,0.0,0.0,0.0,0.0,0.0,0.0,0.0,0.0,0.0,0.0,0.0,0.0,0.0,0.0,0.0,3.715,3.9011,4.0924,4.2977,4.3196,4.3233,4.3178,4.246,4.0965,0.0,0.0,0.0,0.0,0.0,0.0,0.0,0.0,0.0,0.0,0.0,0.0,0.0,0.0,0.0,0.0,0.0,0.0,0.0,0.0,0.0,0.0,0.0,0.0,0.0,0.0,0.0,0.0,0.0,0.0,0.0,0.0,0.0,0.0,0.0,0.0,0.0,0.0,0.0,0.0,0.0,4.281,4.4248,4.4602,0.0,0.0,0.0,0.0,4.4571,4.4268,0.0,0.0,0.0,0.0,0.0,0.0,0.0,0.0,0.0,0.0,0.0,0.0,0.0,0.0,0.0,0.0,0.0,0.0,0.0,0.0,0.0,0.0,0.0,0.0,0.0,0.0,0.0,0.0,0.0,0.0,0.0,0.0,0.0,0.0,0.0,0.0,0.0,0.0,0.0,0.0,0.0,0.0,0.0,0.0,0.0,0.0,0.0,0.0,0.0,0.0,0.0,0.0,0.0,0.0,0.0,0.0,3.6775,3.957,4.1564,4.2596,4.2749,4.2918,4.3068,4.1771,4.0313,0.0,0.0,0.0,0.0,0.0,0.0,0.0,0.0,0.0,0.0,0.0,0.0,0.0,0.0,0.0,0.0,0.0,0.0,0.0,0.0,0.0,0.0,0.0,0.0,0.0,0.0,0.0,0.0,0.0,0.0,0.0,0.0,0.0,0.0,0.0,0.0,0.0,0.0,0.0,0.0,0.0,4.3929,4.6077,4.6397,4.6397,0.0,0.0,4.8439,4.6986,4.8113,0.0,0.0,0.0,0.0,0.0,0.0,0.0,0.0,0.0,0.0,0.0,0.0,0.0,0.0,0.0,0.0,0.0,0.0,0.0,0.0,0.0,0.0,0.0,0.0,0.0,0.0,0.0,0.0,0.0,0.0,0.0,0.0,0.0,0.0,0.0,0.0,0.0,0.0,0.0,0.0,0.0,0.0,0.0,0.0,0.0,0.0,0.0,0.0,0.0,0.0,0.0,0.0,0.0,0.0,0.0,3.5027,3.7306,3.9852,4.1646,4.2616,4.271,4.2825,4.3104,4.1681,4.0191,0.0,0.0,0.0,0.0,0.0,0.0,0.0,0.0,0.0,0.0,0.0,0.0,0.0,0.0,0.0,0.0,0.0,0.0,0.0,0.0,0.0,0.0,0.0,0.0,0.0,0.0,0.0,0.0,0.0,0.0,0.0,0.0,0.0,0.0,0.0,0.0,0.0,0.0,0.0,0.0,0.0,0.0,4.674,4.7396,0.0,0.0,0.0,4.9366,4.9205,0.0,0.0,0.0,0.0,0.0,0.0,0.0,0.0,0.0,0.0,0.0,0.0,0.0,0.0,0.0,0.0,0.0,0.0,0.0,0.0,0.0,0.0,0.0,0.0,0.0,0.0,0.0,0.0,0.0,0.0,0.0,0.0,0.0,0.0,0.0,0.0,0.0,0.0,0.0,0.0,0.0,0.0,0.0,0.0,0.0,0.0,0.0,0.0,0.0,0.0,0.0,0.0,0.0,0.0,0.0,0.0,0.0,3.7595,3.9937,4.1584,4.2518,4.2537,4.271,4.3012,4.1811,0.0,0.0,0.0,0.0,0.0,0.0,0.0,0.0,0.0,0.0,0.0,0.0,0.0,0.0,0.0,0.0,0.0,0.0,0.0,0.0,0.0,0.0,0.0,0.0,0.0,0.0,0.0,3.2136,0.0,0.0,0.0,0.0,0.0,0.0,0.0,0.0,0.0,0.0,0.0,0.0,0.0,0.0,4.56,4.7614,4.8649,4.9632,0.0,0.0,5.0586,5.1199,5.0565,4.96,0.0,0.0,0.0,0.0,0.0,0.0,0.0,0.0,0.0,0.0,0.0,0.0,0.0,0.0,0.0,0.0,0.0,0.0,0.0,0.0,0.0,0.0,0.0,0.0,0.0,0.0,0.0,0.0,0.0,0.0,0.0,0.0,0.0,0.0,0.0,0.0,0.0,0.0,0.0,0.0,0.0,0.0,0.0,0.0,0.0,0.0,0.0,0.0,0.0,0.0,0.0,0.0,0.0,0.0,3.5597,3.7161,3.9826,4.1499,4.2107,4.2163,4.2374,4.2882,4.2196,4.1157,0.0,0.0,0.0,0.0,0.0,0.0,0.0,0.0,0.0,0.0,0.0,0.0,0.0,0.0,0.0,0.0,0.0,0.0,0.0,0.0,0.0,0.0,0.0,0.0,0.0,0.0,0.0,0.0,0.0,0.0,0.0,0.0,0.0,0.0,0.0,0.0,0.0,0.0,0.0,0.0,0.0,4.762,4.9262,5.0496,5.1387,0.0,5.2984,5.3486,5.2857,5.3584,5.3207,5.0145,0.0,0.0,0.0,0.0,0.0,0.0,0.0,0.0,0.0,0.0,0.0,0.0,0.0,0.0,0.0,0.0,0.0,0.0,0.0,0.0,0.0,0.0,0.0,0.0,0.0,0.0,0.0,0.0,0.0,0.0,0.0,0.0,0.0,0.0,0.0,0.0,0.0,0.0,0.0,0.0,0.0,0.0,0.0,0.0,0.0,0.0,0.0,0.0,0.0,0.0,0.0,0.0,0.0,3.5638,3.7591,3.9943,4.1521,4.2326,4.2682,4.3215,4.3976,4.3623,4.265,0.0,0.0,0.0,0.0,0.0,0.0,0.0,0.0,0.0,0.0,0.0,0.0,0.0,0.0,0.0,0.0,0.0,0.0,0.0,0.0,0.0,0.0,0.0,0.0,0.0,0.0,0.0,0.0,3.8034,3.8995,3.9337,0.0,0.0,0.0,0.0,0.0,0.0,0.0,0.0,0.0,0.0,4.8438,5.0257,5.1363,0.0,0.0,5.3474,5.3592,5.3413,5.3549,5.3192,5.1644,5.0274,0.0,0.0,0.0,0.0,0.0,0.0,0.0,0.0,0.0,0.0,0.0,0.0,0.0,0.0,0.0,0.0,0.0,0.0,0.0,0.0,0.0,0.0,0.0,0.0,0.0,0.0,0.0,0.0,0.0,0.0,0.0,0.0,0.0,0.0,0.0,0.0,0.0,0.0,0.0,0.0,0.0,0.0,0.0,0.0,0.0,0.0,0.0,0.0,0.0,0.0,0.0,0.0,3.5913,3.8055,4.0204,4.1775,4.2754,4.3293,4.3928,4.4621,4.457,4.3754,0.0,0.0,0.0,0.0,0.0,0.0,0.0,0.0,0.0,0.0,0.0,0.0,0.0,0.0,0.0,0.0,0.0,0.0,0.0,0.0,0.0,0.0,0.0,0.0,0.0,0.0,0.0,0.0,3.9546,4.0273,4.0159,0.0,0.0,0.0,0.0,0.0,0.0,0.0,0.0,0.0,0.0,4.9685,5.1295,5.2224,5.3033,5.3923,5.3946,5.3855,5.3856,5.3884,5.3697,5.3046,0.0,0.0,0.0,0.0,0.0,0.0,0.0,0.0,0.0,0.0,0.0,0.0,0.0,0.0,0.0,0.0,0.0,0.0,0.0,0.0,0.0,0.0,0.0,0.0,0.0,0.0,0.0,0.0,0.0,0.0,2.1997,0.0,0.0,0.0,0.0,0.0,0.0,0.0,0.0,0.0,0.0,0.0,0.0,0.0,0.0,0.0,0.0,0.0,0.0,0.0,0.0,0.0,0.0,3.643,3.8481,4.0659,4.2295,4.3378,4.3932,4.433,4.4621,4.4926,4.4333,4.2782,0.0,0.0,0.0,0.0,0.0,0.0,0.0,0.0,0.0,0.0,0.0,0.0,0.0,0.0,0.0,0.0,0.0,0.0,0.0,0.0,0.0,0.0,0.0,0.0,0.0,0.0,3.9605,4.0354,4.0671,0.0,0.0,0.0,0.0,0.0,0.0,0.0,0.0,0.0,0.0,4.9902,5.1489,5.2501,5.3139,5.3711,5.4278,5.4685,5.4778,5.4253,5.5074,5.5451,0.0,0.0,0.0,0.0,0.0,0.0,0.0,0.0,0.0,0.0,0.0,0.0,0.0,0.0,0.0,0.0,0.0,0.0,0.0,0.0,0.0,0.0,0.0,0.0,0.0,0.0,0.0,2.6245,2.7852,0.0,0.0,0.0,0.0,0.0,0.0,0.0,0.0,0.0,0.0,0.0,3.5456,3.5555,0.0,0.0,0.0,0.0,0.0,0.0,0.0,0.0,0.0,0.0,0.0,0.0,3.7042,3.9135,4.1302,4.2834,4.3709,4.437,4.5047,4.5776,4.6154,4.5724,4.4349,0.0,0.0,0.0,0.0,0.0,0.0,0.0,0.0,0.0,0.0,0.0,0.0,0.0,0.0,0.0,0.0,0.0,0.0,0.0,0.0,0.0,0.0,0.0,0.0,0.0,3.9368,0.0,0.0,0.0,0.0,0.0,0.0,0.0,0.0,0.0,0.0,0.0,4.7507,4.9505,5.0688,5.1802,5.2861,5.376,5.4293,0.0,0.0,0.0,0.0,0.0,0.0,0.0,0.0,0.0,0.0,0.0,0.0,0.0,0.0,5.2809,5.0343,5.048,5.1039,5.114,0.0,0.0,0.0,0.0,0.0,0.0,0.0,0.0,0.0,0.0,0.0,0.0,0.0,0.0,2.9966,0.0,3.1112,0.0,0.0,0.0,0.0,0.0,0.0,0.0,0.0,3.6469,3.749,3.7902,3.8188,3.7952,0.0,3.6879,3.5266,0.0,0.0,0.0,0.0,0.0,0.0,0.0,0.0,3.8014,4.0144,4.1989,4.336,4.4182,4.4733,4.5381,4.6045,4.6116,4.595,4.5537,4.3769,4.1975,0.0,0.0,0.0,0.0,0.0,0.0,0.0,0.0,0.0,0.0,0.0,0.0,0.0,0.0,0.0,0.0,0.0,0.0,0.0,0.0,0.0,0.0,0.0,4.0492,0.0,0.0,0.0,0.0,0.0,0.0,0.0,0.0,0.0,4.5837,4.7569,4.9341,5.087,5.1781,5.2603,5.3313,0.0,0.0,0.0,0.0,0.0,0.0,0.0,5.6349,5.6884,5.7288,5.7579,5.7831,5.7868,5.7899,5.7884,0.0,0.0,5.5174,5.4861,5.5108,5.5206,5.517,5.5347,5.6035,5.6927,5.7694,0.0,0.0,0.0,0.0,0.0,0.0,0.0,0.0,3.2833,3.3403,0.0,3.4023,0.0,0.0,0.0,0.0,0.0,3.4367,0.0,0.0,3.9695,4.0896,4.0257,4.1021,4.1089,4.0355,3.9434,3.8986,3.8799,3.6058,0.0,0.0,0.0,0.0,0.0,0.0,3.9368,4.1384,4.2719,4.3864,4.4742,4.5081,4.5294,4.5381,4.4921,4.5211,4.6233,4.4281,4.3265,4.3617,4.0828,0.0,0.0,0.0,0.0,0.0,0.0,0.0,0.0,0.0,0.0,0.0,0.0,0.0,0.0,0.0,0.0,0.0,0.0,0.0,0.0,4.0666,0.0,0.0,0.0,0.0,0.0,0.0,0.0,0.0,0.0,0.0,4.7365,4.9636,5.159,5.2127,0.0,0.0,0.0,0.0,5.4177,5.4359,5.5357,5.5918,5.5554,5.7275,5.8582,5.815,0.0,0.0,5.8911,5.97,6.0051,5.8977,6.0313,6.1033,5.9076,5.8228,5.7883,5.7686,5.7588,5.7682,5.833,5.9714,6.0887,3.5075,0.0,0.0,0.0,0.0,3.0799,3.2353,3.5225,3.497,3.562,3.692,3.6262,0.0,0.0,0.0,0.0,0.0,0.0,3.7889,3.8734,4.0849,4.1728,4.1626,4.2317,4.2559,4.2413,4.1891,4.1656,4.1719,4.0796,3.8997,3.6443,0.0,0.0,0.0,0.0,4.0442,4.2008,4.336,4.4176,4.4435,4.4625,4.4899,4.5196,4.5217,4.5474,4.5945,4.5341,4.4563,4.3663,4.2432,0.0,0.0,0.0,0.0,0.0,0.0,0.0,0.0,0.0,0.0,0.0,0.0,0.0,0.0,0.0,0.0,0.0,0.0,0.0,3.9441,4.1288,4.2344,0.0,0.0,0.0,0.0,0.0,0.0,0.0,0.0,0.0,4.9111,4.9999,5.1163,0.0,0.0,5.3008,5.3533,5.4035,5.4348,5.4405,5.5267,0.0,5.6638,5.7501,5.8517,5.9707,6.0935,6.1653,6.1343,6.1564,6.1753,6.1499,6.21,6.2421,6.1991,6.1266,6.0654,6.0423,6.0648,6.1145,6.1846,6.2717,6.3366,3.9794,3.7652,3.549,3.4735,3.493,3.4693,3.596,3.8129,3.8051,3.8552,3.9322,3.8875,3.8116,3.7097,3.6731,0.0,0.0,0.0,4.0124,4.0808,4.2221,4.2758,4.2526,4.32,4.3373,4.3147,4.2834,4.2903,4.328,4.3176,4.2244,4.0463,0.0,0.0,3.9477,4.0518,4.1659,4.2974,4.3742,4.4452,4.5085,4.5173,4.5313,4.5563,4.5732,4.5816,4.5811,4.5803,4.5321,4.4312,4.367,4.2568,0.0,0.0,0.0,0.0,0.0,0.0,0.0,0.0,0.0,0.0,0.0,3.4677,3.6107,0.0,0.0,0.0,3.9707,3.996,4.083,4.2141,0.0,0.0,0.0,0.0,0.0,0.0,0.0,4.6576,4.815,4.9402,5.0057,5.0291,5.1049,5.2736,5.2803,5.2978,5.3689,0.0,5.4366,5.475,5.5715,5.668,5.735,5.826,5.9376,6.0885,6.166,6.2236,6.2405,6.2178,6.2131,6.2652,6.2643,6.2581,6.2644,6.2424,6.2214,6.1898,6.195,6.235,6.3156,6.4186,6.5039,4.3764,4.3429,3.9462,3.8107,3.8566,3.9189,4.0183,4.138,4.138,4.1548,4.1752,4.1506,4.1369,4.1297,4.1131,0.0,4.0721,4.1769,4.2279,4.2479,4.3649,4.3726,4.2954,4.3699,4.3699,4.2989,4.2919,4.3276,4.3985,4.3992,4.4279,4.4878,4.2917,4.175,4.149,4.2105,4.298,4.4135,4.4023,4.4693,4.6182,4.6249,4.6219,4.6216,4.6182,4.6025,4.5823,4.5682,4.5505,4.5238,4.4508,4.3752,4.2877,0.0,0.0,0.0,0.0,0.0,0.0,0.0,0.0,0.0,0.0,0.0,0.0,0.0,0.0,0.0,4.2237,0.0,4.2576,4.3091,0.0,0.0,0.0,4.5263,4.626,4.6718,4.7281,4.8118,0.0,0.0,5.0306,5.0516,5.1092,5.2382,5.288,5.3365,5.4089,5.4188,5.4497,5.5163,5.6497,5.7492,5.7853,5.9287,6.054,6.1211,6.1613,6.1752,6.2124,6.1741,6.1739,6.2441,6.2207,6.1829,6.1844,6.2395,6.2759,6.2427,6.21,6.207,6.2988,6.4453,6.5805,4.5284,4.5152,4.3558,4.2365,4.1413,4.1077,4.111,4.1409,4.1413,4.1423,4.1502,4.1418,4.1394,4.1387,4.1451,4.1393,4.1372,4.1732,4.1942,4.2003,4.2846,4.3109,4.2919,4.3541,4.3809,4.3788,4.4327,4.4754,4.5037,4.5156,4.5534,4.5992,4.5014,4.4176,4.3581,4.3489,4.3852,4.4727,4.4577,4.4917,4.5654,4.5594,4.5596,4.5656,4.5158,4.5149,4.5666,4.4693,4.4352,4.4808,4.4451,4.3855,4.2941,4.1622,0.0,0.0,0.0,0.0,0.0,0.0,0.0,0.0,0.0,3.7832,3.9471,0.0,4.1729,0.0,4.3252,4.3273,4.2383,4.3806,0.0,0.0,4.5965,4.6625,4.6883,4.7691,4.8309,4.839,4.9237,4.9816,4.9935,5.0398,5.087,5.1272,5.2436,5.3039,5.2489,5.399,5.5005,5.4999,5.6002,5.7157,5.8185,5.9295,6.0154,6.0279,6.0383,6.0455,6.0763,6.0917,6.0958,6.1142,6.1558,6.1721,6.1394,6.223,6.3001,6.297,6.2971,6.3179,6.3654,6.4515,6.5313,4.5563,4.553,4.5166,4.4476,4.3685,4.2778,4.2539,4.2833,4.2535,4.2568,4.2866,4.2477,4.2286,4.2315,4.2286,4.2286,4.2282,4.2484,4.2575,4.2551,4.3307,4.3668,4.3735,4.4194,4.436,4.4178,4.4848,4.5078,4.49,4.5745,4.6374,4.665,4.6583,4.6182,4.5481,4.4993,4.5072,4.5649,4.5854,4.5925,4.5928,4.6159,4.6323,4.6388,4.5994,4.5665,4.553,4.477,4.4243,4.4012,4.3823,4.3485,4.294,4.1966,4.1055,0.0,0.0,0.0,0.0,0.0,0.0,0.0,0.0,0.0,0.0,0.0,4.3202,4.3602,4.4351,4.4565,4.3775,4.4737,4.5546,4.601,4.6527,4.7169,4.7878,4.8397,4.8816,4.9034,4.9556,4.9747,4.932,4.996,5.0339,4.994,5.1482,5.2605,5.2427,5.3672,5.4722,5.4923,5.5995,5.7285,5.8554,5.9381,5.9928,6.009,6.0205,6.0458,6.0923,6.0686,6.0625,6.1253,6.163,6.1907,6.1998,6.2764,6.353,6.3703,6.3822,6.3944,6.4032,6.4632,6.5413,4.5473,4.557,4.5407,4.5375,4.5373,4.4245,4.4167,4.4726,4.4098,4.4197,4.4726,4.3979,4.3622,4.3622,4.3371,4.3213,4.3244,4.3388,4.3416,4.3331,4.405,4.4443,4.4478,4.4852,4.4755,4.4325,4.495,4.4885,4.433,4.5893,4.6714,4.6781,4.7342,4.7342,4.6781,4.6313,4.6248,4.6585,4.7143,4.7175,4.652,4.7109,4.7403,4.7436,4.7338,4.6716,4.5571,4.5342,4.4687,4.3542,4.3379,4.3252,4.3096,4.2157,4.1663,0.0,4.0053,0.0,0.0,0.0,0.0,0.0,0.0,0.0,0.0,4.3588,4.4382,4.4657,4.5474,4.5897,4.5781,4.58,4.616,4.6889,4.6859,4.7369,4.8745,4.8798,4.8943,4.9482,4.9482,4.9157,4.8685,4.9285,4.9467,4.8921,5.0255,5.1671,5.2376,5.3216,5.4095,5.4884,5.6167,5.7433,5.8539,5.9283,5.974,6.0018,6.0191,6.0684,6.1186,6.058,6.0381,6.1614,6.1703,6.1815,6.2701,6.3346,6.3898,6.4118,6.4322,6.4389,6.4317,6.4769,6.5707,4.6471,4.6978,4.5923,4.5763,4.6127,4.5146,4.4916,4.5175,4.5136,4.5169,4.5175,4.5012,4.4946,4.4882,4.4166,4.3842,4.3778,4.3129,4.2711,4.2587,4.317,4.333,4.3262,4.3667,4.3854,4.3827,4.4905,4.5365,4.5236,4.583,4.6286,4.6534,4.5943,4.5805,4.615,0.0,0.0,0.0,4.6977,4.7202,4.7071,4.7033,4.6996,4.703,4.6411,0.0,4.6575,4.5536,4.5016,4.5275,4.4887,0.0,0.0,0.0,0.0,0.0,0.0,0.0,0.0,0.0,0.0,0.0,4.3371,4.36,4.3845,4.4724,4.5349,4.5595,4.5966,4.6352,4.6645,4.6962,4.7242,4.752,4.7981,4.8238,4.8201,4.8542,4.8838,4.8724,4.8308,4.8159,4.8395,4.8312,4.8291,4.8736,4.931,4.9885,5.0759,5.2575,5.3777,5.381,5.5481,5.7107,5.7935,5.8374,5.8609,5.8693,5.8693,5.8956,5.9276,5.9475,5.947,6.026,6.0739,6.1246,6.1508,6.2428,6.3296,6.3313,6.3936,6.4573,6.4774,6.4959,6.5299,4.6734,0.0,4.6076,4.5762,0.0,4.5546,4.5486,4.5456,4.531,4.5211,4.5147,4.5049,4.4952,4.4854,4.4333,4.4041,4.3943,4.3457,4.3133,4.3,4.3498,4.3778,4.3809,4.4086,4.41,4.3894,4.4697,4.489,4.4575,4.5214,4.5639,4.5809,4.5317,4.5246,4.5551,4.5551,4.5968,4.678,4.6869,4.6961,4.703,4.6858,4.6789,4.6756,4.6366,0.0,0.0,0.0,0.0,0.0,0.0,0.0,0.0,0.0,0.0,4.3744,4.3358,4.2969,4.2703,4.2819,4.3308,4.4131,4.4991,4.5379,4.5221,4.578,4.6123,4.5992,4.6638,4.708,4.7051,4.734,4.7614,4.7607,4.7786,4.7779,4.7672,4.7953,4.82,4.8061,4.7906,4.7754,4.7675,4.7809,4.7806,4.7917,4.8346,4.8908,4.9701,5.154,5.3012,5.3735,5.4951,5.6164,5.6703,5.708,5.7421,5.7657,5.788,5.8065,5.816,5.8654,5.9036,5.9428,6.0261,6.1007,6.1531,6.2365,6.3079,6.3422,6.3866,6.4354,6.4676,6.4868,6.5158,4.6516,4.6174,4.6059,4.5718,4.5372,4.5788,4.594,4.5719,0.0,0.0,0.0,4.5045,4.4943,4.4775,4.4477,4.4243,4.404,4.391,4.3743,4.3602,4.4118,4.4365,4.4499,4.4713,4.4527,4.4105,4.437,4.4257,4.3697,4.4489,4.4849,4.4849,4.4898,4.4922,4.4998,4.4733,4.5272,4.6617,4.6442,4.6372,4.6547,4.6407,4.6369,4.6497,4.6529,4.6234,4.5642,4.5575,4.5257,4.4692,4.4626,4.4495,4.44,4.4334,4.423,4.3917,4.3741,4.3457,4.3025,4.3494,4.412,4.4841,4.6001,4.655,4.6295,4.6615,4.6701,4.6294,4.7155,4.7641,4.7495,4.7514,4.7587,4.7504,4.7241,4.7091,4.7133,4.7313,4.7484,4.7433,4.7513,4.7449,4.6961,4.7306,4.7538,4.7146,4.7672,4.8472,4.9277,5.0724,5.2339,5.3844,5.4699,5.5232,5.5717,5.6307,5.6565,5.7131,5.7478,5.7688,5.7816,5.8198,5.8704,5.8961,5.9836,6.0709,6.1649,6.231,6.3,6.3692,6.39,6.3965,6.4224,6.4483,6.4711,4.5829,4.6309,4.5789,4.5839,4.6195,4.6116,4.6043,4.6028,4.608,4.6115,4.6115,4.6115,4.601,4.5837,4.5196,4.477,4.4563,4.3927,4.357,4.3458,4.3939,4.3998,4.3698,4.4151,4.4274,4.4029,4.4236,4.4274,4.4213,4.409,4.4004,4.3862,4.4058,4.4298,4.4588,4.4777,4.4863,4.4918,4.4999,4.5147,4.5332,4.5332,4.5577,4.6141,4.6172,4.6416,4.6809,4.6586,4.6459,4.6355,4.6181,4.5782,4.5008,4.4945,4.4645,4.3968,4.3854,4.3585,4.3069,4.3549,4.4269,4.5076,4.5873,4.6329,4.6533,4.6622,4.683,4.7199,4.7148,4.7381,4.8228,4.7689,4.7362,4.7572,4.7173,4.6824,4.6866,4.6894,4.6889,4.687,4.646,4.6466,4.6718,4.6524,4.6616,4.7111,4.7726,4.8601,4.9784,5.0734,5.1777,5.3059,5.419,5.5042,5.5609,5.6513,5.6821,5.7092,5.7367,5.7587,5.7642,5.7971,5.8262,5.8325,5.9177,5.9954,6.0726,6.1528,6.2323,6.2981,6.3254,6.3479,6.361,6.3479,6.3647,4.5973,4.5938,4.5645,4.552,4.5451,4.5533,4.5748,4.5901,4.5641,4.5708,4.6008,4.5905,4.576,4.5578,4.5263,4.5217,4.5346,4.4886,4.4794,4.4946,4.5064,4.4986,4.4822,4.4908,4.4758,4.4376,4.4187,4.3967,4.3626,4.3728,4.3747,4.3686,4.4022,4.4192,4.4204,4.4204,4.4045,4.3688,4.4195,4.4586,4.4774,4.4662,4.4925,4.5573,4.5603,4.5834,4.6383,4.6303,4.6076,4.5712,4.5603,4.5218,4.4496,4.4434,4.4167,4.3615,4.3457,4.3359,4.3148,4.3952,4.4529,4.4835,4.5718,4.6268,4.6343,4.6796,4.7139,4.7356,4.7712,4.8054,4.8075,4.778,4.7526,4.7257,4.6836,4.6545,4.6449,4.6511,4.6482,4.6283,4.6203,4.6256,4.6491,4.6254,4.6364,4.7101,4.7861,4.8872,4.9812,5.0549,5.1416,5.2507,5.3392,5.4113,5.4808,5.5374,5.593,5.6359,5.6515,5.6751,5.7201,5.7574,5.7715,5.7944,5.8602,5.9281,5.9957,6.083,6.1641,6.2296,6.2811,6.3122,6.3282,6.315,6.3319,4.6138,4.5668,4.5668,4.5375,4.4918,4.5238,4.5484,4.5684,4.5173,4.5131,4.531,4.5272,4.5204,4.5017,4.5055,4.5315,4.5681,4.554,4.5721,4.6173,4.6001,4.5879,4.5798,4.5634,4.524,4.4678,4.4281,4.3879,4.3464,4.3702,4.386,4.3994,4.4294,4.4355,4.4182,4.4008,4.3647,4.3224,4.3745,4.4074,4.4043,4.3888,4.4174,4.4921,4.4911,4.5182,4.5758,4.5777,4.5518,4.5051,4.4991,4.4589,4.3807,4.3897,4.3638,4.3,4.2847,4.2943,4.3238,4.408,4.4653,4.476,4.5648,4.6279,4.6357,4.7079,4.7508,4.7468,4.7988,4.819,4.7872,4.7661,4.7518,4.6975,4.6648,4.6418,4.6181,4.627,4.6313,4.6062,4.6144,4.6276,4.6326,4.6426,4.6778,4.7481,4.836,4.9138,4.978,5.0464,5.1314,5.2143,5.2723,5.3307,5.3948,5.459,5.5194,5.583,5.5905,5.6279,5.6771,5.6966,5.7034,5.733,5.8017,5.8815,5.9478,6.0505,6.1435,6.2146,6.2661,6.2914,6.2886,6.2886,6.2924,4.5956,4.5898,4.584,4.5869,4.571,4.5798,4.5704,4.5529,4.5275,4.4743,4.4197,4.4511,4.4564,4.4419,4.4564,4.4895,4.5345,4.5148,4.5424,4.589,4.592,4.5798,4.5695,4.5447,4.5221,4.4923,4.4672,4.4415,4.4297,4.4275,4.4412,4.4734,4.4807,4.4836,4.4792,4.4748,4.437,4.3545,4.3589,4.3309,4.2655,4.2596,4.3143,4.4347,4.4163,4.4588,4.574,4.5618,4.5506,4.5416,4.5169,4.4526,4.3512,4.3835,4.3394,4.1833,4.2109,4.251,4.2918,4.3376,4.4234,4.5439,4.5695,4.6158,4.6814,4.7472,4.7883,4.7766,4.7264,4.7477,4.8176,4.7373,4.6893,4.718,4.676,4.646,4.6405,4.6385,4.6382,4.626,4.625,4.6326,4.6351,4.6728,4.7456,4.841,4.9088,4.9741,5.0368,5.0911,5.1531,5.211,5.2664,5.3196,5.3771,5.4656,5.5284,5.5815,5.6153,5.6422,5.653,5.6478,5.6263,5.6804,5.7412,5.8489,5.9418,6.0539,6.1622,6.2277,6.2613,6.2715,6.222,6.2125,6.2392,4.5504,4.564,4.5504,4.5413,4.5401,4.5441,4.537,4.5194,4.4807,4.4371,4.4123,4.4187,4.4007,4.3723,4.4195,4.4677,4.5139,4.5687,4.609,4.632,4.6431,4.6471,4.6343,4.5798,4.5361,4.4849,4.4341,4.4051,4.4066,4.4385,4.4909,4.5446,4.5459,4.5444,4.5236,4.5101,4.4604,4.3735,4.3706,4.3367,4.2812,4.2825,4.3301,4.4079,4.415,4.4464,4.5269,4.5321,4.5096,4.476,4.4613,4.4165,4.3229,4.3474,4.3286,4.2524,4.2906,4.3182,4.3285,4.405,4.4837,4.5439,4.6172,4.6756,4.7108,4.7674,4.7913,4.7612,4.7483,4.7592,4.7479,4.6975,4.6753,4.6987,4.6882,4.6714,4.667,4.6628,4.6552,4.6336,4.6326,4.6326,4.6426,4.7054,4.8008,4.9038,4.9741,5.0368,5.1222,5.1624,5.1975,5.2452,5.2783,5.3123,5.358,5.4106,5.4928,5.5787,5.594,5.5987,5.6777,5.6542,5.6372,5.6545,5.7408,5.8247,5.9028,6.0331,6.1612,6.2107,6.2641,6.2648,6.1951,6.1519,6.1383,4.523,4.5367,4.5155,4.511,4.511,4.511,4.5092,4.4989,4.4562,4.4231,4.4003,4.3843,4.3573,4.3337,4.4061,4.4578,4.4891,4.5973,4.6461,4.6479,4.6734,4.6887,4.6756,4.6061,4.5441,4.4976,4.4243,4.3851,4.384,4.4257,4.4924,4.5656,4.5504,4.5367,4.5276,4.5092,4.4681,4.4054,4.4043,4.3817,4.3421,4.3454,4.3731,4.4032,4.4015,4.43,4.4879,4.4908,4.4709,4.43,4.4226,4.3942,4.3345,4.3414,4.3442,4.3239,4.3704,4.386,4.3658,4.4855,4.5661,4.5886,4.6869,4.7443,4.7466,4.7889,4.7861,4.7155,4.7311,4.7213,4.6948,4.6807,4.6866,4.6953,4.6992,4.6964,4.6789,4.6806,4.6661,4.6386,4.6326,4.6451,4.6803,4.7581,4.856,4.9615,5.0318,5.0971,5.1875,5.2201,5.2477,5.2854,5.2904,5.3042,5.3435,5.3886,5.4689,5.5572,5.5814,5.6158,5.6935,5.6678,5.6314,5.6357,5.733,5.8051,5.8604,5.9894,6.142,6.1702,6.2208,6.2648,6.2287,6.1546,6.1275,4.511,4.511,4.5138,4.5064,4.5064,4.5064,4.4954,4.4751,4.4741,4.4263,4.3628,4.3561,4.3302,4.2978,4.4206,4.4585,4.4299,4.5597,4.6152,4.604,4.6591,4.68,4.6535,4.5866,4.5429,4.5087,4.4181,4.4013,4.445,4.4022,4.4294,4.5367,4.4602,4.4369,4.4723,4.4751,4.463,4.4312,4.447,4.4545,4.4331,4.4284,4.4114,4.3874,4.368,4.3853,4.4359,4.4472,4.4397,4.4387,4.4359,4.4059,4.3582,4.4021,4.391,4.3361,4.3938,4.4275,4.4255,4.5461,4.6504,4.7066,4.769,4.7973,4.7768,4.8157,4.7866,4.657,4.635,4.6372,4.6619,4.6647,4.6817,4.7059,4.7129,4.7002,4.678,4.6626,4.6626,4.6326,4.623,4.6656,4.762,4.836,4.9124,5.0077,5.087,5.1473,5.2051,5.2578,5.2829,5.281,5.2929,5.3067,5.346,5.3681,5.4497,5.5388,5.5872,5.6348,5.6487,5.6522,5.6233,5.6175,5.6991,5.7716,5.8185,5.9278,6.0891,6.1706,6.2175,6.2381,6.2448,6.2153,6.1816,4.4537,4.4397,4.4583,4.449,4.4181,4.435,4.4256,4.4068,4.404,4.3882,4.3621,4.3565,4.3231,4.2795,4.3998,4.434,4.4046,4.495,4.5361,4.5391,4.577,4.5792,4.5293,4.4294,4.3776,4.3634,4.2943,4.2867,4.3444,4.3539,4.3729,4.389,4.3654,4.3586,4.3757,4.3757,4.3804,4.3899,4.4162,4.4237,4.419,4.4303,4.4238,4.3948,4.4041,4.4172,4.4397,4.4209,4.4143,4.4115,4.3974,4.3815,4.3621,4.3787,4.4057,4.4327,4.4618,4.4973,4.5545,4.6708,4.7544,4.7774,4.8518,4.8739,4.8377,4.8219,4.7645,4.6473,4.6332,4.6257,4.573,4.5816,4.6028,4.627,4.6276,4.624,4.5939,4.5817,4.5757,4.5746,4.5932,4.6576,4.7643,4.849,4.9392,5.0414,5.1289,5.1908,5.2477,5.276,5.2861,5.2861,5.2929,5.3055,5.357,5.3438,5.3778,5.4791,5.5504,5.6136,5.6449,5.6452,5.6219,5.6771,5.7309,5.7742,5.8377,5.9326,6.0797,6.137,6.1844,6.218,6.2543,6.2153,6.2018,4.4021,4.3832,4.3974,4.3832,4.3519,4.3594,4.3546,4.3375,4.3375,4.3423,4.3471,4.3519,4.3251,4.2995,4.3396,4.3686,4.3747,4.4477,4.4697,4.4448,4.4824,4.4759,4.4247,4.3252,4.2749,4.2604,4.1819,4.1769,4.2333,4.2528,4.2722,4.2937,4.2647,4.2577,4.2701,4.2701,4.2895,4.3232,4.3664,4.391,4.3935,4.4311,4.4358,4.4049,4.4162,4.4209,4.4162,4.3974,4.3879,4.3804,4.3709,4.3491,4.3375,4.352,4.387,4.4456,4.4918,4.5536,4.6473,4.7549,4.8192,4.8443,4.8939,4.9089,4.8381,4.7989,4.7171,4.627,4.5893,4.5723,4.5385,4.5278,4.5413,4.566,4.5784,4.5822,4.5576,4.5429,4.5429,4.5675,4.6265,4.6978,4.7666,4.8574,4.9496,5.0412,5.1277,5.1961,5.2573,5.2723,5.2798,5.2923,5.2928,5.3273,5.3623,5.3648,5.4009,5.492,5.5502,5.6014,5.6451,5.636,5.6512,5.7146,5.7704,5.807,5.8726,5.9654,6.0246,6.0824,6.1275,6.1614,6.1884,6.2153,6.2153,4.3471,4.3335,4.3335,4.3307,4.3211,4.3018,4.2922,4.2873,4.2873,4.297,4.3163,4.3259,4.3136,4.3026,4.2481,4.2474,4.3156,4.392,4.4021,4.3546,4.3733,4.3776,4.3491,4.2846,4.2382,4.2159,4.1322,4.1172,4.1568,4.1121,4.1322,4.199,4.1395,4.1322,4.1696,4.1799,4.2047,4.2597,4.3296,4.3666,4.3732,4.4346,4.4422,4.397,4.3962,4.384,4.3566,4.3566,4.3566,4.3566,4.3546,4.3328,4.3015,4.3323,4.3625,4.3768,4.4729,4.5853,4.6818,4.7631,4.8236,4.8812,4.9036,4.8613,4.7819,4.7412,4.679,4.586,4.5269,4.5024,4.54,4.5358,4.5275,4.5343,4.5772,4.6017,4.5919,4.5638,4.5515,4.6066,4.6876,4.7577,4.7896,4.8657,4.9583,5.0124,5.0807,5.1462,5.2208,5.2427,5.265,5.2948,5.3147,5.3396,5.3719,5.4042,5.4627,5.5143,5.5551,5.6035,5.6407,5.6545,5.647,5.6951,5.7258,5.7625,5.842,5.9202,5.9578,6.0135,6.0522,6.107,6.1411,6.1749,6.222,4.297,4.2803,4.2949,4.2776,4.2506,4.2582,4.2533,4.2338,4.2311,4.2387,4.2484,4.2484,4.2387,4.2213,4.1879,4.1856,4.1918,4.2088,4.2372,4.289,4.2903,4.2674,4.2213,4.1571,4.1071,4.082,4.0516,4.0516,4.0744,4.0593,4.0694,4.0719,4.0516,4.0542,4.0897,4.1207,4.167,4.2229,4.3035,4.3397,4.3416,4.3829,4.3718,4.3107,4.3323,4.3133,4.2413,4.3018,4.3184,4.2895,4.303,4.3038,4.2958,4.3016,4.3409,4.391,4.4124,4.5261,4.6837,4.7082,4.7563,4.8375,4.8376,4.7748,4.71,4.6722,4.613,4.5306,4.4902,4.4936,4.5233,4.5541,4.5637,4.5706,4.5891,4.5988,4.5939,4.5842,4.5948,4.6448,4.6835,4.7174,4.7724,4.8707,4.9615,4.9932,5.0754,5.1624,5.1935,5.2326,5.2643,5.3077,5.3258,5.356,5.4027,5.4299,5.4569,5.5131,5.5519,5.593,5.6374,5.6569,5.6525,5.6656,5.6939,5.7403,5.8101,5.8638,5.9088,5.9438,5.99,6.0453,6.0934,6.1411,6.1884,4.2289,4.2119,4.2266,4.2043,4.1696,4.1845,4.1746,4.1521,4.1471,4.1521,4.162,4.162,4.162,4.1547,4.1448,4.1348,4.1121,4.0896,4.1172,4.1819,4.1792,4.1521,4.1198,4.0643,4.0287,4.0134,3.9981,4.0032,4.0211,4.0211,4.0083,3.9981,4.0131,4.0361,4.0567,4.105,4.154,4.2009,4.2736,4.3154,4.3179,4.3571,4.3516,4.2937,4.301,4.2719,4.1966,4.2498,4.2591,4.2202,4.2198,4.2318,4.2448,4.2548,4.2885,4.3327,4.3738,4.4632,4.6319,4.6451,4.6799,4.7748,4.7477,4.6976,4.6525,4.6155,4.5428,4.4963,4.4849,4.5039,4.5381,4.591,4.6271,4.6511,4.6319,4.615,4.6054,4.6295,4.6463,4.6728,4.6896,4.7233,4.7901,4.8662,4.9592,4.9858,5.0701,5.1446,5.1639,5.2051,5.2487,5.2998,5.3346,5.374,5.4377,5.4574,5.4574,5.5016,5.5407,5.5895,5.6312,5.6309,5.6323,5.6683,5.6969,5.7209,5.7856,5.8212,5.8594,5.8991,5.9342,5.99,6.0453,6.0934,6.1411,4.1498,4.1274,4.1274,4.1147,4.0946,4.0946,4.0846,4.0593,4.0567,4.0744,4.0896,4.0946,4.1021,4.1121,4.092,4.0846,4.0795,4.0542,4.044,4.0542,4.0542,4.0542,4.044,4.0185,4.0083,4.0032,3.9852,3.9774,3.9926,3.9951,3.9772,4.0,4.0402,4.0551,4.0651,4.105,4.1433,4.1752,4.2557,4.2798,4.2626,4.3544,4.3703,4.3101,4.2892,4.2554,4.1957,4.1878,4.1749,4.1411,4.1441,4.1535,4.1752,4.2011,4.2308,4.2464,4.3181,4.4225,4.5317,4.5719,4.628,4.6967,4.65,4.619,4.5974,4.5306,4.484,4.4742,4.4905,4.5285,4.5814,4.6319,4.6824,4.7305,4.7088,4.6704,4.6223,4.692,4.7257,4.7064,4.7257,4.7738,4.8267,4.8912,4.9394,4.9827,5.0451,5.0906,5.1338,5.1797,5.2306,5.2792,5.34,5.3863,5.445,5.4327,5.4325,5.4696,5.5189,5.5606,5.602,5.5993,5.6163,5.6551,5.6912,5.7133,5.7498,5.7856,5.807,5.8284,5.8779,5.9342,5.99,6.0453,6.0934,4.0744,4.072,4.0694,4.0643,4.0593,4.0593,4.0593,4.0517,4.0517,4.0491,4.0593,4.0593,4.0542,4.044,4.0364,4.0185,4.0083,4.0006,3.9903,3.9903,3.9903,3.9903,3.9903,3.9852,3.9852,3.98,3.9799,3.9923,4.0275,4.03,4.0475,4.0902,4.0949,4.0968,4.0935,4.133,4.1494,4.1538,4.2182,4.2604,4.2615,4.2996,4.2899,4.2254,4.2449,4.2116,4.1235,4.0935,4.1214,4.1799,4.1497,4.1489,4.1985,4.2393,4.2609,4.27,4.3127,4.3943,4.4894,4.4754,4.4921,4.5935,4.5428,4.484,4.484,4.4594,4.4409,4.4505,4.4828,4.5381,4.5886,4.6415,4.6944,4.7425,4.7617,4.7593,4.7305,4.7642,4.8026,4.793,4.8002,4.8315,4.882,4.9277,4.9686,4.9926,5.0383,5.0864,5.1367,5.1922,5.2526,5.3083,5.3641,5.3957,5.4199,5.3999,5.4098,5.4447,5.4893,5.5263,5.558,5.5697,5.587,5.6188,5.6399,5.6641,5.7107,5.7523,5.7641,5.7927,5.8497,5.9158,5.9648,6.0108,6.0522,4.0338,4.0338,4.0338,4.0236,4.0211,4.0287,4.0236,4.0134,4.0032,4.0057,4.0108,4.0032,3.9981,3.9929,3.9929,3.9852,3.9697,3.9697,3.9697,3.9697,3.9697,3.9697,3.9697,3.9697,3.9697,3.9747,3.9948,4.0199,4.0501,4.0727,4.1,4.125,4.1393,4.1384,4.127,4.1601,4.1787,4.1805,4.222,4.2481,4.2369,4.2625,4.2501,4.1979,4.2041,4.1731,4.1041,4.0599,4.09,4.1533,4.1355,4.1306,4.2127,4.2379,4.2613,4.2808,4.3141,4.3757,4.4301,4.4063,4.4292,4.4866,4.4594,4.4409,4.4347,4.4285,4.4309,4.4645,4.5101,4.563,4.6199,4.6728,4.7136,4.7497,4.7978,4.8147,4.7858,4.8074,4.8387,4.8531,4.8652,4.882,4.9394,4.9755,4.995,5.0263,5.0744,5.1105,5.1513,5.2187,5.2765,5.3323,5.3637,5.3878,5.3975,5.3849,5.4098,5.4397,5.4942,5.5312,5.5332,5.5496,5.5719,5.594,5.5984,5.6226,5.6768,5.7379,5.7856,5.8212,5.8567,5.9061,5.9621,5.99,6.0342,4.0058,4.0083,4.0159,3.998,3.98,4.0005,4.003,3.9697,3.9542,3.9542,3.9645,3.9413,3.9465,3.9594,3.9667,3.9694,3.9719,3.979,3.9817,3.9817,3.9767,3.9692,3.9692,3.9671,3.9721,3.9846,4.0272,4.0601,4.0877,4.1279,4.1401,4.1652,4.1783,4.1767,4.1756,4.1928,4.2061,4.1923,4.215,4.2174,4.2142,4.2312,4.2263,4.2012,4.168,4.1509,4.1127,4.0829,4.0918,4.1725,4.0942,4.1353,4.2268,4.2238,4.2434,4.2891,4.3349,4.3686,4.3734,4.412,4.4237,4.4409,4.4409,4.4285,4.4285,4.4285,4.4477,4.4933,4.5597,4.6126,4.6728,4.7233,4.7401,4.7545,4.793,4.8171,4.8291,4.8339,4.8555,4.8988,4.9084,4.9421,4.9758,4.9974,5.0143,5.0455,5.096,5.1393,5.1802,5.2403,5.2884,5.3319,5.356,5.3678,5.3726,5.3726,5.405,5.4447,5.509,5.5434,5.5276,5.5343,5.5591,5.5713,5.5735,5.6128,5.67,5.7282,5.7927,5.8452,5.8876,5.9482,6.0039,6.0108,6.0315,3.98,3.9825,4.0253,4.0126,3.9798,4.0201,4.0151,3.9722,3.9594,3.9438,3.9387,3.9335,3.9203,3.9072,3.9519,3.9639,3.9766,4.0038,4.0256,4.0207,3.9812,3.9664,3.9646,3.9688,3.9792,4.004,4.032,4.0953,4.1605,4.1882,4.2208,4.2559,4.2443,4.2476,4.2076,4.2061,4.1826,4.1541,4.1688,4.1859,4.1834,4.2029,4.2029,4.172,4.1459,4.1287,4.123,4.1076,4.1335,4.1683,4.1852,4.2,4.2614,4.2964,4.3168,4.3409,4.3842,4.4093,4.4117,4.4189,4.4285,4.4285,4.4333,4.4285,4.4285,4.4333,4.4549,4.5029,4.5558,4.6295,4.7136,4.7401,4.7497,4.7545,4.7617,4.7858,4.8219,4.8652,4.8916,4.9133,4.9469,4.9902,5.0407,5.0455,5.0576,5.0768,5.1153,5.1634,5.2139,5.2668,5.3101,5.3485,5.3485,5.3654,5.3801,5.3876,5.4249,5.467,5.5312,5.5478,5.5243,5.5089,5.5239,5.5365,5.5465,5.6006,5.6573,5.7354,5.7999,5.8567,5.9158,5.9718,6.0108,6.0177,6.0315,3.9542,3.9592,4.0065,4.0087,3.973,3.9954,3.9929,3.9631,3.9201,3.9198,3.9396,3.9315,3.9357,3.9549,3.982,3.9967,4.0016,4.0237,4.0384,4.0311,4.0065,3.979,3.9565,3.9787,4.0021,3.9989,4.062,4.133,4.1863,4.2268,4.2574,4.288,4.2787,4.2574,4.2454,4.225,4.1962,4.1904,4.1856,4.1874,4.1712,4.1745,4.1745,4.1459,4.1311,4.1268,4.1533,4.1557,4.1966,4.2471,4.2687,4.2784,4.3048,4.3385,4.3601,4.3938,4.413,4.4285,4.4285,4.4285,4.4285,4.4309,4.4501,4.4477,4.4453,4.4501,4.4765,4.5101,4.5582,4.6343,4.7329,4.7497,4.7497,4.7497,4.7497,4.7642,4.7978,4.8603,4.9205,4.9469,4.9926,5.0287,5.06,5.0696,5.072,5.0744,5.1562,5.2043,5.2307,5.2836,5.3365,5.3654,5.3558,5.3582,5.3777,5.4124,5.4473,5.4967,5.546,5.5424,5.5177,5.5005,5.4863,5.4984,5.5035,5.5846,5.6484,5.7286,5.8186,5.892,5.9578,5.9996,6.0342,6.048,6.0549,3.9206,3.9256,3.9801,3.9816,3.9554,3.9701,3.9726,3.95,3.8994,3.9247,3.9541,3.9453,3.9648,4.0147,4.0318,4.0392,4.0514,4.0538,4.0605,4.0581,4.041,4.0032,3.9758,3.9989,4.0202,3.9883,4.0734,4.1441,4.2004,4.2357,4.2761,4.2981,4.2666,4.2676,4.2797,4.2496,4.2321,4.2355,4.2414,4.2171,4.1759,4.1743,4.1571,4.148,4.1446,4.1629,4.2049,4.2217,4.2495,4.3409,4.3505,4.3553,4.3625,4.3673,4.3818,4.4261,4.4261,4.4285,4.4285,4.4285,4.4309,4.4381,4.4765,4.4909,4.4765,4.4861,4.5053,4.5366,4.5838,4.6487,4.7353,4.7497,4.7497,4.7497,4.7497,4.7545,4.7786,4.8507,4.9181,4.9614,5.0095,5.0576,5.0648,5.0696,5.0696,5.0864,5.1706,5.2331,5.2572,5.3004,5.3534,5.3654,5.351,5.3365,5.3536,5.4298,5.4745,5.5041,5.5632,5.5494,5.5193,5.4925,5.4708,5.4477,5.4673,5.5462,5.6351,5.7261,5.8179,5.9245,5.9857,6.0204,6.048,6.0755,6.0755,3.8893,3.8942,3.9508,3.9459,3.9132,3.9893,4.004,3.9697,3.9859,4.0,3.991,3.988,3.9788,3.9951,4.0282,4.0644,4.0918,4.0967,4.1015,4.0942,4.0676,4.0282,4.0209,4.0362,4.0386,4.0466,4.0989,4.1685,4.2438,4.2807,4.2988,4.3407,4.3422,4.3286,4.3183,4.3055,4.2853,4.2793,4.271,4.2528,4.2141,4.1938,4.189,4.1856,4.1798,4.211,4.2554,4.2699,4.2904,4.3433,4.3505,4.377,4.4034,4.4093,4.4165,4.4261,4.4357,4.4381,4.4381,4.4357,4.4611,4.49,4.5077,4.5317,4.5342,4.5269,4.5333,4.5766,4.6223,4.6824,4.7401,4.7497,4.7497,4.7497,4.7521,4.7666,4.8098,4.8652,4.9133,4.9445,5.0119,5.0696,5.0696,5.0696,5.0696,5.096,5.1682,5.2163,5.2403,5.3004,5.3702,5.363,5.3389,5.3245,5.3223,5.4252,5.4942,5.5164,5.5508,5.5616,5.5324,5.4829,5.4577,5.4219,5.4345,5.49,5.5929,5.6892,5.7843,5.8656,5.9455,6.0273,6.048,6.0687,6.0755,3.8725,3.9043,3.9634,3.977,3.9758,4.022,4.0262,4.0019,3.9995,4.0086,4.0144,4.0217,4.033,4.0483,4.0643,4.098,4.1124,4.1196,4.1196,4.11,4.0908,4.0619,4.0499,4.0643,4.0595,4.066,4.1031,4.1745,4.2534,4.2641,4.3066,4.3527,4.3531,4.35,4.354,4.3409,4.3325,4.312,4.3096,4.288,4.2482,4.241,4.2279,4.2086,4.2279,4.2639,4.3048,4.3144,4.3409,4.3818,4.3962,4.4045,4.4189,4.4285,4.4285,4.4309,4.4525,4.4669,4.4765,4.4909,4.5309,4.5477,4.5486,4.5414,4.5414,4.5309,4.5405,4.5886,4.6391,4.692,4.7449,4.7473,4.7497,4.7497,4.7497,4.7762,4.8243,4.8772,4.9109,4.9397,5.0143,5.0624,5.0696,5.0696,5.0696,5.1105,5.1706,5.2043,5.2307,5.3029,5.3822,5.3726,5.3534,5.3485,5.349,5.4252,5.4967,5.5189,5.5433,5.5541,5.5324,5.4895,5.4359,5.3873,5.4182,5.4623,5.498,5.5817,5.6913,5.8063,5.8824,5.9552,6.0204,6.0618,6.0687,3.8819,3.931,3.9722,4.0048,4.021,4.0355,4.0379,4.0331,4.009,4.0242,4.0523,4.0571,4.0787,4.1076,4.1148,4.1172,4.1196,4.1196,4.1196,4.1172,4.1148,4.0908,4.0787,4.086,4.0956,4.0763,4.0965,4.1552,4.2244,4.2521,4.2978,4.3368,4.337,4.3456,4.3675,4.3554,4.3505,4.3505,4.3481,4.3241,4.288,4.2795,4.2639,4.2351,4.2687,4.3144,4.3625,4.3697,4.3866,4.4117,4.4237,4.4285,4.4285,4.4285,4.4285,4.4381,4.4789,4.5005,4.5173,4.5573,4.5838,4.6054,4.5894,4.5678,4.5621,4.5597,4.5525,4.591,4.6415,4.692,4.7401,4.7497,4.7497,4.7497,4.7545,4.7738,4.8315,4.8844,4.9301,4.9734,5.0311,5.0551,5.0648,5.0744,5.0768,5.1225,5.1826,5.2307,5.262,5.3245,5.3798,5.3822,5.3774,5.3774,5.3927,5.435,5.4892,5.5041,5.5334,5.5537,5.5223,5.4859,5.4296,5.3808,5.4156,5.455,5.4628,5.4777,5.5908,5.7035,5.8044,5.8779,5.9385,6.0108,6.0549,3.922,3.9568,3.964,3.9633,3.9826,4.0258,4.0403,4.0475,4.0787,4.1028,4.1028,4.1052,4.11,4.1172,4.1196,4.1196,4.1196,4.1196,4.1196,4.1196,4.1172,4.1148,4.1076,4.1124,4.1148,4.1028,4.1148,4.1543,4.2059,4.2493,4.2999,4.3446,4.359,4.3518,4.3626,4.3686,4.3505,4.3505,4.3529,4.3313,4.2904,4.2891,4.3024,4.3192,4.3409,4.3649,4.4021,4.4069,4.4189,4.4237,4.4285,4.4285,4.4285,4.4285,4.4285,4.4429,4.4741,4.5077,4.5285,4.579,4.6199,4.6367,4.6175,4.6199,4.603,4.5982,4.5886,4.591,4.6439,4.6944,4.7377,4.7473,4.7497,4.7521,4.7593,4.805,4.8628,4.8772,4.9229,4.9734,5.0215,5.0455,5.06,5.072,5.0888,5.1393,5.1898,5.2403,5.2908,5.3461,5.3798,5.3822,5.3822,5.3822,5.4047,5.4496,5.4818,5.4967,5.5234,5.5462,5.5051,5.4708,5.429,5.3978,5.4257,5.4289,5.4209,5.4518,5.5186,5.6093,5.7086,5.7804,5.8418,5.9289,6.0384,3.9628,3.9738,3.9762,4.0042,4.0523,4.0739,4.0836,4.0884,4.1076,4.1196,4.1196,4.1196,4.1196,4.1196,4.1196,4.1196,4.1196,4.1115,4.1196,4.1115,4.1139,4.1196,4.1172,4.1196,4.1196,4.1317,4.1485,4.1725,4.211,4.2519,4.3024,4.3481,4.377,4.377,4.3601,4.3818,4.3746,4.3721,4.3746,4.3697,4.3409,4.3457,4.3601,4.3553,4.3818,4.4021,4.4213,4.4285,4.4285,4.4285,4.4285,4.4285,4.4285,4.4309,4.4381,4.4852,4.5285,4.5573,4.5694,4.6367,4.668,4.6535,4.6247,4.591,4.5958,4.6199,4.6343,4.6391,4.6848,4.7233,4.7425,4.7497,4.7497,4.7545,4.769,4.8147,4.8628,4.882,4.9133,4.9614,5.0095,5.0335,5.0576,5.0792,5.1032,5.1513,5.2018,5.2524,5.298,5.3485,5.3726,5.3822,5.3822,5.3822,5.4047,5.4421,5.4818,5.5016,5.5183,5.5239,5.4829,5.4416,5.4144,5.4144,5.4289,5.4223,5.3979,5.4229,5.4892,5.553,5.6216,5.7061,5.8018,5.9385,6.0315,3.9744,3.9888,3.9921,4.0354,4.0942,4.0942,4.0918,4.0942,4.1,4.1081,4.1081,4.1081,4.1081,4.0966,4.0711,4.0595,4.0884,4.0571,4.0595,4.0653,4.0735,4.0806,4.0983,4.1123,4.1451,4.1581,4.2049,4.2182,4.2351,4.2711,4.3192,4.3529,4.3794,4.3842,4.3721,4.3732,4.3756,4.3577,4.3973,4.3962,4.3673,4.3949,4.3986,4.3986,4.4021,4.4285,4.4285,4.4285,4.4285,4.4285,4.4285,4.4285,4.4285,4.4309,4.4549,4.5044,4.5549,4.5934,4.6271,4.68,4.7161,4.6896,4.6415,4.603,4.5645,4.6199,4.6704,4.6655,4.7136,4.7401,4.7497,4.7497,4.7617,4.7738,4.7882,4.8243,4.8555,4.8772,4.9229,4.9926,5.0287,5.0263,5.0527,5.0816,5.1177,5.1658,5.2139,5.2668,5.3125,5.3582,5.3702,5.3822,5.3822,5.3822,5.4047,5.4347,5.4744,5.5016,5.5181,5.5218,5.4909,5.4592,5.4322,5.4334,5.4456,5.4666,5.4733,5.4619,5.4573,5.4991,5.5557,5.6725,5.7804,5.9175,6.0246,3.9521,3.9814,4.0059,4.0176,4.0281,4.0281,4.0281,4.0397,4.0595,4.0711,4.0653,4.0735,4.0735,4.0479,3.9814,3.9697,4.0165,3.8707,3.8967,3.9344,3.9508,4.007,4.0634,4.1342,4.1851,4.2471,4.2723,4.2687,4.2832,4.3216,4.3457,4.3553,4.3794,4.3649,4.3553,4.3625,4.3746,4.3697,4.4045,4.4082,4.3866,4.3997,4.4213,4.4213,4.4237,4.4285,4.4285,4.4285,4.4285,4.4285,4.4285,4.4285,4.4285,4.4285,4.4573,4.5173,4.5645,4.6126,4.668,4.7112,4.7377,4.7281,4.692,4.6367,4.5982,4.6367,4.668,4.6824,4.7281,4.7449,4.7497,4.7521,4.7666,4.7978,4.8195,4.8531,4.8748,4.8724,4.9277,5.0167,5.0431,5.0311,5.0744,5.1081,5.1465,5.1946,5.2644,5.3173,5.3389,5.375,5.3774,5.3822,5.3822,5.3822,5.3897,5.4272,5.4892,5.509,5.5131,5.5246,5.5214,5.4875,5.4385,5.4789,5.498,5.5282,5.5487,5.5256,5.4967,5.4523,5.5066,5.6507,5.7759,5.9035,5.9969,3.9131,3.8953,3.9426,3.9873,4.0165,4.0165,4.0165,4.0223,4.0339,4.0305,4.0153,4.0188,4.013,3.9896,3.9544,3.9167,3.9203,3.8588,3.8551,3.8812,3.9094,3.9844,4.0716,4.1318,4.1959,4.27,4.3048,4.3216,4.3289,4.3721,4.3901,4.3973,4.3962,4.377,4.3649,4.3601,4.3721,4.3986,4.4141,4.4117,4.4117,4.4117,4.4285,4.4285,4.4285,4.4285,4.4285,4.4285,4.4285,4.4285,4.4285,4.4285,4.4285,4.4285,4.4717,4.539,4.5814,4.6319,4.6992,4.7329,4.7353,4.704,4.68,4.6631,4.6439,4.6896,4.7136,4.7281,4.7353,4.7473,4.7497,4.7521,4.7666,4.8122,4.8507,4.8844,4.906,4.9109,4.9325,5.0215,5.0263,5.0143,5.0768,5.1441,5.185,5.2283,5.3004,5.3582,5.3726,5.3822,5.3822,5.3822,5.3897,5.4047,5.4122,5.457,5.5041,5.5089,5.5179,5.5346,5.539,5.4934,5.4603,5.503,5.5455,5.5635,5.5742,5.5799,5.5557,5.5287,5.5729,5.6678,5.7901,5.9061,5.9691,3.8693,3.8358,3.8812,3.9344,3.9873,3.9931,3.9814,3.9661,3.9882,3.9844,3.9579,3.9405,3.9195,3.8993,3.8178,3.8096,3.7692,3.7292,3.744,3.7648,3.8023,3.8979,4.003,4.086,4.1382,4.2465,4.3055,4.3317,4.3732,4.4117,4.4189,4.4237,4.4261,4.3997,4.3853,4.3794,4.3962,4.4189,4.4285,4.4285,4.4261,4.4285,4.4285,4.4285,4.4285,4.4285,4.4285,4.4285,4.4285,4.4285,4.4285,4.4285,4.4285,4.4429,4.4885,4.5462,4.603,4.6439,4.7185,4.7449,4.7329,4.7136,4.704,4.6968,4.704,4.7281,4.7401,4.7449,4.7473,4.7497,4.7521,4.7666,4.8026,4.8531,4.8748,4.9084,4.9541,4.9734,4.9878,5.0263,5.0215,5.0335,5.0816,5.1562,5.2501,5.2961,5.3542,5.3977,5.3975,5.3972,5.3822,5.3897,5.3948,5.4122,5.4347,5.4868,5.5312,5.5311,5.5403,5.5496,5.544,5.5013,5.5013,5.5537,5.5814,5.5867,5.592,5.5997,5.6047,5.612,5.6631,5.7138,5.8141,5.9158,5.9552,3.8276,3.8298,3.8298,3.8738,3.9236,3.9331,3.8917,3.859,3.9175,3.9293,3.8985,3.8429,3.7968,3.7428,3.6451,3.6199,3.6343,3.5252,3.5147,3.6186,3.6581,3.7108,3.8295,3.9489,4.0608,4.2,4.2471,4.295,4.3855,4.3654,4.3826,4.4037,4.395,4.4113,4.4237,4.4261,4.4261,4.4285,4.4285,4.4285,4.4285,4.4285,4.4285,4.4285,4.4285,4.4285,4.4285,4.4285,4.4285,4.4285,4.4285,4.4285,4.4285,4.4285,4.4789,4.5694,4.5862,4.6439,4.7353,4.7449,4.7425,4.7377,4.7305,4.7329,4.7401,4.7497,4.7497,4.7497,4.7497,4.7497,4.7666,4.793,4.8411,4.8724,4.8916,4.9325,4.9782,5.0191,5.0311,5.0383,5.0551,5.0744,5.1105,5.173,5.2961,5.364,5.4152,5.4322,5.4173,5.4023,5.3822,5.4047,5.4098,5.4421,5.4719,5.5189,5.5509,5.5556,5.5603,5.5794,5.5792,5.5591,5.5717,5.6068,5.6093,5.6043,5.6118,5.6219,5.6365,5.651,5.6946,5.7523,5.8523,5.9158,5.9508,3.7938,3.772,3.8028,3.816,3.8138,3.8055,3.7955,3.792,3.8313,3.8453,3.814,3.7608,3.7358,3.6876,3.5977,3.5438,3.554,3.4921,3.4853,3.5575,3.572,3.7043,3.8102,3.883,3.9713,4.0664,4.129,4.1546,4.1779,4.2184,4.2397,4.2546,4.3326,4.3639,4.4099,4.4285,4.4285,4.4285,4.4285,4.4285,4.4285,4.4285,4.4285,4.4285,4.4285,4.4285,4.4285,4.4285,4.4285,4.4285,4.4285,4.4285,4.4285,4.4285,4.4621,4.5381,4.5669,4.6415,4.7185,4.7497,4.7497,4.7497,4.7497,4.7497,4.7497,4.7497,4.7497,4.7497,4.7497,4.7497,4.7569,4.8002,4.8411,4.8628,4.8916,4.9493,4.9974,5.0335,5.0551,5.0576,5.0696,5.1272,5.1706,5.2018,5.3056,5.3562,5.3975,5.4098,5.4047,5.3972,5.3897,5.4122,5.4421,5.4719,5.509,5.5485,5.5705,5.5778,5.5899,5.602,5.6043,5.587,5.6018,5.6168,5.6194,5.6219,5.6219,5.6292,5.6583,5.6874,5.7235,5.7667,5.8452,5.8947,5.9298,3.718,3.7169,3.7616,3.7646,3.742,3.7629,3.7652,3.753,3.7593,3.7461,3.7244,3.6848,3.6593,3.6292,3.5692,3.5156,3.5224,3.4812,3.4764,3.5425,3.5485,3.6379,3.7357,3.8112,3.8563,3.93,3.9845,4.0105,4.0775,4.0839,4.1505,4.2293,4.257,4.32,4.3725,4.3888,4.395,4.4013,4.4099,4.4161,4.4223,4.4285,4.4285,4.4285,4.4285,4.4285,4.4285,4.4285,4.4285,4.4285,4.4285,4.4285,4.4309,4.4357,4.4573,4.5116,4.5862,4.6583,4.7257,4.7497,4.7497,4.7497,4.7497,4.7497,4.7497,4.7497,4.7497,4.7497,4.7497,4.7642,4.7786,4.8219,4.8603,4.8844,4.9328,4.9904,5.0097,5.0457,5.0577,5.0625,5.0935,5.1585,5.2067,5.2596,5.3099,5.336,5.3648,5.3648,5.3672,5.3747,5.3822,5.4122,5.4421,5.4794,5.5189,5.5632,5.5852,5.5999,5.6072,5.6047,5.6047,5.5874,5.6095,5.6219,5.6219,5.6219,5.6219,5.6365,5.6583,5.6946,5.7307,5.781,5.8381,5.8735,5.9088,3.6143,3.6582,3.6959,3.7129,3.7275,3.7657,3.7719,3.7315,3.6724,3.6483,3.6487,3.619,3.5898,3.5453,3.4929,3.4799,3.4864,3.476,3.4995,3.5269,3.5402,3.5969,3.6253,3.6662,3.7313,3.7868,3.842,3.8861,3.9997,4.0322,4.1184,4.2038,4.2252,4.257,4.2822,4.3012,4.3302,4.3639,4.3826,4.3888,4.4013,4.4223,4.4223,4.4223,4.4223,4.4285,4.4285,4.4285,4.4333,4.4333,4.4333,4.4333,4.4333,4.4333,4.4645,4.5309,4.6223,4.6752,4.7353,4.7473,4.7497,4.7497,4.7497,4.7497,4.7497,4.7497,4.7497,4.7497,4.7497,4.7858,4.8171,4.8584,4.9064,4.9451,5.0002,5.0266,5.0338,5.0458,5.053,5.0744,5.1125,5.1608,5.1969,5.2421,5.2542,5.2254,5.2412,5.2565,5.2717,5.3446,5.3521,5.3897,5.4272,5.4744,5.5115,5.5312,5.5558,5.5558,5.5779,5.5852,5.5852,5.5926,5.5999,5.6146,5.6219,5.6219,5.6219,5.6365,5.6583,5.6946,5.7307,5.781,5.8381,5.8523,5.8735,3.5851,3.6226,3.6483,3.6506,3.634,3.6576,3.6643,3.6703,3.6243,3.6189,3.6499,3.5812,3.5626,3.5742,3.5059,3.5,3.4961,3.4941,3.5039,3.5254,3.5469,3.5703,3.5947,3.6152,3.6403,3.6674,3.7059,3.7441,3.7842,3.8772,3.9299,3.9495,4.1142,4.1421,4.1614,4.1678,4.2483,4.3114,4.3326,4.3514,4.3701,4.3826,4.3888,4.4013,4.4161,4.4223,4.4285,4.4333,4.4453,4.4741,4.4453,4.4429,4.4837,4.4885,4.5149,4.6102,4.6391,4.6487,4.7281,4.7497,4.7497,4.7431,4.7521,4.7497,4.7497,4.7497,4.7497,4.7431,4.7551,4.7796,4.8184,4.8619,4.898,4.934,4.9841,5.0055,5.0198,5.0363,5.0435,5.0865,5.1223,5.1465,5.1842,5.1836,5.1868,5.127,5.1108,5.1316,5.1701,5.2336,5.2816,5.3044,5.3346,5.3596,5.4272,5.4546,5.4868,5.5115,5.5337,5.5558,5.5632,5.5705,5.5926,5.6072,5.6219,5.6219,5.6219,5.6365,5.651,5.7019,5.7451,5.7882,5.8239,5.8381,5.8567,3.5399,3.575,3.6244,3.6316,3.6115,3.6034,3.6132,3.6209,3.606,3.604,3.604,3.5744,3.565,3.5644,3.541,3.5391,3.5586,3.5449,3.5469,3.5586,3.5605,3.5801,3.5976,3.6035,3.6084,3.6084,3.6152,3.6451,3.6654,3.7394,3.8063,3.8925,4.0192,4.0453,4.0712,4.11,4.1742,4.2293,4.2736,4.2949,4.32,4.349,4.3615,4.3826,4.4037,4.4161,4.4357,4.4429,4.4789,4.5101,4.4726,4.4864,4.5111,4.5095,4.5422,4.6138,4.6251,4.649,4.713,4.7431,4.7364,4.7436,4.7599,4.7666,4.7569,4.7497,4.7364,4.7322,4.7495,4.7738,4.8103,4.8442,4.8704,4.899,4.9345,4.9748,5.0032,5.0269,5.0555,5.0938,5.1177,5.1384,5.1503,5.1453,5.1131,5.0588,5.0199,5.002,5.041,5.103,5.1339,5.1647,5.1954,5.2283,5.2944,5.3425,5.3825,5.4223,5.4868,5.509,5.5337,5.5632,5.5852,5.6072,5.6219,5.6219,5.6219,5.6292,5.6438,5.6946,5.7451,5.781,5.8167,5.8452,5.8594,3.4873,3.5335,3.601,3.6296,3.6344,3.6084,3.5947,3.5947,3.5996,3.5781,3.5527,3.5762,3.5684,3.5566,3.5664,3.584,3.5918,3.584,3.5801,3.6016,3.5937,3.5996,3.5996,3.6035,3.6035,3.6035,3.6016,3.6152,3.6219,3.6944,3.7883,3.9012,3.9451,3.9713,3.9844,4.0105,4.0495,4.0862,4.1399,4.1719,4.2822,4.3263,4.3389,4.3639,4.3811,4.4007,4.4376,4.4702,4.5173,4.5238,4.5254,4.5324,4.5314,4.509,4.5421,4.5817,4.6091,4.6484,4.6908,4.7232,4.7394,4.7537,4.7777,4.7892,4.782,4.7729,4.7734,4.7404,4.7528,4.7777,4.8138,4.8518,4.8826,4.9157,4.9558,4.9819,5.0032,5.0317,5.0698,5.0986,5.115,5.1279,5.1001,5.0819,4.9808,4.9584,4.9227,4.889,4.9022,4.9472,5.002,5.0254,5.0565,5.0853,5.1102,5.1692,5.2447,5.31,5.3999,5.4719,5.5041,5.5411,5.5779,5.5999,5.6219,5.6219,5.6219,5.6219,5.6438,5.7091,5.7523,5.781,5.8096,5.8452,5.8523,3.474,3.4916,3.548,3.5734,3.5743,3.5675,3.5606,3.5694,3.5879,3.5781,3.5469,3.5488,3.5508,3.5488,3.584,3.6035,3.6035,3.6035,3.6035,3.6016,3.6035,3.6035,3.6035,3.6035,3.6035,3.6035,3.6035,3.6035,3.6152,3.6674,3.7059,3.7394,3.8196,3.8859,3.8528,3.8726,3.9101,3.9561,3.9757,4.0755,4.2125,4.2696,4.3012,4.3255,4.3498,4.4073,4.4539,4.5047,4.5524,4.5817,4.5531,4.5503,4.5573,4.5024,4.5395,4.6025,4.6045,4.6319,4.6756,4.7194,4.7404,4.7734,4.8021,4.8076,4.8127,4.8198,4.8056,4.7654,4.7587,4.7903,4.8097,4.8451,4.8874,4.9274,4.9723,4.9866,5.008,5.0461,5.0889,5.1009,5.1145,5.0877,5.0588,4.9792,4.8749,4.8143,4.7698,4.7404,4.7347,4.7773,4.8706,4.9022,4.9179,4.945,4.9563,5.0339,5.1278,5.212,5.2953,5.3876,5.4794,5.5485,5.5999,5.6072,5.6219,5.6219,5.6219,5.6219,5.6583,5.7163,5.7523,5.7739,5.8096,5.8452,5.8523,3.4692,3.4813,3.5113,3.5196,3.5196,3.5196,3.5333,3.5538,3.5675,3.5646,3.5488,3.5566,3.5586,3.5508,3.584,3.6035,3.6035,3.6035,3.6035,3.6035,3.6094,3.6035,3.6035,3.6055,3.6035,3.6035,3.6035,3.6035,3.6142,3.6287,3.6539,3.6829,3.7703,3.7904,3.7435,3.7816,3.7996,3.8395,3.8395,3.9451,4.1142,4.1678,4.2379,4.2795,4.3455,4.3991,4.4536,4.5019,4.5562,4.5851,4.5715,4.5525,4.5512,4.5239,4.5489,4.5903,4.5993,4.6033,4.6607,4.7136,4.7484,4.7885,4.8481,4.8653,4.8373,4.842,4.7934,4.7582,4.7671,4.7934,4.7399,4.7516,4.8169,4.8708,4.9298,4.9723,5.034,5.0937,5.1034,5.1026,5.0955,5.0618,5.0068,4.905,4.8201,4.7804,4.7193,4.6753,4.6545,4.6569,4.7352,4.7911,4.815,4.7956,4.7856,4.8984,5.0475,5.1201,5.2102,5.3702,5.509,5.5705,5.6219,5.6219,5.6219,5.6219,5.6219,5.6219,5.6583,5.7235,5.7451,5.7667,5.8096,5.8523,5.8523,3.4763,3.4806,3.4743,3.4796,3.4853,3.4853,3.5059,3.5401,3.547,3.5501,3.5605,3.5937,3.582,3.5664,3.582,3.5976,3.6113,3.6211,3.6172,3.6269,3.6289,3.6289,3.623,3.6152,3.6191,3.625,3.6289,3.6309,3.6348,3.6485,3.6739,3.7057,3.7267,3.7382,3.7785,3.7724,3.7549,3.7796,3.8063,3.8461,3.9517,4.0517,4.1531,4.2418,4.3188,4.3682,4.4337,4.5024,4.5521,4.5665,4.5742,4.5613,4.5503,4.5366,4.5457,4.5708,4.5775,4.6001,4.6505,4.7082,4.7546,4.8109,4.8869,4.899,4.8684,4.831,4.7842,4.7749,4.7842,4.7633,4.7121,4.7097,4.7817,4.8497,4.918,4.9722,5.0506,5.1081,5.096,5.0798,5.0544,5.0216,4.9485,4.8374,4.7826,4.7448,4.709,4.6629,4.6407,4.6527,4.6989,4.7149,4.7208,4.6896,4.6622,4.7842,4.9641,5.0902,5.1903,5.3828,5.5312,5.5827,5.6219,5.6219,5.6219,5.6219,5.6219,5.6219,5.6729,5.7235,5.7379,5.7595,5.8167,5.8523,5.8523,3.4696,3.4768,3.4275,3.4209,3.449,3.4508,3.4715,3.5059,3.5421,3.5617,3.5967,3.625,3.6152,3.543,3.584,3.6172,3.6523,3.6543,3.6797,3.7012,3.6875,3.6758,3.6621,3.6543,3.6543,3.6621,3.6777,3.6992,3.6816,3.6894,3.7221,3.7669,3.6966,3.7143,3.7541,3.7265,3.6734,3.7051,3.7254,3.7543,3.8437,3.9558,4.0759,4.1745,4.2698,4.3656,4.4669,4.5492,4.5792,4.5773,4.5594,4.5483,4.5438,4.5438,4.5506,4.5506,4.5551,4.5986,4.6467,4.6976,4.7418,4.8332,4.8874,4.8778,4.8519,4.8188,4.7857,4.7622,4.772,4.7676,4.7465,4.7813,4.8444,4.9085,4.9842,5.0032,5.0507,5.0317,5.0096,4.9928,4.9691,4.9472,4.9172,4.8239,4.7462,4.7188,4.7093,4.6758,4.6649,4.6688,4.6786,4.6947,4.7027,4.6476,4.6484,4.7474,4.8934,5.0262,5.188,5.3902,5.5312,5.5827,5.6146,5.6219,5.6219,5.6219,5.6219,5.6292,5.6729,5.7163,5.7307,5.7595,5.8167,5.8523,5.8523]}]]